[[{"header":{"parameterUnit":"m.s-1","parameterCategory":1,"la1":30.6,"la2":29.2853,"lo1":-89.7004,"lo2":-87.6739,"dy":0.0162,"dx":0.0183,"nx":112,"ny":82,"refTime":"2024-03-22T06:00:00:Z","depth":0,"parameterNumber":2,"parameterNumberName":"U-component_of_WINDS"},"data":[0.0,0.0,0.0,0.0,0.0,0.0,0.0,0.0,0.0,0.0,0.0,0.0,0.0,0.0,0.0,0.0,0.0,0.0,0.0,0.0,0.0,0.0,0.0,0.0,0.0,0.0,0.0,0.0,0.0,0.0,0.0,0.0,0.0,0.0,0.0,0.0,0.0,0.0,0.0,0.0,0.0,0.0,0.0,0.0,0.0,0.0,0.0,0.0,0.0,0.0,0.0,0.0,0.0,0.0,0.0,0.0,0.0,0.0,0.0,0.0,0.0,0.0,0.0,0.0,0.0,0.0,0.0,0.0,0.0,0.0,0.0,0.0,0.0,0.0,0.0,0.0,0.0,0.0,0.0,0.0,0.0,0.0,0.0,0.0,0.0,0.0,0.0,0.0,0.0,0.0,-9.071,-8.9295,-8.9072,-8.9072,-8.9072,-8.9072,-8.9072,-8.9072,0.0,0.0,0.0,0.0,0.0,0.0,0.0,0.0,0.0,0.0,0.0,0.0,0.0,0.0,0.0,0.0,0.0,0.0,0.0,0.0,0.0,0.0,0.0,0.0,0.0,0.0,0.0,0.0,0.0,0.0,0.0,0.0,0.0,0.0,0.0,0.0,0.0,0.0,0.0,0.0,0.0,0.0,0.0,0.0,0.0,0.0,0.0,0.0,0.0,0.0,0.0,0.0,0.0,0.0,0.0,0.0,0.0,0.0,0.0,0.0,0.0,0.0,0.0,0.0,0.0,0.0,0.0,0.0,0.0,0.0,0.0,0.0,0.0,0.0,0.0,0.0,0.0,0.0,0.0,0.0,0.0,0.0,0.0,0.0,0.0,0.0,0.0,0.0,0.0,0.0,0.0,0.0,0.0,0.0,0.0,0.0,0.0,0.0,0.0,0.0,0.0,0.0,0.0,0.0,-9.1716,-8.9373,-8.9072,-8.9072,-8.9072,-8.9072,-8.9072,-8.9072,0.0,0.0,0.0,0.0,0.0,0.0,0.0,0.0,0.0,0.0,0.0,0.0,0.0,0.0,0.0,0.0,0.0,0.0,0.0,0.0,0.0,0.0,0.0,0.0,0.0,0.0,0.0,0.0,0.0,0.0,0.0,0.0,0.0,0.0,0.0,0.0,0.0,0.0,0.0,0.0,0.0,0.0,0.0,0.0,0.0,0.0,0.0,0.0,0.0,0.0,0.0,0.0,0.0,0.0,0.0,0.0,0.0,0.0,0.0,0.0,0.0,0.0,0.0,0.0,0.0,0.0,0.0,0.0,0.0,0.0,0.0,0.0,0.0,0.0,0.0,0.0,0.0,0.0,0.0,0.0,0.0,0.0,0.0,0.0,0.0,0.0,0.0,0.0,0.0,0.0,0.0,0.0,0.0,0.0,0.0,0.0,0.0,0.0,0.0,0.0,0.0,0.0,0.0,-9.1296,-9.0376,-8.924,-8.9072,-8.9072,-8.9072,-8.9072,-8.9072,-8.9072,-8.9072,0.0,0.0,0.0,0.0,0.0,0.0,0.0,0.0,0.0,0.0,0.0,0.0,0.0,0.0,0.0,0.0,0.0,0.0,0.0,0.0,0.0,0.0,0.0,0.0,0.0,0.0,0.0,0.0,0.0,0.0,0.0,0.0,0.0,0.0,0.0,0.0,0.0,0.0,0.0,0.0,0.0,0.0,0.0,0.0,0.0,0.0,0.0,0.0,0.0,0.0,0.0,0.0,0.0,0.0,0.0,0.0,0.0,0.0,0.0,0.0,0.0,0.0,0.0,0.0,0.0,0.0,0.0,0.0,0.0,0.0,0.0,0.0,0.0,0.0,0.0,0.0,0.0,0.0,0.0,0.0,0.0,0.0,0.0,0.0,0.0,0.0,0.0,0.0,0.0,0.0,0.0,0.0,0.0,0.0,0.0,0.0,0.0,0.0,0.0,0.0,0.0,0.0,-9.0089,-8.9072,-8.9072,-8.9072,-8.9072,-8.9072,-8.9072,-8.9072,-8.9072,-8.9072,0.0,0.0,0.0,0.0,0.0,0.0,0.0,0.0,0.0,0.0,0.0,0.0,0.0,0.0,0.0,0.0,0.0,0.0,0.0,0.0,0.0,0.0,0.0,0.0,0.0,0.0,0.0,0.0,0.0,0.0,0.0,0.0,0.0,0.0,0.0,0.0,0.0,0.0,0.0,0.0,0.0,0.0,0.0,0.0,0.0,0.0,0.0,0.0,0.0,0.0,0.0,0.0,0.0,0.0,0.0,0.0,0.0,0.0,0.0,0.0,0.0,0.0,0.0,0.0,0.0,0.0,0.0,0.0,0.0,0.0,0.0,0.0,0.0,0.0,0.0,0.0,0.0,0.0,0.0,0.0,0.0,0.0,0.0,0.0,0.0,0.0,0.0,0.0,0.0,0.0,0.0,0.0,0.0,0.0,0.0,0.0,0.0,0.0,0.0,0.0,0.0,0.0,-9.0605,-8.9072,-8.9072,-8.9072,-8.9072,-8.9072,-8.9072,-8.9072,-8.9072,-8.9072,0.0,0.0,0.0,0.0,0.0,0.0,0.0,0.0,0.0,0.0,0.0,0.0,0.0,0.0,0.0,0.0,0.0,0.0,0.0,0.0,0.0,0.0,0.0,0.0,0.0,0.0,0.0,0.0,0.0,0.0,0.0,0.0,0.0,0.0,0.0,0.0,0.0,0.0,0.0,0.0,0.0,0.0,0.0,0.0,0.0,0.0,0.0,0.0,0.0,0.0,0.0,0.0,0.0,0.0,0.0,0.0,0.0,0.0,0.0,0.0,0.0,0.0,0.0,0.0,0.0,0.0,0.0,0.0,0.0,0.0,0.0,0.0,0.0,0.0,0.0,0.0,0.0,0.0,0.0,0.0,0.0,0.0,0.0,0.0,0.0,0.0,0.0,0.0,0.0,0.0,0.0,0.0,0.0,0.0,0.0,0.0,0.0,0.0,0.0,0.0,0.0,0.0,-9.0658,-8.9072,-8.9072,-8.9072,-8.9072,-8.9072,-8.9072,-8.9072,-8.9072,0.0,0.0,0.0,0.0,0.0,0.0,0.0,0.0,0.0,0.0,0.0,0.0,0.0,0.0,0.0,0.0,0.0,0.0,0.0,0.0,0.0,0.0,0.0,0.0,0.0,0.0,0.0,0.0,0.0,0.0,0.0,0.0,0.0,0.0,0.0,0.0,0.0,0.0,0.0,0.0,0.0,0.0,0.0,0.0,0.0,0.0,0.0,0.0,0.0,0.0,0.0,0.0,0.0,0.0,0.0,0.0,0.0,0.0,0.0,0.0,0.0,0.0,0.0,0.0,0.0,0.0,0.0,0.0,0.0,0.0,0.0,0.0,0.0,0.0,0.0,0.0,0.0,0.0,0.0,0.0,0.0,0.0,0.0,0.0,0.0,0.0,0.0,0.0,0.0,0.0,0.0,0.0,0.0,0.0,0.0,0.0,0.0,0.0,0.0,0.0,0.0,0.0,-9.2896,-9.0658,-8.9072,-8.9072,-8.9072,-8.9072,-8.9072,-8.9072,-8.9072,-8.9072,0.0,0.0,0.0,0.0,0.0,0.0,0.0,0.0,0.0,0.0,0.0,0.0,0.0,0.0,0.0,0.0,0.0,0.0,0.0,0.0,0.0,0.0,0.0,0.0,0.0,0.0,0.0,0.0,0.0,0.0,0.0,0.0,0.0,0.0,0.0,0.0,0.0,0.0,0.0,0.0,0.0,0.0,0.0,0.0,0.0,0.0,0.0,0.0,0.0,0.0,0.0,0.0,0.0,0.0,0.0,0.0,0.0,0.0,0.0,0.0,0.0,0.0,0.0,0.0,0.0,0.0,0.0,0.0,0.0,0.0,0.0,0.0,0.0,0.0,0.0,0.0,0.0,0.0,0.0,0.0,0.0,0.0,0.0,0.0,0.0,0.0,0.0,0.0,0.0,0.0,0.0,0.0,0.0,0.0,0.0,0.0,0.0,0.0,0.0,0.0,0.0,0.0,-9.2896,-9.0658,-8.9072,-8.9072,-8.9072,-8.9072,-8.9072,-8.9072,-8.9072,0.0,0.0,0.0,0.0,0.0,0.0,0.0,0.0,0.0,0.0,0.0,0.0,0.0,0.0,0.0,0.0,0.0,0.0,0.0,0.0,0.0,0.0,0.0,0.0,0.0,0.0,0.0,0.0,0.0,0.0,0.0,0.0,0.0,0.0,0.0,0.0,0.0,0.0,0.0,0.0,0.0,0.0,0.0,0.0,0.0,0.0,0.0,0.0,0.0,0.0,0.0,0.0,0.0,0.0,0.0,0.0,0.0,0.0,0.0,0.0,0.0,0.0,0.0,0.0,0.0,0.0,0.0,0.0,0.0,0.0,0.0,0.0,0.0,0.0,0.0,0.0,0.0,0.0,0.0,0.0,0.0,0.0,0.0,0.0,0.0,0.0,0.0,0.0,0.0,0.0,0.0,0.0,0.0,0.0,0.0,0.0,0.0,0.0,0.0,0.0,0.0,0.0,0.0,-9.2896,-9.0658,-8.9072,-8.9072,-8.9072,-8.9072,-8.9072,-8.9072,-8.9072,-8.9072,0.0,0.0,0.0,0.0,0.0,0.0,0.0,0.0,0.0,0.0,0.0,0.0,0.0,0.0,0.0,0.0,0.0,0.0,0.0,0.0,0.0,0.0,0.0,0.0,0.0,0.0,0.0,0.0,0.0,0.0,0.0,0.0,0.0,0.0,0.0,0.0,0.0,0.0,0.0,0.0,0.0,0.0,0.0,0.0,0.0,0.0,0.0,0.0,0.0,0.0,0.0,0.0,0.0,0.0,0.0,0.0,0.0,0.0,0.0,0.0,0.0,0.0,0.0,0.0,0.0,0.0,0.0,0.0,0.0,0.0,0.0,0.0,0.0,0.0,0.0,0.0,0.0,0.0,0.0,0.0,0.0,0.0,0.0,0.0,0.0,0.0,0.0,0.0,0.0,0.0,0.0,0.0,0.0,0.0,0.0,0.0,0.0,0.0,0.0,0.0,0.0,0.0,-9.2932,-9.0658,-8.9072,-8.9072,-8.9072,-8.9072,-8.9072,-8.9072,-8.9072,-8.9072,0.0,0.0,0.0,0.0,0.0,0.0,0.0,0.0,0.0,0.0,0.0,0.0,0.0,0.0,0.0,0.0,0.0,0.0,0.0,0.0,0.0,0.0,0.0,0.0,0.0,0.0,0.0,0.0,0.0,0.0,0.0,0.0,0.0,0.0,0.0,0.0,0.0,0.0,0.0,0.0,0.0,0.0,0.0,0.0,0.0,0.0,0.0,0.0,0.0,0.0,0.0,0.0,0.0,0.0,0.0,0.0,0.0,0.0,0.0,0.0,0.0,0.0,0.0,0.0,0.0,0.0,0.0,0.0,0.0,0.0,0.0,0.0,0.0,0.0,0.0,0.0,0.0,0.0,0.0,0.0,0.0,0.0,0.0,0.0,0.0,0.0,0.0,0.0,0.0,0.0,0.0,0.0,0.0,0.0,0.0,0.0,0.0,0.0,0.0,0.0,0.0,0.0,-9.2896,-9.0623,-8.9072,-8.9072,-8.9072,-8.9072,-8.9072,-8.9072,-8.9072,-8.9072,0.0,0.0,0.0,0.0,0.0,0.0,0.0,0.0,0.0,0.0,0.0,0.0,0.0,0.0,0.0,0.0,0.0,0.0,0.0,0.0,0.0,0.0,0.0,0.0,0.0,0.0,0.0,0.0,0.0,0.0,0.0,0.0,0.0,0.0,0.0,0.0,0.0,0.0,0.0,0.0,0.0,0.0,0.0,0.0,0.0,0.0,0.0,0.0,0.0,0.0,0.0,0.0,0.0,0.0,0.0,0.0,0.0,0.0,0.0,0.0,-9.7317,-9.7246,0.0,0.0,0.0,0.0,0.0,0.0,0.0,0.0,0.0,0.0,0.0,0.0,0.0,0.0,0.0,0.0,0.0,0.0,0.0,0.0,0.0,0.0,0.0,0.0,0.0,0.0,0.0,0.0,0.0,0.0,0.0,0.0,0.0,0.0,0.0,0.0,0.0,0.0,0.0,0.0,-9.2012,-9.026,-8.9072,-8.9072,-8.9072,-8.9072,-8.9072,-8.9072,-8.9072,-8.9072,-8.9072,0.0,0.0,0.0,0.0,0.0,0.0,0.0,0.0,0.0,0.0,0.0,0.0,0.0,0.0,0.0,0.0,0.0,0.0,0.0,0.0,0.0,0.0,0.0,0.0,0.0,0.0,0.0,0.0,0.0,0.0,0.0,0.0,0.0,0.0,0.0,0.0,0.0,0.0,0.0,0.0,0.0,0.0,0.0,0.0,0.0,0.0,0.0,0.0,0.0,0.0,0.0,0.0,0.0,0.0,0.0,0.0,0.0,0.0,0.0,-9.7101,-9.7064,0.0,0.0,0.0,0.0,0.0,0.0,0.0,0.0,0.0,0.0,0.0,0.0,0.0,0.0,0.0,0.0,0.0,0.0,0.0,0.0,0.0,0.0,0.0,0.0,0.0,0.0,0.0,0.0,0.0,0.0,0.0,0.0,0.0,0.0,0.0,0.0,0.0,0.0,0.0,0.0,-9.2342,-9.0398,-8.9072,-8.9072,-8.9072,-8.9072,-8.9072,-8.9072,-8.9072,-8.9072,-8.9072,0.0,0.0,0.0,0.0,0.0,0.0,0.0,0.0,0.0,0.0,0.0,0.0,0.0,0.0,0.0,0.0,0.0,0.0,0.0,0.0,0.0,0.0,0.0,0.0,0.0,0.0,0.0,0.0,0.0,0.0,0.0,0.0,0.0,0.0,0.0,0.0,0.0,0.0,0.0,0.0,0.0,0.0,0.0,0.0,0.0,0.0,0.0,0.0,0.0,0.0,0.0,0.0,0.0,-9.8124,-9.7729,-9.7595,-9.699,-9.6685,-9.6685,-9.6685,-9.6685,-9.6685,-9.6685,0.0,0.0,0.0,0.0,0.0,0.0,0.0,0.0,0.0,0.0,0.0,0.0,0.0,0.0,0.0,0.0,0.0,0.0,0.0,0.0,0.0,0.0,-9.7126,-9.7126,-9.7126,-9.7126,-9.7126,0.0,0.0,0.0,0.0,0.0,0.0,0.0,0.0,0.0,0.0,0.0,-9.3333,-9.1213,-8.9712,-8.9331,-8.9275,-8.9241,-8.9106,-8.9072,-8.9072,-8.9072,-8.9072,-8.9072,0.0,0.0,0.0,0.0,0.0,0.0,0.0,0.0,0.0,0.0,0.0,0.0,0.0,0.0,0.0,0.0,0.0,0.0,0.0,0.0,0.0,0.0,0.0,0.0,0.0,0.0,0.0,0.0,0.0,0.0,0.0,0.0,-9.4749,-9.498,0.0,0.0,0.0,0.0,0.0,0.0,0.0,0.0,0.0,0.0,0.0,0.0,0.0,-10.0804,-9.9986,-10.0024,-9.9318,-9.796,-9.7827,-9.7457,-9.6839,-9.6762,-9.6685,-9.6685,-9.6685,0.0,-9.6685,-9.6685,0.0,0.0,0.0,0.0,0.0,0.0,0.0,0.0,0.0,0.0,0.0,0.0,0.0,0.0,0.0,0.0,0.0,0.0,0.0,0.0,0.0,0.0,-9.8778,-9.8778,-9.8778,-9.8778,-9.8778,-9.7676,-9.6906,-9.7603,-9.7197,-9.7158,0.0,0.0,0.0,0.0,0.0,0.0,-9.4692,-9.3465,-9.2041,-9.0234,-9.0053,-8.9782,-8.914,-8.9072,-8.9072,-8.9072,-8.9072,-8.9072,-8.9072,-8.9072,0.0,0.0,0.0,0.0,0.0,0.0,0.0,0.0,0.0,0.0,0.0,0.0,0.0,0.0,0.0,0.0,0.0,0.0,0.0,0.0,0.0,0.0,0.0,0.0,0.0,0.0,0.0,0.0,0.0,-9.4518,-9.5172,-9.5672,-9.6057,-9.648,0.0,0.0,0.0,0.0,0.0,0.0,0.0,0.0,0.0,-10.0716,-10.0694,-10.0304,-9.9547,-9.9065,-9.8498,-9.7797,-9.7351,-9.699,-9.6685,-9.6685,-9.6685,-9.6685,-9.6685,-9.6685,-9.6685,-9.6685,-9.6685,-9.6685,0.0,0.0,0.0,0.0,-9.6685,-9.6759,-9.7199,-9.7346,-9.7456,-9.7897,0.0,0.0,0.0,0.0,0.0,0.0,0.0,-9.9108,-9.9108,-9.9108,-9.9108,-9.9108,-9.9108,-9.9035,-9.8738,-9.8335,-9.8154,-9.8521,-9.8521,-9.8704,-9.9441,-9.9108,0.0,0.0,0.0,-9.6947,-9.6184,-9.4438,-9.2958,-9.2035,-9.1273,-9.0696,-9.0357,-8.9951,-8.9715,-8.9715,-8.9309,-8.9072,-8.9072,-8.9072,-8.9072,0.0,0.0,0.0,0.0,0.0,0.0,0.0,0.0,0.0,0.0,0.0,0.0,0.0,0.0,0.0,0.0,0.0,0.0,0.0,0.0,0.0,0.0,0.0,0.0,0.0,0.0,0.0,0.0,-9.5172,-9.5557,-9.6211,-9.648,-9.6826,0.0,0.0,0.0,0.0,0.0,0.0,-10.1289,-10.1289,-10.0993,-10.052,-10.0497,-10.0073,-9.9318,-9.8882,-9.8498,-9.8124,-9.7562,-9.7173,-9.699,-9.68,-9.6685,-9.6685,-9.6685,-9.6832,-9.6979,-9.6795,-9.6832,-9.7016,-9.7016,-9.7126,-9.7309,-9.7309,-9.7309,-9.7419,-9.8007,-9.819,-9.83,-9.8924,-9.9255,-9.9402,-9.9402,0.0,0.0,0.0,0.0,-9.9695,-9.9695,-9.9695,-9.9695,-9.9695,-9.9695,-9.9622,-9.9176,-9.9435,-9.9622,-9.9365,-9.9661,-9.9992,-10.0325,-9.9992,0.0,-10.0175,-9.9198,-9.8028,-9.7372,-9.5604,-9.4024,-9.3138,-9.2191,-9.1508,-9.1305,-9.0797,-9.0391,-9.0222,-8.9681,-8.9275,-8.9106,-8.9072,-8.9072,-8.9072,0.0,0.0,0.0,0.0,0.0,0.0,0.0,0.0,0.0,0.0,0.0,0.0,0.0,0.0,0.0,0.0,0.0,0.0,0.0,0.0,0.0,0.0,0.0,0.0,0.0,0.0,0.0,0.0,0.0,-9.6288,-9.698,0.0,0.0,0.0,0.0,-10.0096,-10.0789,-10.1289,-10.1289,-10.1289,-10.1308,-10.1211,-10.1211,-10.0906,-10.0098,-10.0804,-10.0375,-9.8949,-9.892,-9.8498,-9.7729,-9.699,-9.6685,-9.6685,-9.6685,-9.7126,-9.7787,-9.7016,-9.7163,-9.7823,-9.7823,-9.83,-9.8998,-9.8998,-9.8998,-9.8998,-9.9035,-9.9035,-9.9071,-9.9108,-9.9622,-10.0209,-10.0209,-10.0796,0.0,0.0,-10.1384,-10.1384,-10.1384,-10.1384,-10.1384,-10.1384,-10.1384,-10.1384,-10.131,-10.1384,-10.109,-10.0096,-9.9876,-10.0206,-10.12,0.0,-10.1384,-10.1384,-10.1307,-10.0409,-9.7785,-9.7343,-9.603,-9.2792,-9.2353,-9.2083,-9.1372,-9.1271,-9.0966,-9.0256,-9.0188,-8.9816,-8.9106,-8.9072,-8.9072,-8.9072,-8.9072,0.0,0.0,0.0,0.0,0.0,0.0,0.0,0.0,0.0,0.0,0.0,0.0,0.0,0.0,0.0,0.0,0.0,0.0,0.0,0.0,0.0,0.0,0.0,0.0,0.0,0.0,0.0,0.0,-9.6288,-9.7019,0.0,-9.8288,-9.9404,-10.0289,-10.0789,-10.1096,-10.1289,-10.1289,-10.1289,-10.1289,-10.1289,-10.1289,-10.119,-10.0889,-10.0716,-10.0304,-9.9732,-9.8742,-9.8342,-9.8529,-9.7282,-9.7247,-9.8239,-9.7725,-9.7933,-9.8668,-9.8374,-9.8411,-9.8668,-9.8668,-9.8851,-9.9108,-9.9108,-9.9108,-9.9181,-9.9695,-9.9879,-9.9952,-10.0503,-10.0796,-10.109,-10.109,-10.1274,-10.1494,-10.1494,-10.1494,-10.1494,-10.1494,-10.1494,-10.1494,-10.1494,-10.1494,-10.1494,-10.1494,-10.1494,-10.1384,-10.1017,-10.0907,-10.109,-10.1384,-10.1494,-10.1494,-10.1494,-10.1494,-10.1213,-10.0188,-9.855,-9.6992,-9.5803,-9.4201,-9.3064,-9.2793,-9.2319,-9.1913,-9.1643,-9.1169,-9.056,-8.985,-8.9793,-8.9557,-8.9106,-8.9072,-8.9072,0.0,0.0,0.0,0.0,0.0,0.0,0.0,0.0,0.0,0.0,0.0,0.0,0.0,0.0,0.0,0.0,0.0,0.0,0.0,0.0,0.0,0.0,0.0,0.0,0.0,-9.6288,-9.6403,-9.6673,-9.7442,-9.8288,-9.9135,-9.9981,-10.0712,-10.1289,-10.1289,-10.1289,-10.1289,-10.1289,-10.1289,-10.1289,-10.1289,-10.1289,-10.1289,-10.0804,-10.0627,-10.0604,-9.9235,-9.8742,-9.8978,-9.7998,-9.7949,-9.8684,-9.8425,-9.8778,-9.9512,-9.9512,-9.9659,-9.9879,-9.9622,-9.9659,-9.9916,-9.9916,-9.9916,-9.9989,-10.0503,-10.0686,-10.0796,-10.1274,-10.1494,-10.1494,-10.1494,-10.1494,-10.1494,-10.1494,-10.1494,-10.1494,-10.1494,-10.1494,-10.1494,-10.1494,-10.1494,-10.1494,-10.1494,-10.1494,-10.1494,-10.1494,-10.1494,-10.1494,-10.1494,-10.1494,-10.1494,-10.1494,-10.1494,-10.1299,-10.0892,-9.8913,-9.7299,-9.6844,-9.4915,-9.3571,-9.3571,-9.3098,-9.2692,-9.2455,-9.1947,-9.1338,-9.0594,-9.056,-9.0245,-8.9489,-8.9229,-8.9072,-8.9072,0.0,0.0,0.0,0.0,0.0,0.0,0.0,0.0,0.0,0.0,0.0,0.0,0.0,0.0,0.0,0.0,0.0,0.0,0.0,0.0,0.0,0.0,0.0,-9.6288,-9.6326,-9.6634,-9.7403,-9.8288,-9.9173,-9.9981,-10.0789,-10.1289,-10.1289,-10.1289,-10.1289,-10.1289,-10.1289,-10.1289,-10.1289,-10.1289,-10.1289,-10.1289,-10.1289,-10.1289,-10.1308,-10.0505,-9.9796,-9.9045,-9.9053,-9.8684,-9.8046,-9.8814,-9.9585,-10.0319,-10.0319,-10.0796,-10.1384,-10.0613,-10.0796,-10.1494,-10.1494,-10.1494,-10.1494,-10.1494,-10.1494,-10.1494,-10.1494,-10.1494,-10.1494,-10.1494,-10.1494,-10.1494,-10.1494,-10.1494,-10.1494,-10.1494,-10.1494,-10.1494,-10.1494,-10.1494,-10.1494,-10.1494,-10.1494,-10.1494,-10.1494,-10.1494,-10.1494,-10.1494,-10.1494,-10.1494,-10.1494,-10.1494,0.0,-9.9757,-9.8408,-9.7048,-9.5708,-9.4386,-9.363,-9.3571,-9.3571,-9.3267,-9.2522,-9.2455,-9.2116,-9.1372,-9.1352,-9.0991,-9.0199,-8.9489,-8.9106,-8.9072,0.0,0.0,0.0,0.0,0.0,0.0,0.0,0.0,0.0,0.0,0.0,0.0,0.0,0.0,0.0,0.0,0.0,0.0,0.0,0.0,0.0,-9.6288,-9.6288,-9.6288,-9.6788,-9.725,-9.748,-9.8827,-9.9827,-10.0096,-10.0789,-10.1289,-10.1289,-10.1289,-10.1289,-10.1289,-10.1289,-10.1289,-10.1289,-10.1289,-10.1289,-10.1289,-10.1289,-10.1289,-10.1308,-9.9936,-9.9823,-10.0708,-9.9019,-9.9058,-10.0498,-10.0082,-10.0393,-10.12,-10.12,-10.1274,-10.1494,-10.1274,-10.1274,-10.1494,-10.1494,-10.1494,-10.1494,-10.1494,-10.1494,-10.1494,-10.1494,-10.1494,-10.1494,-10.1494,-10.1494,-10.1494,-10.1494,-10.1494,-10.1494,-10.1494,-10.1494,-10.1494,-10.1494,-10.1494,-10.1494,-10.1494,-10.1494,-10.1494,-10.1494,-10.1494,-10.1494,-10.1494,-10.1494,-10.1494,-10.1494,-10.1494,-10.1413,-10.0975,-9.9801,-9.8456,-9.7098,-9.5796,-9.4613,-9.3689,-9.3571,-9.3503,-9.3267,-9.3267,-9.2895,-9.2141,-9.2126,-9.1508,-9.0233,-8.9974,-8.9646,0.0,0.0,0.0,0.0,0.0,0.0,0.0,0.0,0.0,0.0,0.0,0.0,0.0,0.0,0.0,0.0,0.0,0.0,0.0,0.0,0.0,0.0,-9.6596,-9.6788,-9.6788,-9.7211,-9.7788,-9.8481,-9.9481,-10.0212,-10.0596,-10.1019,-10.1289,-10.1289,-10.1289,-10.1289,-10.1289,-10.1289,-10.1289,-10.1289,-10.1289,-10.1289,-10.1289,-10.1289,-10.1289,-10.1308,-10.0818,-10.0811,-10.1394,-10.0392,-10.0522,-10.1523,-10.0971,-10.109,-10.1494,-10.1494,-10.1494,-10.1494,0.0,0.0,0.0,0.0,-10.1494,-10.1494,-10.1494,-10.1494,-10.1494,-10.1494,-10.1494,-10.1494,-10.1494,-10.1494,-10.1494,-10.1494,-10.1494,-10.1494,-10.1494,-10.1494,-10.1494,-10.1494,-10.1494,-10.1494,-10.1494,-10.1494,-10.1494,-10.1494,-10.1494,0.0,-10.1494,-10.1494,-10.1494,-10.1494,-10.1494,-10.1494,-10.1494,-10.0317,-9.9006,-9.7647,-9.631,-9.4992,-9.3747,-9.3571,0.0,0.0,0.0,-9.3368,-9.2953,-9.2583,0.0,0.0,0.0,-9.0436,-9.0019,-8.9715,0.0,0.0,-8.9241,-8.9072,0.0,0.0,0.0,0.0,0.0,0.0,0.0,0.0,0.0,0.0,0.0,0.0,0.0,0.0,0.0,0.0,-9.698,-9.7519,-9.7634,-9.775,-9.8365,-9.9904,-10.0173,-10.0481,-10.1212,-10.1289,-10.1289,-10.1289,-10.1289,-10.1289,-10.1289,-10.1289,0.0,0.0,0.0,-10.1289,-10.1289,-10.1289,-10.1289,-10.1289,-10.2114,-10.209,-10.1596,-10.2213,-10.2182,-10.1597,-10.1526,-10.1494,-10.1494,-10.1494,-10.1494,-10.1494,-10.1494,-10.1494,-10.1494,-10.1494,-10.1494,-10.1494,-10.1494,0.0,0.0,-10.1494,-10.1494,-10.1494,-10.1494,-10.1494,-10.1494,-10.1494,-10.1494,-10.1494,-10.1494,-10.1494,-10.1494,-10.1494,-10.1494,-10.1494,-10.1494,-10.1494,-10.1494,-10.1494,-10.1494,-10.1494,-10.1494,-10.1494,-10.1494,-10.1494,-10.1494,-10.1494,-10.1494,-10.0518,-9.9144,-9.7647,-9.6467,0.0,-9.3747,-9.3571,-9.3571,-9.3571,-9.3571,-9.3571,-9.3571,-9.2887,-9.2525,-9.2398,-9.175,-9.1396,-9.1315,-9.0672,-9.0334,-9.0324,-8.9478,-8.9072,0.0,0.0,0.0,0.0,0.0,0.0,0.0,0.0,0.0,0.0,0.0,0.0,0.0,0.0,0.0,-9.6288,-9.698,-9.775,-9.8442,-9.9135,-9.9712,-10.0115,-10.0712,-10.1096,-10.1289,-10.1289,-10.1289,-10.1289,-10.1289,-10.1289,-10.1289,-10.1289,-10.1289,-10.1289,-10.1289,-10.1289,-10.1289,-10.1289,-10.1289,-10.1308,-10.1482,0.0,-10.2423,-10.1878,-10.199,-10.2379,-10.1821,-10.1494,-10.1494,-10.1494,-10.1494,-10.1494,-10.1494,-10.1494,-10.1494,-10.1494,-10.1494,-10.1494,-10.1494,-10.1494,-10.1494,-10.1494,-10.1494,-10.1494,-10.1494,-10.1494,0.0,-10.1494,-10.1494,-10.1494,-10.1494,-10.1494,-10.1494,-10.1494,-10.1494,-10.1494,-10.1494,-10.1494,-10.1494,-10.1494,-10.1494,-10.1494,-10.1494,-10.1494,-10.1494,-10.1494,-10.1494,-10.1494,-10.1494,-10.1295,-10.0188,-9.7745,-9.7249,-9.6187,-9.3772,-9.3571,-9.3571,-9.3571,-9.3571,-9.3571,-9.3571,-9.347,-9.3048,-9.2398,-9.2297,-9.1901,-9.1279,-9.1132,-9.1102,-9.1068,-8.9715,-8.9072,0.0,0.0,0.0,0.0,0.0,0.0,0.0,0.0,0.0,0.0,0.0,-9.6288,-9.6288,0.0,-9.6442,-9.6826,-9.7596,-9.8442,-9.9327,-10.0212,-10.0712,-10.0712,-10.1096,-10.1289,-10.1289,-10.1289,-10.1289,-10.1289,-10.1289,-10.1289,-10.1289,-10.1289,-10.1289,-10.1289,-10.1289,-10.1289,-10.1289,-10.1289,-10.152,-10.202,-10.2407,-10.3097,-10.378,-10.3491,-10.3395,-10.3289,-10.2498,-10.1897,-10.1494,-10.1494,-10.1494,-10.1494,-10.1494,-10.1494,-10.1494,-10.1494,-10.1494,-10.1494,-10.1494,-10.1494,-10.1494,-10.1494,-10.1494,-10.1494,-10.1494,-10.1788,-10.2081,-10.2081,-10.2228,-10.2371,-10.2595,-10.2893,-10.3003,-10.2819,-10.2705,-10.2705,-10.2705,-10.2705,-10.2595,-10.2191,-10.2081,-10.2008,-10.1567,-10.1494,-10.1494,-10.1494,-10.1494,-10.1494,-10.1494,-10.1494,-10.0518,-9.7794,-9.7499,-9.645,-9.383,-9.3571,-9.3571,-9.3571,-9.3571,-9.3571,-9.3571,-9.3571,-9.3377,-9.3014,-9.3014,-9.282,-9.2432,-9.2034,-9.1846,-9.1812,-9.0696,-9.0188,0.0,0.0,0.0,0.0,0.0,0.0,0.0,-9.6746,-9.6551,-9.634,-9.6288,-9.6288,-9.6288,-9.6288,-9.6557,-9.7365,-9.8211,-9.9096,-9.9981,-10.0789,-10.1289,-10.1289,-10.1289,-10.1289,-10.1289,-10.1289,-10.1289,-10.1289,-10.1289,-10.1289,-10.1289,-10.1289,-10.1289,-10.1289,-10.1289,-10.1289,-10.1289,-10.1289,-10.1712,-10.2597,-10.3482,-10.4289,-10.5077,-10.5171,-10.479,-10.4206,-10.3118,-10.2315,-10.1702,-10.1614,-10.1494,-10.1494,-10.1494,-10.1494,-10.1494,-10.1494,-10.1494,-10.1494,-10.1494,-10.1494,-10.1494,-10.1677,-10.1677,-10.1788,-10.1898,-10.2412,-10.2999,-10.3072,-10.3178,-10.3398,-10.388,-10.4288,-10.4403,-10.399,-10.388,-10.388,-10.388,-10.388,-10.3696,-10.3109,-10.2925,-10.2705,-10.2081,-10.1788,-10.1677,-10.1494,-10.1494,-10.1494,-10.1494,-10.1494,-10.0518,-9.7794,-9.7491,-9.643,-9.383,-9.3571,-9.3571,-9.3571,-9.3571,-9.3571,-9.3571,-9.3571,-9.3571,-9.3571,-9.3571,-9.3571,-9.3571,-9.2962,-9.2658,-9.2624,-9.2015,-9.1575,-9.3554,-9.4883,-9.6007,-9.5693,-9.646,-9.7103,0.0,-9.6483,-9.6551,-9.634,-9.6288,-9.6288,-9.6288,-9.6288,-9.6557,-9.7365,-9.8211,-9.9096,-9.9981,-10.0789,-10.1289,-10.1289,-10.1289,-10.1289,-10.1289,-10.1289,-10.1289,-10.1289,-10.1289,-10.1289,-10.1289,-10.1289,-10.1289,-10.1289,-10.1289,-10.1289,-10.1289,-10.1289,-10.1712,-10.2597,-10.3482,-10.4289,-10.5077,-10.5171,-10.5193,-10.4999,-10.3383,-10.2602,-10.2534,-10.1817,-10.1494,-10.1494,-10.1494,-10.1494,-10.1494,-10.1494,-10.1494,-10.1494,-10.1494,-10.1494,-10.1604,-10.2301,-10.2595,-10.2705,-10.3403,-10.3696,-10.388,-10.4329,-10.4178,-10.388,-10.4513,-10.4288,-10.399,-10.388,-10.388,-10.388,-10.388,-10.388,-10.388,-10.3806,-10.3806,-10.3696,-10.3586,-10.2999,-10.2301,-10.1604,-10.1494,-10.1494,-10.1494,-10.1494,-10.0518,-9.7794,-9.7516,-9.6478,-9.3821,-9.3571,-9.3571,-9.3571,-9.3571,-9.3571,-9.3571,-9.3571,-9.3571,-9.3571,-9.3571,-9.3571,-9.3571,-9.3503,-9.347,-9.3436,-9.3368,-9.259,-9.3672,-9.5156,-9.6444,-9.6205,-9.6796,-9.7259,-9.6819,-9.6629,-9.6551,-9.634,-9.6288,-9.6288,-9.6288,-9.6673,-9.7288,-9.8134,-9.8981,-9.9827,-10.0712,-10.1096,-10.1289,-10.1289,-10.1289,-10.1289,-10.1289,-10.1289,-10.1289,-10.1289,-10.1289,-10.1289,-10.1289,-10.1289,-10.1289,-10.1289,-10.1289,-10.1289,-10.1289,-10.1289,-10.202,-10.3405,-10.3712,-10.4597,-10.5905,-10.5882,-10.5624,-10.5104,-10.3378,-10.2711,-10.2602,-10.1782,-10.1494,-10.1494,-10.1494,-10.1494,-10.1494,-10.1494,-10.1494,-10.1494,-10.1494,-10.1788,-10.2301,-10.2595,-10.2999,-10.3403,-10.3398,-10.3985,-10.4614,-10.4687,-10.4981,-10.5385,-10.561,-10.55,-10.5385,-10.5385,-10.5385,-10.5385,-10.5385,-10.5385,-10.5201,-10.4687,-10.4614,-10.4394,-10.399,-10.3586,-10.3293,-10.2889,-10.2081,-10.1494,-10.1494,-10.1494,-10.0518,-9.7794,-9.6799,-9.5579,-9.3747,-9.3571,-9.3571,-9.3571,-9.3571,-9.3571,-9.3571,-9.3571,-9.3571,-9.3571,-9.3571,-9.3571,-9.3571,-9.3571,-9.3571,-9.3571,-9.3571,-9.3233,-9.4101,-9.5508,-9.6835,-9.6753,-9.7073,-9.7322,-9.6984,-9.6732,-9.6551,-9.634,-9.6288,-9.6288,-9.6288,-9.698,-9.7788,-9.8673,-9.9519,-10.0404,-10.1212,-10.1289,-10.1289,-10.1289,-10.1289,-10.1289,-10.1289,-10.1289,-10.1289,-10.1289,-10.1289,-10.1289,-10.1289,-10.1289,-10.1289,-10.1289,-10.1289,-10.1289,-10.1289,-10.152,-10.2404,-10.3905,-10.4097,-10.4982,-10.6405,-10.6405,-10.6096,-10.5418,-10.3803,-10.3092,-10.2989,-10.1899,-10.1494,-10.1494,-10.1494,-10.1494,-10.1494,-10.1677,-10.1788,-10.1788,-10.1788,-10.2375,-10.3109,-10.3293,-10.3696,-10.4137,-10.4022,-10.4682,-10.5422,-10.5196,-10.5825,-10.6376,-10.6376,-10.6376,-10.6376,-10.6376,-10.6376,-10.6376,-10.6376,-10.6376,-10.6192,-10.5605,-10.5495,-10.5311,-10.4687,-10.4394,-10.421,-10.421,-10.3113,-10.2122,-10.1898,-10.1307,-10.0214,-9.8261,-9.6507,-9.5136,-9.4222,-9.3799,-9.3571,-9.3571,-9.3571,-9.3571,-9.3571,-9.3571,-9.3571,-9.3571,-9.3571,-9.3571,-9.3571,-9.3571,-9.3571,-9.3571,-9.3571,-9.3571,-9.5156,-9.6406,-9.7615,-9.7401,-9.7373,-9.7259,-9.672,-9.6602,-9.6551,-9.634,-9.6288,-9.6288,-9.6288,-9.698,-9.7788,-9.8673,-9.9519,-10.0404,-10.1212,-10.1289,-10.1289,-10.1289,-10.1289,-10.1289,-10.1289,-10.1289,-10.1289,-10.1289,-10.1289,-10.1289,-10.1289,-10.1289,-10.1289,-10.1289,-10.1289,-10.1289,-10.1289,-10.2097,-10.2981,-10.3905,-10.4713,-10.5482,-10.6405,-10.6405,-10.6385,-10.6322,-10.4702,-10.3995,-10.3803,-10.2203,-10.1494,-10.1494,-10.1494,-10.1494,-10.1604,-10.2412,-10.2705,-10.2705,-10.2705,-10.3182,-10.399,-10.4798,-10.4903,-10.4903,-10.6009,-10.6302,-10.6376,-10.6376,-10.6376,-10.6376,-10.6376,-10.6376,-10.6376,-10.6376,-10.6376,-10.6376,-10.6376,-10.6376,-10.6376,-10.6376,-10.6376,-10.6376,-10.6302,-10.5605,-10.5091,-10.5091,-10.4398,-10.348,-10.2774,-10.0782,-9.9529,-9.9448,-9.7093,-9.5467,-9.5433,-9.429,-9.3571,-9.3571,-9.3571,-9.3571,-9.3571,-9.3571,-9.3571,-9.3571,-9.3571,-9.3571,-9.3571,-9.3571,-9.3571,-9.3571,-9.3571,-9.3571,-9.5195,-9.6406,-9.7695,-9.761,-9.75,-9.7348,-9.716,-9.7003,-9.6849,-9.6783,-9.6759,-9.6876,-9.7279,-9.8045,-9.8875,-9.9538,-10.0404,-10.1019,-10.1289,-10.1289,-10.1289,-10.1289,-10.1289,-10.1289,-10.1289,-10.1289,-10.1289,-10.1289,-10.1289,-10.1289,-10.1289,-10.1289,-10.1289,-10.1289,-10.1289,-10.1289,-10.1289,-10.2212,-10.302,-10.3905,-10.529,-10.6097,-10.6405,-10.6405,-10.6405,-10.6305,-10.4692,-10.4025,-10.3903,-10.2203,-10.1494,-10.1494,-10.1494,-10.1494,-10.1604,-10.2412,-10.2999,-10.3513,-10.3513,-10.399,-10.4724,-10.4793,-10.5306,-10.5899,-10.6302,-10.6376,-10.6376,-10.6376,-10.6376,-10.6376,-10.6376,-10.6376,-10.6376,-10.6376,-10.6376,-10.6376,-10.6376,-10.6376,-10.6376,-10.6376,-10.6376,-10.6376,-10.6376,-10.6192,-10.6009,-10.6009,-10.4766,-10.3819,-10.3492,-10.2382,-10.131,-10.0383,-9.8997,-9.7435,-9.5682,-9.5136,-9.4484,-9.3664,-9.3571,-9.3571,-9.3571,-9.3571,-9.3571,-9.3571,-9.3571,-9.3571,-9.3571,-9.3571,-9.3571,-9.3571,-9.3571,-9.3571,-9.5586,-9.664,-9.7695,-9.7695,-9.7607,-9.7493,-9.742,-9.7259,-9.7115,-9.703,-9.7012,-9.7198,-9.7894,-9.8685,-9.9429,-10.0098,-10.0787,-10.1289,-10.1289,-10.1289,-10.1289,-10.1289,-10.1289,-10.1289,-10.1289,-10.1289,-10.1289,-10.1289,-10.1289,-10.1289,-10.1289,-10.1289,-10.1289,-10.1289,-10.1289,-10.1289,-10.1289,-10.252,-10.3597,-10.4789,-10.5905,-10.6405,-10.6405,-10.6405,-10.6405,-10.6305,-10.4692,-10.4025,-10.3903,-10.2203,-10.1494,-10.1494,-10.1494,-10.1677,-10.2008,-10.2815,-10.3623,-10.432,-10.432,-10.4908,-10.5495,-10.538,-10.5825,-10.6376,-10.6376,-10.6376,-10.6376,-10.6376,-10.6376,-10.6376,-10.6376,-10.6376,-10.6376,-10.6376,-10.6376,-10.6376,-10.6376,-10.6376,-10.6376,-10.6376,-10.6376,-10.6376,-10.6376,-10.6376,-10.6376,-10.6376,-10.55,-10.4697,-10.4407,-10.3591,-10.2705,-10.1494,-10.0493,-9.91,-9.7128,-9.6072,-9.5132,-9.434,-9.3845,-9.3571,-9.3571,-9.3571,-9.3571,-9.3571,-9.3571,-9.3571,-9.3571,-9.3571,-9.3571,-9.3571,-9.3571,-9.3571,-9.625,-9.7109,-9.7695,-9.7695,-9.7695,-9.7653,-9.744,-9.742,-9.7343,-9.7091,-9.7048,-9.7321,-9.8207,-9.8862,-9.9507,-10.0384,-10.0985,-10.1289,-10.1289,-10.1289,-10.1289,-10.1289,-10.1289,-10.1289,-10.1289,-10.1289,-10.1289,-10.1289,-10.1289,-10.1289,-10.1289,-10.1289,-10.1289,-10.1289,-10.1289,-10.1289,-10.1289,-10.302,-10.4713,-10.6405,-10.6405,-10.6405,-10.6405,-10.6405,-10.6405,-10.6305,-10.4681,-10.4086,-10.3927,-10.2278,-10.1574,-10.1574,-10.1497,-10.2008,-10.2815,-10.3586,-10.4394,-10.5128,-10.5201,-10.5715,-10.6376,-10.6376,-10.6376,-10.6376,-10.6376,-10.6376,-10.6376,-10.6376,-10.6376,-10.6376,-10.6376,-10.6376,-10.6376,-10.6376,-10.6376,-10.6376,-10.6376,-10.6376,-10.6376,-10.6376,-10.6376,-10.6376,-10.6376,-10.6376,-10.6376,-10.6376,-10.6376,-10.6077,-10.5295,-10.4515,-10.3714,-10.2901,-10.1604,-10.0485,-9.9541,-9.713,-9.5561,-9.5417,-9.4272,-9.3571,-9.3571,-9.3571,-9.3571,-9.3571,-9.3571,-9.3571,-9.3571,-9.3571,-9.3571,-9.3571,-9.3571,-9.3571,-9.625,-9.7109,-9.7695,-9.7695,-9.7695,-9.7695,-9.7651,-9.7611,-9.7609,-9.7557,-9.7516,-9.7926,-9.9244,-9.9449,-9.9856,-10.1201,-10.1294,-10.1289,-10.1289,-10.1289,-10.1289,-10.1289,-10.1289,-10.1289,-10.1289,-10.1289,-10.1289,-10.1289,-10.1289,-10.1289,-10.1289,-10.1289,-10.1289,-10.1289,-10.1289,-10.1289,-10.1289,-10.302,-10.4713,-10.6405,-10.6405,-10.6405,-10.6405,-10.6405,-10.6405,-10.6287,-10.5281,-10.492,-10.4812,-10.3088,-10.2425,-10.2315,-10.1702,-10.2008,-10.2815,-10.3586,-10.4394,-10.5201,-10.5789,-10.6192,-10.6376,-10.6376,-10.6376,-10.6376,-10.6376,-10.6376,-10.6376,-10.6376,-10.6376,-10.6376,-10.6376,-10.6376,-10.6376,-10.6376,-10.6376,-10.6376,-10.6376,-10.6376,-10.6376,-10.6376,-10.6376,-10.6376,-10.6376,-10.6376,-10.6376,-10.6376,-10.6376,-10.6302,-10.6077,-10.5295,-10.4667,-10.4494,-10.3595,-10.1894,-9.9146,-9.827,-9.6795,-9.4238,-9.3763,-9.3571,-9.3571,-9.3571,-9.3571,-9.3571,-9.3571,-9.3571,-9.3571,-9.3571,-9.3571,-9.3571,-9.3571,-9.3571,-9.6797,-9.7344,-9.7695,-9.7695,-9.7695,-9.7695,-9.7695,-9.7695,-9.7695,-9.7695,-9.7695,-9.8084,-9.9273,-9.9508,-9.991,-10.1102,-10.1313,-10.1289,-10.1289,-10.1289,-10.1289,-10.1289,-10.1289,-10.1289,-10.1289,-10.1289,-10.1289,-10.1289,-10.1289,-10.1289,-10.1289,-10.1289,-10.1289,-10.1289,-10.1289,-10.1712,-10.2404,-10.3405,-10.4713,-10.6405,-10.6405,-10.6405,-10.6405,-10.6405,-10.6182,-10.5802,-10.5394,-10.4801,-10.4003,-10.3088,-10.2497,-10.2091,-10.1697,-10.2191,-10.3293,-10.3472,-10.4389,-10.5715,-10.6192,-10.6376,-10.6376,-10.6376,-10.6376,-10.6376,-10.6376,-10.6376,-10.6376,-10.6376,-10.6376,-10.6376,-10.6376,-10.6376,-10.6376,-10.6376,-10.6376,-10.6376,-10.6376,-10.6376,-10.6376,-10.6376,-10.6376,-10.6376,-10.6376,-10.6376,-10.6376,-10.6376,-10.6376,-10.6376,-10.6376,-10.6003,-10.5521,-10.5112,-10.4687,-10.3504,-10.1193,-10.038,-9.9026,-9.6525,-9.5525,-9.4737,-9.4138,-9.3774,-9.3571,-9.3571,-9.3571,-9.3571,-9.3571,-9.3571,-9.3571,-9.3571,-9.3571,-9.3571,-9.7461,-9.7695,-9.7695,-9.7695,-9.7695,-9.7695,-9.7695,-9.7695,-9.7695,-9.7695,-9.7695,-9.7969,-9.8828,-9.931,-9.9842,-10.0709,-10.1114,-10.1289,-10.1289,-10.1289,-10.1289,-10.1289,-10.1289,-10.1289,-10.1289,-10.1289,-10.1289,-10.1289,-10.1289,-10.1289,-10.1289,-10.1289,-10.1289,-10.1289,-10.1289,-10.2097,-10.3905,-10.3905,-10.4713,-10.6405,-10.6405,-10.6405,-10.6405,-10.6405,-10.6013,-10.5407,-10.5407,-10.4487,-10.2983,-10.2918,-10.2425,-10.1584,-10.1501,-10.2412,-10.3733,-10.3398,-10.4609,-10.6376,-10.6376,-10.6376,-10.6376,-10.6376,-10.6376,-10.6376,-10.6376,-10.6376,-10.6376,-10.6376,-10.6376,-10.6376,-10.6376,-10.6376,-10.6376,-10.6376,-10.6376,-10.6376,-10.6376,-10.6376,-10.6376,-10.6376,-10.6376,-10.6376,-10.6376,-10.6376,-10.6376,-10.6376,-10.6376,-10.6376,-10.6376,-10.6376,-10.6077,-10.5369,-10.5295,-10.4887,-10.3881,-10.2686,-10.1386,-9.9737,-9.7951,-9.63,-9.4882,-9.4214,-9.3876,-9.3876,-9.3876,-9.3876,-9.3876,-9.3876,-9.3876,-9.3876,-9.3876,-9.3876,-9.7461,-9.7695,-9.7695,-9.7695,-9.7695,-9.7695,-9.7695,-9.7695,-9.7695,-9.7695,-9.7695,-9.7969,-9.8828,-9.9449,-10.0015,-10.0698,-10.1298,-10.1584,-10.1308,-10.1289,-10.1289,-10.1289,-10.1289,-10.1289,-10.1289,-10.1289,-10.1289,-10.1289,-10.1289,-10.1289,-10.1289,-10.1289,-10.1289,-10.1289,-10.1289,-10.2097,-10.3905,-10.3905,-10.4713,-10.6405,-10.6405,-10.6405,-10.6405,-10.6405,-10.6305,-10.622,-10.622,-10.5586,-10.4681,-10.401,-10.3293,-10.2425,-10.1815,-10.2187,-10.3284,-10.3582,-10.4908,-10.6376,-10.6376,-10.6376,-10.6376,-10.6376,-10.6376,-10.6376,-10.6376,-10.6376,-10.6376,-10.6376,-10.6376,-10.6376,-10.6376,-10.6376,-10.6376,-10.6376,-10.6376,-10.6376,-10.6376,-10.6376,-10.6376,-10.6376,-10.6376,-10.6376,-10.6376,-10.6376,-10.6376,-10.6376,-10.6376,-10.6376,-10.6376,-10.6376,-10.6302,-10.6229,-10.6229,-10.5369,-10.3509,-10.3103,-10.159,-9.8487,-9.7931,-9.7092,-9.5661,-9.5499,-9.5398,-9.5398,-9.5398,-9.5398,-9.5398,-9.5398,-9.5398,-9.5398,-9.5398,-9.5398,-9.7617,-9.7695,-9.7695,-9.7695,-9.7695,-9.7695,-9.7695,-9.7695,-9.7695,-9.7695,-9.7695,-9.7812,-9.8242,-9.9187,-9.9996,-10.0306,-10.1107,-10.1703,-10.1495,-10.1421,-10.1289,-10.1289,-10.1289,-10.1289,-10.1289,-10.1289,-10.1289,-10.1289,-10.1289,-10.1289,-10.1289,-10.1289,-10.1289,-10.1289,-10.1289,-10.2097,-10.3905,-10.3905,-10.4713,-10.6405,-10.6405,-10.6405,-10.6405,-10.6405,-10.6199,-10.5817,-10.6203,-10.5404,-10.3889,-10.3995,-10.3223,-10.2015,-10.1694,-10.2301,-10.3508,-10.3806,-10.4981,-10.6376,-10.6376,-10.6376,-10.6376,-10.6376,-10.6376,-10.6376,-10.6376,-10.6376,-10.6376,-10.6376,-10.6376,-10.6376,-10.6376,-10.6376,-10.6376,-10.6376,-10.6376,-10.6376,-10.6376,-10.6376,-10.6376,-10.6376,-10.6376,-10.6376,-10.6376,-10.6376,-10.6376,-10.6376,-10.6376,-10.6376,-10.6376,-10.6376,-10.6376,-10.6376,-10.6376,-10.6003,-10.4997,-10.4926,-10.3495,-10.029,-9.9779,-9.857,-9.6466,-9.6007,-9.5804,-9.5804,-9.5804,-9.5804,-9.5804,-9.5804,-9.5804,-9.5804,-9.5804,-9.5804,-9.7695,-9.7695,-9.7695,-9.7695,-9.7695,-9.7695,-9.7695,-9.7695,-9.7695,-9.7695,-9.7695,-9.7695,-9.7695,-9.8965,-9.997,-9.9905,-10.101,-10.18,-10.1715,-10.1487,-10.1289,-10.1289,-10.1289,-10.1289,-10.1289,-10.1289,-10.1289,-10.1289,-10.1289,-10.1289,-10.1289,-10.1289,-10.1289,-10.1289,-10.1289,-10.2097,-10.3905,-10.3905,-10.4713,-10.6405,-10.6405,-10.6405,-10.6405,-10.6405,-10.6074,-10.5505,-10.6101,-10.5104,-10.2983,-10.3709,-10.2989,-10.1494,-10.1494,-10.2485,-10.388,-10.388,-10.4981,-10.6376,-10.6376,-10.6376,-10.6376,-10.6376,-10.6376,-10.6376,-10.6376,-10.6376,-10.6376,-10.6376,-10.6376,-10.6376,-10.6376,-10.6376,-10.6376,-10.6376,-10.6376,-10.6376,-10.6376,-10.6376,-10.6376,-10.6376,-10.6376,-10.6376,-10.6376,-10.6376,-10.6376,-10.6376,-10.6376,-10.6376,-10.6376,-10.6376,-10.6376,-10.6376,-10.6376,-10.6376,-10.6376,-10.6376,-10.5324,-10.2787,-10.2101,-10.05,-9.7687,-9.7023,-9.6571,-9.6277,-9.6277,-9.6277,-9.6277,-9.6277,-9.6277,-9.6277,-9.6277,-9.6277,-9.7695,-9.7695,-9.7695,-9.7695,-9.7695,-9.7695,-9.7695,-9.7695,-9.7695,-9.7695,-9.7695,-9.7695,-9.7695,-9.9101,-10.0186,-9.9957,-10.1112,-10.1984,-10.1705,-10.1487,-10.1289,-10.1289,-10.1289,-10.1289,-10.1289,-10.1289,-10.1289,-10.1289,-10.1289,-10.1289,-10.1289,-10.1289,-10.1289,-10.1289,-10.1289,-10.2097,-10.3905,-10.3905,-10.4713,-10.6405,-10.6405,-10.6405,-10.6405,-10.6405,-10.6402,-10.6284,-10.6423,-10.5418,-10.3903,-10.3995,-10.2989,-10.1494,-10.1494,-10.2485,-10.388,-10.388,-10.4981,-10.6376,-10.6376,-10.6376,-10.6376,-10.6376,-10.6376,-10.6376,-10.6376,-10.6376,-10.6376,-10.6376,-10.6376,-10.6376,-10.6376,-10.6376,-10.6376,-10.6376,-10.6376,-10.6376,-10.6376,-10.6376,-10.6376,-10.6376,-10.6376,-10.6376,-10.6376,-10.6376,-10.6376,-10.6376,-10.6376,-10.6376,-10.6376,-10.6376,-10.6376,-10.6376,-10.6376,-10.6376,-10.6376,-10.6376,-10.5714,-10.4203,-10.4,-10.268,-9.994,-9.9699,-9.9097,-9.78,-9.78,-9.78,-9.78,-9.78,-9.78,-9.78,-9.78,-9.78,-9.7695,-9.7695,-9.7695,-9.7695,-9.7695,-9.7695,-9.7695,-9.7695,-9.7695,-9.7695,-9.7695,-9.7695,-9.7695,-9.9101,-10.0311,-10.0182,-10.1204,-10.2119,-10.2,-10.1616,-10.1289,-10.1289,-10.1289,-10.1289,-10.1289,-10.1289,-10.1289,-10.1289,-10.1289,-10.1289,-10.1289,-10.1289,-10.1289,-10.1289,-10.1289,-10.2097,-10.3905,-10.3905,-10.4713,-10.6405,-10.6405,-10.6405,-10.6405,-10.6405,-10.6405,-10.6405,-10.6405,-10.5481,-10.4025,-10.429,-10.3285,-10.1494,-10.1494,-10.2485,-10.388,-10.4288,-10.5206,-10.6376,-10.6376,-10.6376,-10.6376,-10.6376,-10.6376,-10.6376,-10.6376,-10.6376,-10.6376,-10.6376,-10.6376,-10.6376,-10.6376,-10.6376,-10.6376,-10.6376,-10.6376,-10.6376,-10.6376,-10.6376,-10.6376,-10.6376,-10.6376,-10.6376,-10.6376,-10.6376,-10.6376,-10.6376,-10.6376,-10.6376,-10.6376,-10.6376,-10.6376,-10.6376,-10.6376,-10.6376,-10.6376,-10.6376,-10.5794,-10.4427,-10.3505,-10.2191,-10.0214,-9.9244,-9.8572,-9.8003,-9.8003,-9.8003,-9.8003,-9.8003,-9.8003,-9.8003,-9.8003,-9.8003,-9.7695,-9.7695,-9.7695,-9.7695,-9.7695,-9.7695,-9.7695,-9.7695,-9.7695,-9.7695,-9.7695,-9.7695,-9.7695,-9.9101,-10.0312,-10.0312,-10.1392,-10.2193,-10.208,-10.1715,-10.1421,-10.1308,-10.1289,-10.1289,-10.1289,-10.1289,-10.1289,-10.1289,-10.1289,-10.1289,-10.1289,-10.1289,-10.1289,-10.1289,-10.1289,-10.2097,-10.3905,-10.3905,-10.4713,-10.6405,-10.6405,-10.6405,-10.6405,-10.6405,-10.6405,-10.6405,-10.6405,-10.562,-10.429,-10.4509,-10.3397,-10.1494,-10.1494,-10.2599,-10.4215,-10.4403,-10.528,-10.6376,-10.6376,-10.6376,-10.6376,-10.6376,-10.6376,-10.6376,-10.6376,-10.6376,-10.6376,-10.6376,-10.6376,-10.6376,-10.6376,-10.6376,-10.6376,-10.6376,-10.6376,-10.6376,-10.6376,-10.6376,-10.6376,-10.6376,-10.6376,-10.6376,-10.6376,-10.6376,-10.6376,-10.6376,-10.6376,-10.6376,-10.6376,-10.6376,-10.6376,-10.6376,-10.6376,-10.6376,-10.6376,-10.6376,-10.5997,-10.5008,-10.3602,-10.2207,-10.0794,-9.9362,-9.8425,-9.8003,-9.8003,-9.8003,-9.8003,-9.8003,-9.8003,-9.8003,-9.8003,-9.8003,-9.7695,-9.7695,-9.7695,-9.7695,-9.7695,-9.7695,-9.7695,-9.7695,-9.7695,-9.7695,-9.7695,-9.7695,-9.7695,-9.9101,-10.0312,-10.0312,-10.1491,-10.2386,-10.2109,-10.1892,-10.1587,-10.1308,-10.1289,-10.1289,-10.1289,-10.1289,-10.1289,-10.1289,-10.1289,-10.1289,-10.1289,-10.1289,-10.1289,-10.1289,-10.1289,-10.2097,-10.3905,-10.3905,-10.4713,-10.6405,-10.6405,-10.6405,-10.6405,-10.6405,-10.6405,-10.6405,-10.6405,-10.5811,-10.4773,-10.4176,-10.2989,-10.1494,-10.1494,-10.2783,-10.4587,-10.4105,-10.4981,-10.6376,-10.6376,-10.6376,-10.6376,-10.6376,-10.6376,-10.6376,-10.6376,-10.6376,-10.6376,-10.6376,-10.6376,-10.6376,-10.6376,-10.6376,-10.6376,-10.6376,-10.6376,-10.6376,-10.6376,-10.6376,-10.6376,-10.6376,-10.6376,-10.6376,-10.6376,-10.6376,-10.6376,-10.6376,-10.6376,-10.6376,-10.6376,-10.6376,-10.6376,-10.6376,-10.6376,-10.6376,-10.6376,-10.6376,-10.6413,-10.6413,-10.5099,-10.3615,-10.2188,-10.0815,-9.942,-9.8003,-9.8003,-9.8003,-9.8003,-9.8003,-9.8003,-9.8003,-9.8003,-9.8003,-9.7695,-9.7695,-9.7695,-9.7695,-9.7695,-9.7695,-9.7695,-9.7695,-9.7695,-9.7695,-9.7695,-9.7695,-9.7695,-9.9101,-10.0312,-10.0312,-10.1491,-10.2392,-10.2109,-10.1892,-10.1587,-10.1308,-10.1289,-10.1289,-10.1289,-10.1289,-10.1289,-10.1289,-10.1289,-10.1289,-10.1289,-10.1289,-10.1289,-10.1289,-10.1289,-10.2097,-10.3905,-10.3905,-10.4713,-10.6405,-10.6405,-10.6405,-10.6405,-10.6405,-10.6405,-10.6405,-10.6405,-10.5894,-10.5002,-10.4303,-10.3285,-10.2315,-10.1699,-10.2599,-10.4105,-10.399,-10.4981,-10.6376,-10.6376,-10.6376,-10.6376,-10.6376,-10.6376,-10.6376,-10.6376,-10.6376,-10.6376,-10.6376,-10.6376,-10.6376,-10.6376,-10.6376,-10.6376,-10.6376,-10.6376,-10.6376,-10.6376,-10.6376,-10.6376,-10.6376,-10.6376,-10.6376,-10.6376,-10.6376,-10.6376,-10.6376,-10.6376,-10.6376,-10.6376,-10.6376,-10.6376,-10.6376,-10.6376,-10.6376,-10.6376,-10.6376,-10.6376,-10.6376,-10.4203,-10.3073,-10.3602,-10.0404,-9.8898,-9.942,-9.8485,-9.8003,-9.8003,-9.8003,-9.8003,-9.8003,-9.8003,-9.8003,-9.7695,-9.7695,-9.7695,-9.7695,-9.7695,-9.7695,-9.7695,-9.7695,-9.7695,-9.7695,-9.7695,-9.7812,-9.8125,-9.9336,-10.039,-10.0703,-10.1785,-10.249,-10.2196,-10.2,-10.1676,-10.1289,-10.1289,-10.1289,-10.1289,-10.1289,-10.1289,-10.1289,-10.1289,-10.1289,-10.1289,-10.1289,-10.1289,-10.1289,-10.1289,-10.2097,-10.3905,-10.3905,-10.4713,-10.6405,-10.6405,-10.6405,-10.6405,-10.6405,-10.6405,-10.6405,-10.6405,-10.5794,0.0,-10.4197,-10.3289,-10.2204,-10.1699,-10.2485,-10.388,-10.388,-10.4981,-10.6376,-10.6376,-10.6376,-10.6376,-10.6376,-10.6376,-10.6376,-10.6376,-10.6376,-10.6376,-10.6376,-10.6376,-10.6376,-10.6376,-10.6376,-10.6376,-10.6376,-10.6376,-10.6376,-10.6376,-10.6376,-10.6376,-10.6376,-10.6376,-10.6376,-10.6376,-10.6376,-10.6376,-10.6376,-10.6376,-10.6376,-10.6376,-10.6376,-10.6376,-10.6376,-10.6376,-10.6376,-10.6376,-10.6376,-10.6376,-10.6376,-10.4308,-10.3389,-10.4324,-10.1303,-9.9734,-10.01,-9.9279,-9.8512,-9.8003,-9.8003,-9.8003,-9.8003,-9.8003,-9.8003,0.0,-9.7695,-9.7695,-9.7695,-9.7695,-9.7695,-9.7695,-9.7695,0.0,-9.7695,-9.7695,-9.7969,-9.8828,-9.9726,-10.0586,-10.1484,-10.2304,-10.2712,-10.2184,-10.2119,-10.1919,-10.1404,-10.1289,-10.1289,-10.1289,-10.1289,-10.1289,-10.1289,-10.1289,-10.1289,-10.1289,-10.1289,-10.1289,-10.1289,-10.1289,-10.2097,-10.3905,-10.3905,-10.4713,-10.6405,-10.6405,-10.6405,-10.6405,-10.6405,-10.6405,-10.6405,-10.6405,-10.563,-10.4176,-10.398,-10.2983,-10.1697,-10.1501,-10.2485,-10.388,-10.388,-10.4981,-10.6376,-10.6376,-10.6376,-10.6376,-10.6376,-10.6376,-10.6376,-10.6376,-10.6376,-10.6376,-10.6376,-10.6376,-10.6376,-10.6376,-10.6376,-10.6376,-10.6376,-10.6376,-10.6376,-10.6376,-10.6376,-10.6376,-10.6376,-10.6376,-10.6376,-10.6376,-10.6376,-10.6376,-10.6376,-10.6376,-10.6376,-10.6376,-10.6376,-10.6376,-10.6376,-10.6376,-10.6376,-10.6376,-10.6376,-10.6376,-10.6376,-10.5112,-10.4276,-10.4396,-10.2929,-10.1522,-10.0314,-10.01,-9.9303,-9.8003,-9.8003,-9.8003,-9.8003,-9.8003,-9.8003,-9.7695,0.0,-9.7695,-9.7695,-9.7695,-9.7695,0.0,-9.7695,-9.7695,-9.7695,-9.7695,-9.7969,-9.8828,-9.9726,-10.0586,-10.1484,-10.2304,-10.2712,-10.2184,-10.1694,-10.1395,-10.1308,-10.1289,-10.1289,-10.1289,-10.1289,-10.1289,-10.1289,-10.1289,-10.1289,-10.1289,-10.1289,-10.1289,-10.1289,-10.1289,-10.2097,-10.3905,-10.3905,-10.4713,-10.6405,-10.6405,-10.6405,-10.6405,-10.6405,-10.6405,-10.6405,-10.6405,-10.622,-10.5695,-10.4003,-10.337,-10.3293,-10.1975,-10.2485,-10.388,-10.388,-10.4981,-10.6376,-10.6376,-10.6376,-10.6376,-10.6376,-10.6376,-10.6376,-10.6376,-10.6376,-10.6376,-10.6376,-10.6376,-10.6376,-10.6376,-10.6376,-10.6376,-10.6376,-10.6376,-10.6376,-10.6376,-10.6376,-10.6376,-10.6376,-10.6376,-10.6376,-10.6376,-10.6376,-10.6376,-10.6376,-10.6376,-10.6376,-10.6376,-10.6376,-10.6376,-10.6376,-10.6376,-10.6376,-10.6376,-10.6376,-10.6376,-10.6376,-10.5112,-10.479,-10.5897,-10.2485,-10.0917,-10.168,-9.9595,-9.8303,-9.8003,-9.8003,-9.8003,-9.8003,-9.8003,-9.8003,-9.7695,-9.7695,-9.7695,-9.7695,-9.7695,-9.7695,-9.7695,-9.7695,-9.7695,-9.7695,-9.8008,-9.8554,-9.9453,-10.0189,-10.1002,-10.1992,-10.2395,-10.238,-10.2023,-10.16,-10.1289,-10.1289,-10.1289,-10.1289,-10.1289,-10.1289,-10.1289,-10.1289,-10.1289,-10.1289,-10.1289,-10.1289,-10.1289,-10.1289,-10.1289,-10.2097,-10.3905,-10.3905,-10.4713,-10.6405,-10.6405,-10.6405,-10.6405,-10.6405,-10.6405,-10.6405,-10.6405,-10.5777,-10.4786,-10.4302,-10.3601,-10.2818,-10.2315,-10.2815,-10.388,-10.388,-10.4981,-10.6376,-10.6376,-10.6376,-10.6376,-10.6376,-10.6376,-10.6376,-10.6376,-10.6376,-10.6376,-10.6376,-10.6376,-10.6376,-10.6376,-10.6376,-10.6376,-10.6376,-10.6376,-10.6376,-10.6376,-10.6376,-10.6376,-10.6376,-10.6376,-10.6376,-10.6376,-10.6376,-10.6376,-10.6376,-10.6376,-10.6376,-10.6376,-10.6376,-10.6376,-10.6376,-10.6376,-10.6376,-10.6376,-10.6376,-10.6376,-10.6376,-10.5704,-10.5594,-10.6376,-10.3584,-10.1808,-10.1212,-9.9113,-9.8003,-9.8003,-9.8003,-9.8003,-9.8003,-9.8003,-9.8003,-9.7695,-9.7695,-9.7695,-9.7695,-9.7695,-9.7695,-9.7695,-9.7695,-9.7695,-9.7695,-9.8398,-9.9258,-10.0115,-10.0791,-10.1593,-10.269,-10.2404,-10.2017,-10.1719,-10.1487,-10.1289,-10.1289,-10.1289,-10.1289,-10.1289,-10.1289,-10.1289,-10.1289,-10.1289,-10.1289,-10.1289,-10.1289,-10.1289,-10.1289,-10.1289,-10.2097,-10.3905,-10.3905,-10.4713,-10.6405,-10.6405,-10.6405,-10.6405,-10.6405,-10.6405,-10.6405,-10.6405,-10.5271,-10.37,-10.4783,-10.3927,-10.1899,-10.2497,-10.3203,-10.388,-10.388,-10.4981,-10.6376,-10.6376,-10.6376,-10.6376,-10.6376,-10.6376,-10.6376,-10.6376,-10.6376,-10.6376,-10.6376,-10.6376,-10.6376,-10.6376,-10.6376,-10.6376,-10.6376,-10.6376,-10.6376,-10.6376,-10.6376,-10.6376,-10.6376,-10.6376,-10.6376,-10.6376,-10.6376,-10.6376,-10.6376,-10.6376,-10.6376,-10.6376,-10.6376,-10.6376,-10.6376,-10.6376,-10.6376,-10.6376,-10.6376,-10.6376,-10.6376,-10.6376,-10.6302,-10.6077,-10.4911,-10.2969,-10.0201,-9.8921,-9.8234,-9.8003,-9.8003,-9.8003,-9.8003,-9.8003,-9.8003,-9.7695,-9.7695,-9.7695,-9.7695,-9.7695,-9.7695,-9.7695,-9.7695,-9.7695,-9.7695,-9.8398,-9.9216,-9.9825,-10.0798,-10.1788,-10.2402,-10.228,-10.2017,-10.1719,-10.1487,-10.1289,-10.1289,-10.1289,-10.1289,-10.1289,-10.1289,-10.1289,-10.1289,-10.1289,-10.1289,-10.1289,-10.1289,-10.1289,-10.1289,-10.1289,-10.2097,-10.3905,-10.3905,-10.4713,-10.6405,-10.6405,-10.6405,-10.6405,-10.6405,-10.6405,-10.6405,-10.6405,-10.6186,-10.5914,-10.5418,-10.4581,-10.3625,-10.2918,-10.3203,-10.388,-10.388,-10.4981,-10.6376,-10.6376,-10.6376,-10.6376,-10.6376,-10.6376,-10.6376,-10.6376,-10.6376,-10.6376,-10.6376,-10.6376,-10.6376,-10.6376,-10.6376,-10.6376,-10.6376,-10.6376,-10.6376,-10.6376,-10.6376,-10.6376,-10.6376,-10.6376,-10.6376,-10.6376,-10.6376,-10.6376,-10.6376,-10.6376,-10.6376,-10.6376,-10.6376,-10.6376,-10.6376,-10.6376,-10.6376,-10.6376,-10.6376,-10.6376,-10.6376,-10.6376,-10.5893,-10.4698,-10.4437,-10.2993,-10.0189,-9.9901,-9.9226,-9.8003,-9.8003,-9.8003,-9.8003,-9.8003,-9.8003,-9.7695,-9.7695,-9.7695,-9.7695,-9.7695,-9.7695,-9.7695,-9.7695,-9.7812,-9.832,-9.9101,-9.9879,-10.0508,-10.13,-10.1912,-10.1915,-10.1892,-10.1788,-10.1495,-10.1384,-10.1289,-10.1289,-10.1289,-10.1289,-10.1289,-10.1289,-10.1289,-10.1289,-10.1289,-10.1289,-10.1289,-10.1289,-10.1289,-10.1289,-10.1289,-10.2097,-10.3905,-10.3905,-10.4713,-10.6405,-10.6405,-10.6405,-10.6405,-10.6405,-10.6405,-10.6405,-10.6405,-10.6199,-10.5794,-10.5802,-10.4817,-10.3289,-10.3425,-10.3312,-10.3403,-10.421,-10.5311,-10.6376,-10.6376,-10.6376,-10.6376,-10.6376,-10.6376,-10.6376,-10.6376,-10.6376,-10.6376,-10.6376,-10.6376,-10.6376,-10.6376,-10.6376,-10.6376,-10.6376,-10.6376,-10.6376,-10.6376,-10.6376,-10.6376,-10.6376,-10.6376,-10.6376,-10.6376,-10.6376,-10.6376,-10.6376,-10.6376,-10.6376,-10.6376,-10.6376,-10.6376,-10.6376,-10.6376,-10.6376,-10.6376,-10.6376,-10.6376,-10.6376,-10.6376,-10.582,-10.4405,-10.43,-10.331,-10.1283,-10.0493,-9.9791,-9.9097,-9.8335,-9.8003,-9.8003,-9.8003,-9.8003,-9.7695,-9.7695,-9.7695,-9.7695,-9.7695,-9.7695,-9.7695,-9.7851,-9.8203,-9.8867,-9.9844,-10.0699,-10.1094,-10.172,-10.2012,-10.1584,-10.1587,-10.1587,-10.1308,-10.1289,-10.1289,-10.1289,-10.1289,-10.1289,-10.1289,-10.1289,-10.1289,-10.1289,-10.1289,-10.1289,-10.1289,-10.1289,-10.1289,-10.1289,-10.1289,-10.2097,-10.3905,-10.3789,-10.4597,-10.6405,-10.6405,-10.6405,-10.6405,-10.6405,-10.6405,-10.6405,-10.6405,-10.6112,-10.5491,-10.6101,-10.5078,-10.3092,-10.3703,-10.3627,-10.3182,-10.4614,-10.5715,-10.6376,-10.6376,-10.6376,-10.6376,-10.6376,-10.6376,-10.6376,-10.6376,-10.6376,-10.6376,-10.6376,-10.6376,-10.6376,-10.6376,-10.6376,-10.6376,-10.6376,-10.6376,-10.6376,-10.6376,-10.6376,-10.6376,-10.6376,-10.6376,-10.6376,-10.6376,-10.6376,-10.6376,-10.6376,-10.6376,-10.6376,-10.6376,-10.6376,-10.6376,-10.6376,-10.6376,-10.6376,-10.6376,-10.6376,-10.6376,-10.6376,-10.6376,-10.5893,-10.4813,-10.4813,-10.4106,-10.273,-10.1292,-10.0386,-10.0091,-9.8696,-9.8104,-9.8279,-9.8279,-9.8341,-9.7695,-9.7695,-9.7695,-9.7695,-9.7695,-9.7695,-9.7695,-9.832,-9.8906,-9.8984,-10.0312,-10.1402,-10.1211,-10.172,-10.21,-10.1982,-10.1789,-10.1587,-10.1308,-10.1289,-10.1289,-10.1289,-10.1289,-10.1289,-10.1289,-10.1289,-10.1289,-10.1289,-10.1289,-10.1289,-10.1289,-10.1289,-10.1289,-10.1289,-10.1289,-10.2097,-10.3905,-10.3308,-10.4192,-10.6405,-10.6405,-10.6405,-10.6405,-10.6405,-10.6405,-10.6405,-10.6405,-10.6423,-10.6305,-10.6385,-10.5394,-10.3896,-10.3995,-10.3926,-10.388,-10.4798,-10.5715,-10.6376,-10.6376,-10.6376,-10.6376,-10.6376,-10.6376,-10.6376,-10.6376,-10.6376,-10.6376,-10.6376,-10.6376,-10.6376,-10.6376,-10.6376,-10.6376,-10.6376,-10.6376,-10.6376,-10.6376,-10.6376,-10.6376,-10.6376,-10.6376,-10.6376,-10.6376,-10.6376,-10.6376,-10.6376,-10.6376,-10.6376,-10.6376,-10.6376,-10.6376,-10.6376,-10.6376,-10.6376,-10.6376,-10.6376,-10.6376,-10.6376,-10.6376,-10.6376,-10.6302,-10.6229,-10.5594,-10.4216,-10.282,-10.1422,-10.0091,-9.8696,-9.8318,-9.9037,-9.9037,-9.939,-9.7695,-9.7695,-9.7695,-9.7695,-9.8125,-9.8359,-9.7812,-9.8359,-9.914,-9.9687,-10.0781,-10.1715,-10.1996,-10.1914,-10.1906,-10.1906,-10.158,-10.138,-10.1308,-10.1289,-10.1289,-10.1289,-10.1289,-10.1289,-10.1289,-10.1289,-10.1289,-10.1289,-10.1289,-10.1289,-10.1289,-10.1289,-10.1289,-10.1289,-10.1289,-10.202,-10.3308,-10.3115,-10.4115,-10.6405,-10.6405,-10.6405,-10.6405,-10.6405,-10.6405,-10.6405,-10.6405,-10.6405,-10.6405,-10.6405,-10.5495,-10.3903,-10.2891,-10.3013,-10.3917,-10.421,-10.5201,-10.6376,-10.6376,-10.6376,-10.6376,-10.6376,-10.6376,-10.6376,-10.6376,-10.6376,-10.6376,-10.6376,-10.6376,-10.6376,-10.6376,-10.6376,-10.6376,-10.6376,-10.6376,-10.6376,-10.6376,-10.6376,-10.6376,-10.6376,-10.6376,-10.6376,-10.6376,-10.6376,-10.6376,-10.6376,-10.6376,-10.6376,-10.6376,-10.6376,-10.6376,-10.6376,-10.6376,-10.6376,-10.6376,-10.689,-10.7073,-10.7073,-10.667,-10.6376,-10.6376,-10.6376,-10.6407,-10.6389,-10.41,-10.2861,-10.2785,-10.0487,-9.9496,-9.9771,-9.9753,-9.9922,-9.7695,-9.7695,-9.7695,-9.7695,-9.8359,-9.8828,-9.8242,-9.8984,-10.0,-10.0586,-10.1406,-10.2107,-10.2582,-10.2193,-10.1802,-10.1802,-10.1512,-10.1289,-10.1289,-10.1289,-10.1289,-10.1289,-10.1289,-10.1289,-10.1289,-10.1289,-10.1289,-10.1289,-10.1289,-10.1289,-10.1289,-10.1289,-10.1289,-10.1289,-10.1289,-10.1808,-10.3,-10.3385,-10.452,-10.6405,-10.6405,-10.6405,-10.6405,-10.6405,-10.6405,-10.6405,-10.6405,-10.6405,-10.6405,-10.6405,-10.5495,-10.3803,-10.2202,-10.2485,-10.388,-10.388,-10.4981,-10.6376,-10.6376,-10.6376,-10.6376,-10.6376,-10.6376,-10.6376,-10.6376,-10.6376,-10.6376,-10.6376,-10.6376,-10.6376,-10.6376,-10.6376,-10.6376,-10.6376,-10.6376,-10.6376,-10.6376,-10.6376,-10.6376,-10.6376,-10.6376,-10.6376,-10.6376,-10.6376,-10.6376,-10.6376,-10.6376,-10.6376,-10.6376,-10.6596,-10.689,-10.711,-10.7183,-10.7183,-10.7183,-10.7697,-10.7991,-10.7991,-10.7477,-10.7183,-10.7183,-10.7183,-10.7398,-10.8015,-10.5103,-10.3938,-10.4504,-10.1632,-10.0337,-10.0608,-10.0623,-10.0731,-9.7695,-9.7695,-9.7695,-9.7695,-9.8359,-9.9023,-9.9023,-10.039,-10.1601,-10.1601,-10.2304,-10.289,-10.289,-10.2499,-10.211,-10.211,-10.1587,-10.1289,-10.1289,-10.1289,-10.1289,-10.1289,-10.1289,-10.1289,-10.1289,-10.1289,-10.1289,-10.1289,-10.1289,-10.1289,-10.1289,-10.1289,-10.1289,-10.1289,-10.1289,-10.1808,-10.3,-10.4097,-10.531,-10.6405,-10.6405,-10.6405,-10.6405,-10.6405,-10.6405,-10.6405,-10.6405,-10.6405,-10.6405,-10.6385,-10.5418,-10.3803,-10.2202,-10.2485,-10.388,-10.388,-10.4981,-10.6376,-10.6376,-10.6376,-10.6376,-10.6376,-10.6376,-10.6376,-10.6376,-10.6376,-10.6376,-10.6376,-10.6376,-10.6376,-10.6376,-10.6376,-10.6376,-10.6376,-10.6376,-10.6376,-10.6376,-10.6376,-10.6376,-10.6376,-10.6376,-10.6376,-10.6376,-10.6376,-10.6376,-10.6376,-10.6376,-10.6376,-10.6413,-10.7073,-10.7881,-10.8688,-10.8799,-10.8799,-10.8799,-10.8799,-10.8799,-10.8799,-10.8799,-10.8799,-10.8799,-10.8799,-10.8799,-10.8799,-10.597,-10.4508,-10.4508,-10.163,-10.0608,-10.1386,-10.1386,-10.1792,-9.7695,-9.7695,-9.7695,-9.7695,-9.8828,-9.9922,-9.9922,-10.0781,-10.1797,-10.2383,-10.2695,-10.289,-10.289,-10.2499,-10.211,-10.211,-10.1587,-10.1289,-10.1289,-10.1289,-10.1289,-10.1289,-10.1289,-10.1289,-10.1289,-10.1289,-10.1289,-10.1289,-10.1289,-10.1289,-10.1289,-10.1289,-10.1289,-10.1289,-10.1308,-10.1808,-10.3,-10.3808,-10.4885,-10.6405,-10.6405,-10.6405,-10.6405,-10.6405,-10.6405,-10.6405,-10.6405,-10.6405,-10.6305,-10.5193,-10.4401,-10.3803,-10.2202,-10.2485,-10.388,-10.388,-10.4981,-10.6376,-10.6376,-10.6376,-10.6376,-10.6376,-10.6376,-10.6376,-10.6376,-10.6376,-10.6376,-10.6376,-10.6376,-10.6376,-10.6376,-10.6376,-10.6376,-10.6376,-10.6376,-10.6376,-10.6376,-10.6376,-10.6376,-10.6376,-10.6376,-10.6376,-10.6376,-10.6376,-10.6376,-10.6376,-10.689,-10.7404,-10.7991,-10.8285,-10.8505,-10.8799,-10.8799,-10.8799,-10.8799,-10.9312,-10.9606,-10.9606,-11.0193,-11.001,-10.8799,-10.8799,-10.8587,-10.8119,-10.6215,-10.4992,-10.4611,-10.2727,-10.1927,-10.2198,-10.2198,-10.2299,-9.7695,-9.7695,-9.7773,-9.8125,-9.9258,-10.0508,-10.1211,-10.1719,-10.2304,-10.2812,-10.289,-10.289,-10.289,-10.2499,-10.211,-10.211,-10.1587,-10.1289,-10.1289,-10.1289,-10.1289,-10.1289,-10.1289,-10.1289,-10.1289,-10.1289,-10.1289,-10.1289,-10.1289,-10.1289,-10.1289,-10.1289,-10.1289,-10.1289,-10.1308,-10.198,-10.3308,-10.3885,-10.5,-10.6405,-10.6405,-10.6405,-10.6405,-10.6405,-10.6405,-10.6405,-10.6405,-10.6405,-10.6322,-10.4702,-10.4025,-10.3803,-10.2202,-10.2485,-10.388,-10.388,-10.4981,-10.6376,-10.6376,-10.6376,-10.6376,-10.6376,-10.6376,-10.6376,-10.6376,-10.6376,-10.6376,-10.6376,-10.6376,-10.6376,-10.6376,-10.6376,-10.6376,-10.6376,-10.6376,-10.6376,-10.6376,-10.6376,-10.6376,-10.6376,-10.6376,-10.6376,-10.6376,-10.667,-10.689,-10.689,-10.7587,-10.8395,-10.9202,-10.9276,-10.9386,-10.9716,-10.979,-10.979,-10.979,-11.0193,-11.0487,-11.0487,-11.0891,-11.0817,-10.979,-10.979,-10.9285,-10.8316,-10.6792,-10.558,-10.4639,-10.3194,-10.2502,-10.2502,-10.2502,-10.2502,-9.7695,-9.7695,-9.789,-9.8789,-9.9726,-10.0898,-10.25,-10.289,-10.289,-10.289,-10.289,-10.289,-10.289,-10.2509,-10.2099,-10.2119,-10.1695,-10.1289,-10.1289,-10.1289,-10.1289,-10.1289,-10.1289,-10.1289,-10.1289,-10.1289,-10.1289,-10.1289,-10.1289,-10.1289,-10.1289,-10.1289,-10.1289,-10.1289,-10.15,-10.2308,-10.3982,-10.4597,-10.5405,-10.6405,-10.6405,-10.6405,-10.6405,-10.6405,-10.6405,-10.6405,-10.6405,-10.6405,-10.6322,-10.4702,-10.4025,-10.3803,-10.2202,-10.2485,-10.388,-10.388,-10.4981,-10.6376,-10.6376,-10.6376,-10.6376,-10.6376,-10.6376,-10.6376,-10.6376,-10.6376,-10.6376,-10.6376,-10.6376,-10.6376,-10.6376,-10.6376,-10.6376,-10.6376,-10.6376,-10.6376,-10.6376,-10.6376,-10.6376,-10.6376,-10.6376,-10.6413,-10.6486,-10.7073,-10.7587,-10.7771,-10.8395,-10.9202,-10.9973,-11.0083,-11.0377,-11.1111,-11.1221,-11.1221,-11.1221,-11.1221,-11.1221,-11.1221,-11.1221,-11.1221,-11.1221,-11.1221,-11.049,-10.9002,-10.7698,-10.626,-10.4782,-10.3445,-10.2725,-10.2661,-10.26,-10.2502,-9.7695,-9.7695,-9.789,-9.8789,-10.0195,-10.1601,-10.2695,-10.289,-10.289,-10.289,-10.289,-10.289,-10.289,-10.2611,-10.2309,-10.2109,-10.1802,-10.149,-10.1308,-10.1289,-10.1289,-10.1289,-10.1289,-10.1289,-10.1289,-10.1289,-10.1289,-10.1289,-10.1289,-10.1289,-10.1289,-10.1289,-10.1289,-10.1289,-10.2597,-10.3712,-10.4502,-10.5482,-10.6213,-10.6405,-10.6405,-10.6405,-10.6405,-10.6405,-10.6405,-10.6405,-10.6405,-10.6405,-10.6322,-10.4702,-10.4025,-10.3803,-10.2202,-10.2485,-10.388,-10.388,-10.4981,-10.6376,-10.6376,-10.6376,-10.6376,-10.6376,-10.6376,-10.6376,-10.6376,-10.6376,-10.6376,-10.6376,-10.6376,-10.6376,-10.6376,-10.6376,-10.6376,-10.6376,-10.6376,-10.6376,-10.6376,-10.6376,-10.6376,-10.6376,-10.6376,-10.6596,-10.7183,-10.752,-10.7991,-10.9276,-10.9606,-11.001,-11.0817,-11.0891,-11.1001,-11.1221,-11.1221,-11.1221,-11.1221,-11.1221,-11.1221,-11.1221,-11.1221,-11.1221,-11.1221,-11.1221,-11.049,-10.9002,-10.8705,-10.7767,-10.628,-10.4876,-10.41,-10.4073,-10.3039,-10.2502,-9.7695,-9.8008,-9.8633,-9.9922,-10.1211,-10.2304,-10.2812,-10.289,-10.289,-10.289,-10.289,-10.289,-10.289,-10.2593,-10.2289,-10.2099,-10.18,-10.1508,-10.1289,-10.1289,-10.1289,-10.1289,-10.1289,-10.1289,-10.1289,-10.1289,-10.1289,-10.1289,-10.1289,-10.1289,-10.1289,-10.1289,-10.1289,-10.1289,-10.2981,-10.4194,-10.4694,-10.579,-10.6405,-10.6405,-10.6405,-10.6405,-10.6405,-10.6405,-10.6405,-10.6405,-10.6405,-10.6405,-10.6322,-10.4702,-10.4025,-10.3803,-10.2202,-10.2485,-10.388,-10.388,-10.4981,-10.6376,-10.6376,-10.6376,-10.6376,-10.6376,-10.6376,-10.6376,-10.6376,-10.6376,-10.6376,-10.6376,-10.6376,-10.6376,-10.6376,-10.6376,-10.6376,-10.6376,-10.6376,-10.6376,-10.6376,-10.6376,-10.6376,-10.6376,-10.6706,-10.7073,-10.7477,-10.8175,-10.9166,-11.0414,-11.0597,-11.0707,-11.1111,-11.1221,-11.1221,-11.1221,-11.1221,-11.1221,-11.1221,-11.1221,-11.1221,-11.1221,-11.1221,-11.1221,-11.1221,-11.1221,-11.049,-10.9002,-10.8989,-10.8302,-10.681,-10.5297,-10.4605,-10.458,-10.3166,-10.2502,-9.7695,-9.8437,-9.9609,-10.1211,-10.2304,-10.289,-10.289,-10.289,-10.289,-10.289,-10.289,-10.289,-10.289,-10.2499,-10.221,-10.209,-10.1705,-10.14,-10.1308,-10.1289,-10.1289,-10.1289,-10.1289,-10.1289,-10.1289,-10.1289,-10.1289,-10.1289,-10.1289,-10.1289,-10.1289,-10.1289,-10.1289,-10.1289,-10.3097,-10.4309,-10.4694,-10.579,-10.6405,-10.6405,-10.6405,-10.6405,-10.6405,-10.6405,-10.6405,-10.6405,-10.6405,-10.6405,-10.6322,-10.4702,-10.4025,-10.3803,-10.2202,-10.2375,-10.3696,-10.3806,-10.4908,-10.6192,-10.6302,-10.6376,-10.6376,-10.6376,-10.6376,-10.6376,-10.6376,-10.6376,-10.6376,-10.6376,-10.6376,-10.6376,-10.6376,-10.6376,-10.6376,-10.6376,-10.6376,-10.6376,-10.6376,-10.6376,-10.6376,-10.6376,-10.7183,-10.7924,-10.7991,-10.9202,-11.0414,-11.1111,-11.1221,-11.1221,-11.1221,-11.1221,-11.1221,-11.1221,-11.1221,-11.1221,-11.1221,-11.1221,-11.1221,-11.1221,-11.1221,-11.1221,-11.1221,-11.1221,-11.0581,-10.9415,-10.9403,-10.8791,-10.7593,-10.5811,-10.5017,-10.4924,-10.332,-10.2502,-9.7695,-9.8906,-10.039,-10.1406,-10.2304,-10.289,-10.289,-10.289,-10.289,-10.289,-10.289,-10.289,-10.289,-10.281,-10.2615,-10.2184,-10.201,-10.1802,-10.1404,-10.1289,-10.1289,-10.1289,-10.1289,-10.1289,-10.1289,-10.1289,-10.1289,-10.1289,-10.1289,-10.1289,-10.1289,-10.1289,-10.1289,-10.1289,-10.3424,-10.4579,-10.4694,-10.579,-10.6405,-10.6405,-10.6405,-10.6405,-10.6405,-10.6405,-10.6405,-10.6405,-10.6405,-10.6405,-10.6322,-10.4702,-10.4025,-10.3803,-10.2202,-10.2081,-10.2925,-10.3586,-10.4504,-10.5422,-10.6119,-10.6376,-10.6376,-10.6376,-10.6376,-10.6376,-10.6376,-10.6376,-10.6376,-10.6376,-10.6376,-10.6376,-10.6376,-10.6376,-10.6376,-10.6376,-10.6376,-10.6376,-10.6376,-10.6376,-10.6376,-10.6376,-10.7587,-10.8909,-10.9569,-11.0414,-11.1111,-11.1221,-11.1221,-11.1221,-11.1221,-11.1221,-11.1221,-11.1221,-11.1221,-11.1221,-11.1221,-11.1221,-11.1221,-11.1221,-11.1221,-11.1221,-11.1221,-11.1221,-11.1096,-11.0925,-11.0925,-11.0799,-11.0581,-10.7819,-10.6536,-10.6391,-10.3783,-10.2502,-9.8906,-9.9726,-10.0586,-10.1992,-10.2617,-10.289,-10.289,-10.289,-10.289,-10.289,-10.289,-10.289,-10.289,-10.2803,-10.2503,-10.2214,-10.2023,-10.1719,-10.1385,-10.1289,-10.1289,-10.1289,-10.1289,-10.1289,-10.1289,-10.1289,-10.1289,-10.1289,-10.1289,-10.1289,-10.1289,-10.1289,-10.1289,-10.1289,-10.2904,-10.3886,-10.4194,-10.5213,-10.5905,-10.6405,-10.6405,-10.6405,-10.6405,-10.6405,-10.6405,-10.6405,-10.6405,-10.6405,-10.6322,-10.4702,-10.4025,-10.3803,-10.2202,-10.2008,-10.2815,-10.3586,-10.4394,-10.5201,-10.6082,-10.6376,-10.6376,-10.6376,-10.6376,-10.6376,-10.6376,-10.6376,-10.6376,-10.6376,-10.6376,-10.6376,-10.6376,-10.6376,-10.6376,-10.6376,-10.6376,-10.6376,-10.6376,-10.6376,-10.6706,-10.7587,-10.8688,-10.9679,-11.0487,-11.1001,-11.1221,-11.1221,-11.1221,-11.1221,-11.1221,-11.1221,-11.1221,-11.1221,-11.1221,-11.1221,-11.1221,-11.1221,-11.1221,-11.1221,-11.1221,-11.1221,-11.1221,-11.1221,-11.1221,-11.1221,-11.1221,-11.1221,-11.1221,-10.8215,-10.681,-10.672,-10.3803,-10.2502,-9.957,-10.0117,-10.0703,-10.2187,-10.2695,-10.289,-10.289,-10.289,-10.289,-10.289,-10.289,-10.289,-10.289,-10.2718,-10.2485,-10.2203,-10.1984,-10.1715,-10.1395,-10.1289,-10.1289,-10.1289,-10.1289,-10.1289,-10.1289,-10.1289,-10.1289,-10.1289,-10.1289,-10.1289,-10.1289,-10.1289,-10.1289,-10.1289,-10.2289,-10.3212,-10.3905,-10.4905,-10.579,-10.6405,-10.6405,-10.6405,-10.6405,-10.6405,-10.6405,-10.6405,-10.6405,-10.6405,-10.6322,-10.4702,-10.4108,-10.4108,-10.2204,-10.1985,-10.2809,-10.3595,-10.4284,-10.4908,-10.6009,-10.6376,-10.6376,-10.6376,-10.6376,-10.6376,-10.6376,-10.6376,-10.6376,-10.6376,-10.6376,-10.6376,-10.6376,-10.6376,-10.6376,-10.6376,-10.6376,-10.6376,-10.6376,-10.6596,-10.711,-10.8505,-10.9386,-11.0304,-11.1111,-11.1221,-11.1221,-11.1221,-11.1221,-11.1221,-11.1221,-11.1221,-11.1221,-11.1221,-11.1221,-11.1221,-11.1221,-11.1221,-11.1221,-11.1221,-11.1221,-11.1221,-11.1221,-11.1221,-11.1221,-11.1221,-11.1221,-11.097,-11.0627,-10.8097,-10.681,-10.672,-10.3803,-10.2725,-9.8828,-9.9687,-10.0508,-10.1406,-10.2304,-10.289,-10.289,-10.289,-10.289,-10.289,-10.289,-10.289,-10.289,-10.289,-10.2805,-10.249,-10.2289,-10.1995,-10.1691,-10.1508,-10.1289,-10.1289,-10.1289,-10.1289,-10.1289,-10.1289,-10.1289,-10.1289,-10.1289,-10.1289,-10.1289,-10.1289,-10.1289,-10.1289,-10.2212,-10.2981,-10.3905,-10.552,-10.6405,-10.6405,-10.6405,-10.6405,-10.6405,-10.6405,-10.6405,-10.6405,-10.6405,-10.6405,-10.6322,-10.4702,-10.4392,-10.4882,-10.2499,-10.2012,-10.283,-10.3583,-10.388,-10.421,-10.5789,-10.6376,-10.6376,-10.6376,-10.6376,-10.6376,-10.6376,-10.6376,-10.6376,-10.6376,-10.6376,-10.6376,-10.6376,-10.6376,-10.6376,-10.6376,-10.6376,-10.6376,-10.6376,-10.7,-10.7771,-10.8615,-10.9386,-11.0304,-11.1111,-11.1221,-11.1221,-11.1221,-11.1221,-11.1221,-11.1221,-11.1221,-11.1221,-11.1221,-11.1221,-11.1221,-11.1221,-11.1221,-11.1221,-11.1221,-11.1221,-11.1221,-11.1221,-11.1221,-11.1221,-11.1221,-11.1221,-11.049,-10.9087,-10.7593,-10.681,-10.672,-10.3803,-10.3194,-9.875,-9.9219,-9.9804,-10.1211,-10.1797,-10.2187,-10.2812,-10.289,-10.289,-10.289,-10.289,-10.289,-10.289,-10.289,-10.2807,-10.2499,-10.2304,-10.2017,-10.1719,-10.1487,-10.1289,-10.1289,-10.1289,-10.1289,-10.1289,-10.1289,-10.1289,-10.1289,-10.1289,-10.1289,-10.1289,-10.1289,-10.1289,-10.1289,-10.1597,-10.252,-10.3905,-10.5597,-10.6405,-10.6405,-10.6405,-10.6405,-10.6405,-10.6405,-10.6405,-10.6405,-10.6405,-10.6405,-10.6305,-10.5206,-10.4908,-10.4987,-10.2983,-10.2421,-10.2814,-10.3594,-10.3884,-10.41,-10.5789,-10.6376,-10.6376,-10.6376,-10.6376,-10.6376,-10.6376,-10.6376,-10.6376,-10.6376,-10.6376,-10.6376,-10.6376,-10.6376,-10.6376,-10.6376,-10.6376,-10.6486,-10.7073,-10.7771,-10.8505,-10.8688,-10.99,-11.0891,-11.1184,-11.1221,-11.1221,-11.1221,-11.1221,-11.1221,-11.1221,-11.1221,-11.1221,-11.1221,-11.1221,-11.1221,-11.1221,-11.1221,-11.1221,-11.1221,-11.1221,-11.1221,-11.1221,-11.1221,-11.1221,-11.1221,-11.1221,-11.0889,-11.0408,-10.8903,-10.8215,-10.8077,-10.5158,-10.4073,-9.8398,-9.8789,-9.9297,-10.039,-10.1211,-10.1797,-10.2304,-10.2695,-10.289,-10.289,-10.289,-10.289,-10.289,-10.289,-10.281,-10.2699,-10.2392,-10.2109,-10.1892,-10.1587,-10.14,-10.1308,-10.1289,-10.1289,-10.1289,-10.1289,-10.1289,-10.1289,-10.1289,-10.1289,-10.1289,-10.1289,-10.1289,-10.1289,-10.1904,-10.2712,-10.3905,-10.5597,-10.6405,-10.6405,-10.6405,-10.6405,-10.6405,-10.6405,-10.6405,-10.6405,-10.6405,-10.6405,-10.6326,-10.5491,-10.5407,-10.5418,-10.3501,-10.2905,-10.3219,-10.3381,-10.3705,-10.41,-10.549,-10.6229,-10.6376,-10.6376,-10.6376,-10.6376,-10.6376,-10.6376,-10.6376,-10.6376,-10.6376,-10.6376,-10.6376,-10.6376,-10.6376,-10.6376,-10.6376,-10.6596,-10.7367,-10.8175,-10.8909,-10.9202,-11.0304,-11.1221,-11.1221,-11.1221,-11.1221,-11.1221,-11.1221,-11.1221,-11.1221,-11.1221,-11.1221,-11.1221,-11.1221,-11.1221,-11.1221,-11.1221,-11.1221,-11.1221,-11.1221,-11.1221,-11.1221,-11.1221,-11.1221,-11.1221,-11.1221,-11.1221,-11.1221,-10.969,-10.8989,-10.8903,-10.6015,-10.4306,0.0,0.0,0.0,-9.8984,-10.0312,-10.1484,-10.1601,-10.2304,-10.289,-10.289,-10.289,-10.289,-10.289,-10.289,-10.289,-10.289,-10.2702,-10.2392,-10.2118,-10.1905,-10.1587,-10.1289,-10.1289,-10.1289,-10.1289,-10.1289,-10.1289,-10.1289,-10.1289,-10.1289,-10.1289,-10.1289,-10.1289,-10.1289,-10.2981,-10.3905,-10.3905,-10.5597,-10.6405,-10.6405,-10.6405,-10.6405,-10.6405,-10.6405,-10.6405,-10.6405,-10.6405,-10.6405,-10.6326,-10.5591,-10.571,-10.622,-10.3701,-10.3287,-10.3903,-10.3018,-10.3191,-10.399,-10.4782,-10.5704,-10.6376,-10.6376,-10.6376,-10.6376,-10.6376,-10.6376,-10.6376,-10.6376,-10.6376,-10.6376,-10.6376,-10.6376,-10.6376,-10.6376,-10.6376,-10.6596,-10.752,-10.8211,-10.9019,-10.979,-11.0597,-11.1221,-11.1221,-11.1221,-11.1221,-11.1221,-11.1221,-11.1221,-11.1221,-11.1221,-11.1221,-11.1221,-11.1221,-11.1221,-11.1221,-11.1221,-11.1221,-11.1221,-11.1221,-11.1221,-11.1221,-11.1221,-11.1221,-11.1221,-11.1221,-11.1221,-11.1221,-10.9774,-10.9002,-10.8903,-10.6015,-10.3803,-9.7695,0.0,0.0,0.0,0.0,0.0,-10.1289,-10.1797,-10.2109,-10.2812,-10.289,-10.289,-10.289,-10.289,-10.289,-10.289,-10.2702,-10.2504,-10.2386,-10.1995,-10.1695,-10.1587,-10.1398,-10.1289,-10.1289,-10.1289,-10.1289,-10.1289,-10.1289,-10.1289,-10.1289,-10.1289,-10.1289,-10.1289,-10.2981,-10.3905,-10.3905,-10.5597,-10.6405,-10.6405,-10.6405,-10.6405,-10.6405,-10.6405,-10.6405,-10.6405,-10.6405,-10.6405,-10.6385,-10.6199,-10.6182,-10.6287,-10.502,-10.4306,-10.3983,-10.3683,-10.372,-10.397,-10.4787,-10.5704,-10.6376,-10.6376,-10.6376,-10.6376,-10.6376,-10.6376,-10.6376,-10.6376,-10.6376,-10.6376,-10.6376,-10.6376,-10.6376,-10.6376,-10.6376,-10.6822,-10.8223,-10.8621,-10.9019,-10.979,-11.0597,-11.1221,-11.1221,-11.1221,-11.1221,-11.1221,-11.1221,-11.1221,-11.1221,-11.1221,-11.1221,-11.1221,-11.1221,-11.1221,-11.1221,-11.1221,-11.1221,-11.1221,-11.1221,-11.1221,-11.1221,-11.1221,-11.1221,-11.1221,-11.1221,-11.1221,-11.1221,-11.0791,-11.001,-10.8903,-10.6015,-10.3803,-9.7812,-9.7695,-9.7812,-9.832,0.0,0.0,-10.0703,-10.1289,-10.1797,-10.2695,-10.289,-10.289,-10.289,-10.289,-10.289,-10.289,-10.2802,-10.2611,-10.2485,-10.2099,-10.1802,-10.1715,-10.1508,-10.1289,-10.1289,-10.1289,-10.1289,-10.1289,-10.1289,-10.1289,-10.1289,-10.1289,-10.1289,-10.1289,-10.2981,-10.3905,-10.3905,-10.5597,-10.6405,-10.6405,-10.6405,-10.6405,-10.6405,-10.6405,-10.6405,-10.6405,-10.6405,-10.6405,-10.6405,-10.6405,-10.6405,-10.6328,-10.548,-10.469,-10.3991,-10.3527,-10.3573,-10.3978,-10.4421,-10.5369,-10.6376,-10.6376,-10.6376,-10.6376,-10.6376,-10.6376,-10.6376,-10.6376,-10.6376,-10.6376,-10.6376,-10.6376,-10.6376,-10.6376,-10.6376,-10.678,-10.8474,-10.8805,-10.9092,-11.0304,-11.0891,-11.1221,-11.1221,-11.1221,-11.1221,-11.1221,-11.1221,-11.1221,-11.1221,-11.1221,-11.1221,-11.1221,-11.1221,-11.1221,-11.1221,-11.1221,-11.1221,-11.1221,-11.1221,-11.1221,-11.1221,-11.1221,-11.1221,-11.1221,-11.1221,-11.1221,-11.1221,-11.1221,-11.0093,-10.7974,-10.5733,-10.3803,-9.8047,-9.7773,-9.7695,-9.7695,-9.8281,0.0,-9.9961,-10.0781,-10.1719,-10.2617,-10.2812,-10.289,-10.289,-10.289,-10.289,-10.289,-10.289,-10.2808,-10.2593,-10.2288,-10.2021,-10.1813,-10.1517,-10.1308,-10.1289,-10.1289,-10.1289,-10.1289,-10.1289,-10.1289,-10.1289,-10.1289,-10.1289,-10.1289,-10.2904,-10.3789,-10.3905,-10.5482,-10.629,-10.6405,-10.6405,-10.6405,-10.6405,-10.6405,-10.6405,-10.6405,-10.6405,-10.6405,-10.6405,-10.6405,-10.6405,-10.6328,-10.5595,-10.4805,-10.3892,-10.3119,-10.3202,-10.3831,-10.3897,-10.4887,-10.6302,-10.6376,-10.6376,-10.6376,-10.6376,-10.6376,-10.6376,-10.6376,-10.6376,-10.6376,-10.6376,-10.6376,-10.6376,-10.6376,-10.6376,-10.6816,-10.8505,-10.8799,-10.9276,-11.0891,-11.1221,-11.1221,-11.1221,-11.1221,-11.1221,-11.1221,-11.1221,-11.1221,-11.1221,-11.1221,-11.1221,-11.1221,-11.1221,-11.1221,-11.1221,-11.1221,-11.1221,-11.1221,-11.1221,-11.1221,-11.1221,-11.1221,-11.1221,-11.1221,-11.1221,-11.1221,-11.1221,-11.0917,-10.9403,-10.6791,-10.5099,-10.3714,-9.8789,-9.8242,-9.7695,-9.7695,-9.7812,0.0,-9.9062,-9.9922,-10.0781,-10.1719,-10.2383,-10.289,-10.289,-10.289,-10.289,-10.289,-10.289,-10.289,-10.2809,-10.2597,-10.2295,-10.2109,-10.1788,-10.1473,-10.1289,-10.1289,-10.1289,-10.1289,-10.1289,-10.1289,-10.1289,-10.1289,-10.1289,-10.1289,-10.2289,-10.3212,-10.3905,-10.4905,-10.5713,-10.6405,-10.6405,-10.6405,-10.6405,-10.6405,-10.6405,-10.6405,-10.6405,-10.6405,-10.6405,-10.6405,-10.6405,-10.6405,-10.6192,-10.5287,-10.3991,-10.3788,-10.3426,-10.2974,-10.3714,-10.4515,-10.5521,-10.6229,-10.6376,-10.6376,-10.6376,-10.6376,-10.6376,-10.6376,-10.6376,-10.6376,-10.6376,-10.6376,-10.6376,-10.6376,-10.6376,-10.6816,-10.8505,-10.8805,-10.9282,-11.0891,-11.1221,-11.1221,-11.1221,-11.1221,-11.1221,-11.1221,-11.1221,-11.1221,-11.1221,-11.1221,-11.1221,-11.1221,-11.1221,-11.1221,-11.1221,-11.1221,-11.1221,-11.1221,-11.1221,-11.1221,-11.1221,-11.1221,-11.1221,-11.1221,-11.1221,-11.1221,-11.1221,-10.8804,-10.7382,-10.672,-10.4108,-10.2789,-9.9765,-9.9336,-9.8906,-9.8476,-9.8359,0.0,0.0,-9.9687,-10.0508,-10.1406,-10.2304,-10.289,-10.289,-10.289,-10.289,-10.289,-10.289,-10.289,-10.289,-10.2702,-10.2386,-10.2099,-10.1686,-10.1416,-10.1289,-10.1289,-10.1289,-10.1289,-10.1289,-10.1289,-10.1289,-10.1289,-10.1289,-10.1289,-10.2097,-10.2981,-10.3905,-10.4713,-10.5482,-10.6405,-10.6405,-10.6405,-10.6405,-10.6405,-10.6405,-10.6405,-10.6405,-10.6405,-10.6405,-10.6405,-10.6405,-10.6405,-10.6405,-10.5403,-10.3991,-10.4009,-10.3426,-10.279,-10.3591,-10.4384,-10.5222,-10.6077,-10.6376,-10.6376,-10.6376,-10.6376,-10.6376,-10.6376,-10.6376,-10.6376,-10.6376,-10.6376,-10.6376,-10.6376,-10.6376,-10.678,-10.8511,-10.8811,-10.9325,-11.0891,-11.1221,-11.1221,-11.1221,-11.1221,-11.1221,-11.1221,-11.1221,-11.1221,-11.1221,-11.1221,-11.1221,-11.1221,-11.1221,-11.1221,-11.1221,-11.1221,-11.1221,-11.1221,-11.1221,-11.1221,-11.1221,-11.1221,-11.1221,-11.1221,-11.1221,-11.1221,-11.1221,-10.9025,-10.7505,-10.672,-10.3803,-10.2502,-10.0703,-10.039,-10.0117,-9.9414,-9.9258,-9.9258,0.0,0.0,0.0,-10.1484,-10.2304,-10.289,-10.289,-10.289,-10.2695,-10.2187,-10.2617,-10.2695,-10.2187,-10.24,-10.2509,-10.221,-10.1783,-10.1501,-10.1285,-10.1308,-10.1289,-10.1289,-10.1289,-10.1289,-10.1289,-10.1289,-10.1289,-10.1289,-10.202,-10.2789,-10.3905,-10.4482,-10.5405,-10.6405,-10.6405,-10.6405,-10.6405,-10.6405,-10.6405,-10.6405,-10.6405,-10.6405,-10.6405,-10.6405,-10.6405,-10.6405,-10.6405,-10.5403,-10.3991,-10.4009,-10.3426,-10.261,-10.3573,-10.4293,-10.4997,-10.6077,-10.6376,-10.6376,-10.6376,-10.6376,-10.6376,-10.6376,-10.6376,-10.6376,-10.6376,-10.6376,-10.6376,-10.6376,-10.6376,-10.6822,-10.8523,-10.8774,-10.9282,-11.0891,-11.1221,-11.1221,-11.1221,-11.1221,-11.1221,-11.1221,-11.1221,-11.1221,-11.1221,-11.1221,-11.1221,-11.1221,-11.1221,-11.1221,-11.1221,-11.1221,-11.1221,-11.1221,-11.1221,-11.1221,-11.1221,-11.1221,-11.1221,-11.1221,-11.1221,-11.1221,-11.1221,-10.969,-10.8179,-10.672,-10.4108,-10.2789,-10.1484,-10.0898,-10.0312,-10.0195,-10.0195,-10.0195,-10.0195,0.0,-10.1484,-10.1601,0.0,-10.289,-10.289,0.0,0.0,-9.9804,-10.1406,-10.2109,-9.9765,-10.1405,-10.2798,-10.2514,-10.2296,-10.1989,-10.14,-10.13,-10.1289,-10.1289,-10.1289,-10.1289,-10.1289,-10.1289,-10.1289,-10.1289,-10.1404,-10.2212,-10.3905,-10.3982,-10.4789,-10.6405,-10.6405,-10.6405,-10.6405,-10.6405,-10.6405,-10.6405,-10.6405,-10.6405,-10.6405,-10.6405,-10.6405,-10.6405,-10.6405,-10.5403,-10.3991,-10.4009,-10.3018,-10.1865,-10.3426,-10.3994,-10.4289,-10.5893,-10.6376,-10.6376,-10.6376,-10.6376,-10.6376,-10.6376,-10.6376,-10.6376,-10.6376,-10.6376,-10.6376,-10.6376,-10.6376,-10.6785,-10.8498,-10.8781,-10.9276,-11.0891,-11.1221,-11.1221,-11.1221,-11.1221,-11.1221,-11.1221,-11.1221,-11.1221,-11.1221,-11.1221,-11.1221,-11.1221,-11.1221,-11.1221,-11.1221,-11.1221,-11.1221,-11.1221,-11.1221,-11.1221,-11.1221,-11.1221,-11.1221,-11.1221,-11.1221,-11.1221,-11.1221,-10.969,-10.8179,-10.6791,-10.5099,-10.3687,-10.2383,-10.2109,-10.1719,-10.1211,-10.1094,-10.0898,-10.039,-10.1015,-10.1601,-10.1601,0.0,0.0,0.0,0.0,0.0,0.0,-10.2187,-10.25,-10.1406,-10.2187,-10.2806,-10.2494,-10.2386,-10.2088,-10.1409,-10.1494,-10.1525,-10.1308,-10.1395,-10.1508,-10.1289,-10.1289,-10.1289,-10.1289,-10.1289,-10.2097,-10.3905,-10.3905,-10.4713,-10.6405,-10.6405,-10.6405,-10.6405,-10.6405,-10.6405,-10.6405,-10.6405,-10.6405,-10.6405,-10.6405,-10.6405,-10.6405,-10.6405,-10.5692,-10.4627,-10.4196,-10.3202,-10.2386,-10.35,-10.3884,-10.4216,-10.5893,-10.6376,-10.6376,-10.6376,-10.6376,-10.6376,-10.6376,-10.6376,-10.6376,-10.6376,-10.6376,-10.6376,-10.6376,-10.6376,-10.6785,-10.8503,-10.8781,-10.9312,-11.0891,-11.1221,-11.1221,-11.1221,-11.1221,-11.1221,-11.1221,-11.1221,-11.1221,-11.1221,-11.1221,-11.1221,-11.1221,-11.1221,-11.1221,-11.1221,-11.1221,-11.1221,-11.1221,-11.1221,-11.1221,-11.1221,-11.1221,-11.1221,-11.1221,-11.1221,-11.1221,-11.1221,-11.0618,-10.9123,-10.6791,-10.5274,-10.3803,-10.289,-10.289,-10.2695,-10.2109,-10.1992,-10.1797,-10.1211,-10.1484,-10.1992,-10.1992,-10.25,0.0,0.0,0.0,-10.2695,-10.1914,0.0,-10.2617,-10.1914,-10.2383,-10.2809,-10.2611,-10.2499,-10.2217,-10.1595,-10.1699,-10.1817,-10.1416,-10.161,-10.1594,-10.1308,-10.1289,-10.1289,-10.1289,-10.1289,-10.202,-10.3482,-10.3789,-10.4597,-10.602,-10.629,-10.6405,-10.6405,-10.6405,-10.6405,-10.6405,-10.6405,-10.6405,-10.6405,-10.6405,-10.6405,-10.6405,-10.6405,-10.6,-10.5405,-10.4406,-10.3391,-10.2794,-10.3426,-10.3884,-10.4515,-10.5893,-10.6376,-10.6376,-10.6376,-10.6376,-10.6376,-10.6376,-10.6376,-10.6376,-10.6376,-10.6376,-10.6376,-10.6376,-10.6376,-10.6785,-10.8498,-10.8817,-10.9312,-11.0891,-11.1221,-11.1221,-11.1221,-11.1221,-11.1221,-11.1221,-11.1221,-11.1221,-11.1221,-11.1221,-11.1221,-11.1221,-11.1221,-11.1221,-11.1221,-11.1221,-11.1221,-11.1221,-11.1221,-11.1221,-11.1221,-11.1221,-11.1221,-11.1221,-11.1221,-11.1221,-11.1221,-11.1221,-10.9679,-10.681,-10.5698,-10.4194,-10.289,-10.289,-10.289,-10.289,-10.289,-10.289,-10.2812,-10.2812,-10.289,-10.289,-10.289,-10.289,-10.289,-10.289,-10.2109,-9.9531,-10.1211,0.0,0.0,-10.1289,-10.289,-10.289,-10.2699,-10.238,-10.209,-10.21,-10.1984,-10.1715,-10.1686,-10.1594,-10.1308,-10.1289,-10.1289,-10.1289,-10.1289,-10.1712,-10.2597,-10.3482,-10.4289,-10.5174,-10.602,-10.6405,-10.6405,-10.6405,-10.6405,-10.6405,-10.6405,-10.6405,-10.6405,-10.6405,-10.6405,-10.6405,-10.6405,-10.6405,-10.6192,-10.4607,-10.3403,-10.272,-10.272,-10.3811,-10.5222,-10.6077,-10.6376,-10.6376,-10.6376,-10.6376,-10.6376,-10.6376,-10.6376,-10.6376,-10.6376,-10.6376,-10.6376,-10.6376,-10.6376,-10.678,-10.8481,-10.8805,-10.9312,-11.0891,-11.1221,-11.1221,-11.1221,-11.1221,-11.1221,-11.1221,-11.1221,-11.1221,-11.1221,-11.1221,-11.1221,-11.1221,-11.1221,-11.1221,-11.1221,-11.1221,-11.1221,-11.1221,-11.1221,-11.1221,-11.1221,-11.1221,-11.1221,-11.1221,-11.1221,-11.1221,-11.1221,-11.1221,-10.9679,-10.681,-10.6791,-10.5192,-10.289,-10.289,-10.289,-10.289,-10.289,-10.289,-10.289,-10.289,-10.289,-10.289,-10.289,-10.289,-10.289,-10.289,-10.2617,-10.1719,-10.2304,-10.2617,0.0,-10.2304,-10.289,-10.289,-10.2699,-10.2499,-10.2601,-10.2287,-10.1995,-10.1691,-10.17,-10.1594,-10.1308,-10.1289,-10.1289,-10.1289,-10.1289,-10.1712,-10.2597,-10.3482,-10.4289,-10.5097,-10.602,-10.6405,-10.6405,-10.6405,-10.6405,-10.6405,-10.6405,-10.6405,-10.6405,-10.6405,-10.6405,-10.6405,-10.6405,-10.6405,-10.6192,-10.4613,-10.3785,-10.3573,-10.35,-10.4219,-10.5222,-10.6077,-10.6376,-10.6376,-10.6376,-10.6376,-10.6376,-10.6376,-10.6376,-10.6376,-10.6376,-10.6376,-10.6376,-10.6376,-10.6376,-10.678,-10.8481,-10.8799,-10.9306,-11.0928,-11.1221,-11.1221,-11.1221,-11.1221,-11.1221,-11.1221,-11.1221,-11.1221,-11.1221,-11.1221,-11.1221,-11.1221,-11.1221,-11.1221,-11.1221,-11.1221,-11.1221,-11.1221,-11.1221,-11.1221,-11.1221,-11.1221,-11.1221,-11.1221,-11.1221,-11.1221,-11.1221,-11.1221,-10.9679,-10.681,-10.681,-10.5285,-10.289,-10.289,-10.289,-10.289,-10.289,-10.289,-10.289,-10.289,-10.289,-10.289,-10.289,-10.289,-10.289,-10.289,-10.289,0.0,0.0,0.0,0.0,-10.289,-10.289,-10.289,-10.2681,-10.2601,-10.2602,-10.2387,-10.21,-10.1705,-10.17,-10.1594,-10.1308,-10.1289,-10.1289,-10.1289,-10.1289,-10.1597,-10.2097,-10.3289,-10.4212,-10.4713,-10.579,-10.6405,-10.6405,-10.6405,-10.6405,-10.6405,-10.6405,-10.6405,-10.6405,-10.6405,-10.6405,-10.6405,-10.6405,-10.6405,-10.6192,-10.4613,-10.3595,-10.3202,-10.4095,-10.4518,-10.4887,-10.6003,-10.6376,-10.6376,-10.6376,-10.6376,-10.6376,-10.6376,-10.6376,-10.6376,-10.6376,-10.6376,-10.6376,-10.6376,-10.6376,-10.678,-10.8474,-10.8792,-10.9299,-11.0928,-11.1221,-11.1221,-11.1221,-11.1221,-11.1221,-11.1221,-11.1221,-11.1221,-11.1221,-11.1221,-11.1221,-11.1221,-11.1221,-11.1221,-11.1221,-11.1221,-11.1221,-11.1221,-11.1221,-11.1221,-11.1221,-11.1221,-11.1221,-11.1221,-11.1221,-11.1221,-11.1221,-11.1221,-10.9679,-10.681,-10.681,-10.5285]},{"header":{"parameterUnit":"m.s-1","parameterCategory":1,"la1":30.6,"la2":29.2853,"lo1":-89.7004,"lo2":-87.6739,"dy":0.0162,"dx":0.0183,"nx":112,"ny":82,"refTime":"2024-03-22T06:00:00:Z","depth":0,"parameterNumber":3,"parameterNumberName":"V-component_of_WINDS"},"data":[0.0,0.0,0.0,0.0,0.0,0.0,0.0,0.0,0.0,0.0,0.0,0.0,0.0,0.0,0.0,0.0,0.0,0.0,0.0,0.0,0.0,0.0,0.0,0.0,0.0,0.0,0.0,0.0,0.0,0.0,0.0,0.0,0.0,0.0,0.0,0.0,0.0,0.0,0.0,0.0,0.0,0.0,0.0,0.0,0.0,0.0,0.0,0.0,0.0,0.0,0.0,0.0,0.0,0.0,0.0,0.0,0.0,0.0,0.0,0.0,0.0,0.0,0.0,0.0,0.0,0.0,0.0,0.0,0.0,0.0,0.0,0.0,0.0,0.0,0.0,0.0,0.0,0.0,0.0,0.0,0.0,0.0,0.0,0.0,0.0,0.0,0.0,0.0,0.0,0.0,4.7978,5.1037,5.1426,5.1426,5.1426,5.1426,5.1426,5.1426,0.0,0.0,0.0,0.0,0.0,0.0,0.0,0.0,0.0,0.0,0.0,0.0,0.0,0.0,0.0,0.0,0.0,0.0,0.0,0.0,0.0,0.0,0.0,0.0,0.0,0.0,0.0,0.0,0.0,0.0,0.0,0.0,0.0,0.0,0.0,0.0,0.0,0.0,0.0,0.0,0.0,0.0,0.0,0.0,0.0,0.0,0.0,0.0,0.0,0.0,0.0,0.0,0.0,0.0,0.0,0.0,0.0,0.0,0.0,0.0,0.0,0.0,0.0,0.0,0.0,0.0,0.0,0.0,0.0,0.0,0.0,0.0,0.0,0.0,0.0,0.0,0.0,0.0,0.0,0.0,0.0,0.0,0.0,0.0,0.0,0.0,0.0,0.0,0.0,0.0,0.0,0.0,0.0,0.0,0.0,0.0,0.0,0.0,0.0,0.0,0.0,0.0,0.0,0.0,4.5853,5.0822,5.1426,5.1426,5.1426,5.1426,5.1426,5.1426,0.0,0.0,0.0,0.0,0.0,0.0,0.0,0.0,0.0,0.0,0.0,0.0,0.0,0.0,0.0,0.0,0.0,0.0,0.0,0.0,0.0,0.0,0.0,0.0,0.0,0.0,0.0,0.0,0.0,0.0,0.0,0.0,0.0,0.0,0.0,0.0,0.0,0.0,0.0,0.0,0.0,0.0,0.0,0.0,0.0,0.0,0.0,0.0,0.0,0.0,0.0,0.0,0.0,0.0,0.0,0.0,0.0,0.0,0.0,0.0,0.0,0.0,0.0,0.0,0.0,0.0,0.0,0.0,0.0,0.0,0.0,0.0,0.0,0.0,0.0,0.0,0.0,0.0,0.0,0.0,0.0,0.0,0.0,0.0,0.0,0.0,0.0,0.0,0.0,0.0,0.0,0.0,0.0,0.0,0.0,0.0,0.0,0.0,0.0,0.0,0.0,0.0,0.0,4.6769,4.8688,5.1134,5.1426,5.1426,5.1426,5.1426,5.1426,5.1426,5.1426,0.0,0.0,0.0,0.0,0.0,0.0,0.0,0.0,0.0,0.0,0.0,0.0,0.0,0.0,0.0,0.0,0.0,0.0,0.0,0.0,0.0,0.0,0.0,0.0,0.0,0.0,0.0,0.0,0.0,0.0,0.0,0.0,0.0,0.0,0.0,0.0,0.0,0.0,0.0,0.0,0.0,0.0,0.0,0.0,0.0,0.0,0.0,0.0,0.0,0.0,0.0,0.0,0.0,0.0,0.0,0.0,0.0,0.0,0.0,0.0,0.0,0.0,0.0,0.0,0.0,0.0,0.0,0.0,0.0,0.0,0.0,0.0,0.0,0.0,0.0,0.0,0.0,0.0,0.0,0.0,0.0,0.0,0.0,0.0,0.0,0.0,0.0,0.0,0.0,0.0,0.0,0.0,0.0,0.0,0.0,0.0,0.0,0.0,0.0,0.0,0.0,0.0,4.9297,5.1426,5.1426,5.1426,5.1426,5.1426,5.1426,5.1426,5.1426,5.1426,0.0,0.0,0.0,0.0,0.0,0.0,0.0,0.0,0.0,0.0,0.0,0.0,0.0,0.0,0.0,0.0,0.0,0.0,0.0,0.0,0.0,0.0,0.0,0.0,0.0,0.0,0.0,0.0,0.0,0.0,0.0,0.0,0.0,0.0,0.0,0.0,0.0,0.0,0.0,0.0,0.0,0.0,0.0,0.0,0.0,0.0,0.0,0.0,0.0,0.0,0.0,0.0,0.0,0.0,0.0,0.0,0.0,0.0,0.0,0.0,0.0,0.0,0.0,0.0,0.0,0.0,0.0,0.0,0.0,0.0,0.0,0.0,0.0,0.0,0.0,0.0,0.0,0.0,0.0,0.0,0.0,0.0,0.0,0.0,0.0,0.0,0.0,0.0,0.0,0.0,0.0,0.0,0.0,0.0,0.0,0.0,0.0,0.0,0.0,0.0,0.0,0.0,4.8176,5.1426,5.1426,5.1426,5.1426,5.1426,5.1426,5.1426,5.1426,5.1426,0.0,0.0,0.0,0.0,0.0,0.0,0.0,0.0,0.0,0.0,0.0,0.0,0.0,0.0,0.0,0.0,0.0,0.0,0.0,0.0,0.0,0.0,0.0,0.0,0.0,0.0,0.0,0.0,0.0,0.0,0.0,0.0,0.0,0.0,0.0,0.0,0.0,0.0,0.0,0.0,0.0,0.0,0.0,0.0,0.0,0.0,0.0,0.0,0.0,0.0,0.0,0.0,0.0,0.0,0.0,0.0,0.0,0.0,0.0,0.0,0.0,0.0,0.0,0.0,0.0,0.0,0.0,0.0,0.0,0.0,0.0,0.0,0.0,0.0,0.0,0.0,0.0,0.0,0.0,0.0,0.0,0.0,0.0,0.0,0.0,0.0,0.0,0.0,0.0,0.0,0.0,0.0,0.0,0.0,0.0,0.0,0.0,0.0,0.0,0.0,0.0,0.0,4.8077,5.1426,5.1426,5.1426,5.1426,5.1426,5.1426,5.1426,5.1426,0.0,0.0,0.0,0.0,0.0,0.0,0.0,0.0,0.0,0.0,0.0,0.0,0.0,0.0,0.0,0.0,0.0,0.0,0.0,0.0,0.0,0.0,0.0,0.0,0.0,0.0,0.0,0.0,0.0,0.0,0.0,0.0,0.0,0.0,0.0,0.0,0.0,0.0,0.0,0.0,0.0,0.0,0.0,0.0,0.0,0.0,0.0,0.0,0.0,0.0,0.0,0.0,0.0,0.0,0.0,0.0,0.0,0.0,0.0,0.0,0.0,0.0,0.0,0.0,0.0,0.0,0.0,0.0,0.0,0.0,0.0,0.0,0.0,0.0,0.0,0.0,0.0,0.0,0.0,0.0,0.0,0.0,0.0,0.0,0.0,0.0,0.0,0.0,0.0,0.0,0.0,0.0,0.0,0.0,0.0,0.0,0.0,0.0,0.0,0.0,0.0,0.0,4.3318,4.8077,5.1426,5.1426,5.1426,5.1426,5.1426,5.1426,5.1426,5.1426,0.0,0.0,0.0,0.0,0.0,0.0,0.0,0.0,0.0,0.0,0.0,0.0,0.0,0.0,0.0,0.0,0.0,0.0,0.0,0.0,0.0,0.0,0.0,0.0,0.0,0.0,0.0,0.0,0.0,0.0,0.0,0.0,0.0,0.0,0.0,0.0,0.0,0.0,0.0,0.0,0.0,0.0,0.0,0.0,0.0,0.0,0.0,0.0,0.0,0.0,0.0,0.0,0.0,0.0,0.0,0.0,0.0,0.0,0.0,0.0,0.0,0.0,0.0,0.0,0.0,0.0,0.0,0.0,0.0,0.0,0.0,0.0,0.0,0.0,0.0,0.0,0.0,0.0,0.0,0.0,0.0,0.0,0.0,0.0,0.0,0.0,0.0,0.0,0.0,0.0,0.0,0.0,0.0,0.0,0.0,0.0,0.0,0.0,0.0,0.0,0.0,0.0,4.3318,4.8077,5.1426,5.1426,5.1426,5.1426,5.1426,5.1426,5.1426,0.0,0.0,0.0,0.0,0.0,0.0,0.0,0.0,0.0,0.0,0.0,0.0,0.0,0.0,0.0,0.0,0.0,0.0,0.0,0.0,0.0,0.0,0.0,0.0,0.0,0.0,0.0,0.0,0.0,0.0,0.0,0.0,0.0,0.0,0.0,0.0,0.0,0.0,0.0,0.0,0.0,0.0,0.0,0.0,0.0,0.0,0.0,0.0,0.0,0.0,0.0,0.0,0.0,0.0,0.0,0.0,0.0,0.0,0.0,0.0,0.0,0.0,0.0,0.0,0.0,0.0,0.0,0.0,0.0,0.0,0.0,0.0,0.0,0.0,0.0,0.0,0.0,0.0,0.0,0.0,0.0,0.0,0.0,0.0,0.0,0.0,0.0,0.0,0.0,0.0,0.0,0.0,0.0,0.0,0.0,0.0,0.0,0.0,0.0,0.0,0.0,0.0,0.0,4.3318,4.8077,5.1426,5.1426,5.1426,5.1426,5.1426,5.1426,5.1426,5.1426,0.0,0.0,0.0,0.0,0.0,0.0,0.0,0.0,0.0,0.0,0.0,0.0,0.0,0.0,0.0,0.0,0.0,0.0,0.0,0.0,0.0,0.0,0.0,0.0,0.0,0.0,0.0,0.0,0.0,0.0,0.0,0.0,0.0,0.0,0.0,0.0,0.0,0.0,0.0,0.0,0.0,0.0,0.0,0.0,0.0,0.0,0.0,0.0,0.0,0.0,0.0,0.0,0.0,0.0,0.0,0.0,0.0,0.0,0.0,0.0,0.0,0.0,0.0,0.0,0.0,0.0,0.0,0.0,0.0,0.0,0.0,0.0,0.0,0.0,0.0,0.0,0.0,0.0,0.0,0.0,0.0,0.0,0.0,0.0,0.0,0.0,0.0,0.0,0.0,0.0,0.0,0.0,0.0,0.0,0.0,0.0,0.0,0.0,0.0,0.0,0.0,0.0,4.3335,4.8077,5.1426,5.1426,5.1426,5.1426,5.1426,5.1426,5.1426,5.1426,0.0,0.0,0.0,0.0,0.0,0.0,0.0,0.0,0.0,0.0,0.0,0.0,0.0,0.0,0.0,0.0,0.0,0.0,0.0,0.0,0.0,0.0,0.0,0.0,0.0,0.0,0.0,0.0,0.0,0.0,0.0,0.0,0.0,0.0,0.0,0.0,0.0,0.0,0.0,0.0,0.0,0.0,0.0,0.0,0.0,0.0,0.0,0.0,0.0,0.0,0.0,0.0,0.0,0.0,0.0,0.0,0.0,0.0,0.0,0.0,0.0,0.0,0.0,0.0,0.0,0.0,0.0,0.0,0.0,0.0,0.0,0.0,0.0,0.0,0.0,0.0,0.0,0.0,0.0,0.0,0.0,0.0,0.0,0.0,0.0,0.0,0.0,0.0,0.0,0.0,0.0,0.0,0.0,0.0,0.0,0.0,0.0,0.0,0.0,0.0,0.0,0.0,4.3318,4.8059,5.1426,5.1426,5.1426,5.1426,5.1426,5.1426,5.1426,5.1426,0.0,0.0,0.0,0.0,0.0,0.0,0.0,0.0,0.0,0.0,0.0,0.0,0.0,0.0,0.0,0.0,0.0,0.0,0.0,0.0,0.0,0.0,0.0,0.0,0.0,0.0,0.0,0.0,0.0,0.0,0.0,0.0,0.0,0.0,0.0,0.0,0.0,0.0,0.0,0.0,0.0,0.0,0.0,0.0,0.0,0.0,0.0,0.0,0.0,0.0,0.0,0.0,0.0,0.0,0.0,0.0,0.0,0.0,0.0,0.0,3.2798,3.3129,0.0,0.0,0.0,0.0,0.0,0.0,0.0,0.0,0.0,0.0,0.0,0.0,0.0,0.0,0.0,0.0,0.0,0.0,0.0,0.0,0.0,0.0,0.0,0.0,0.0,0.0,0.0,0.0,0.0,0.0,0.0,0.0,0.0,0.0,0.0,0.0,0.0,0.0,0.0,0.0,4.3273,4.7992,5.1426,5.1426,5.1426,5.1426,5.1426,5.1426,5.1426,5.1426,5.1426,0.0,0.0,0.0,0.0,0.0,0.0,0.0,0.0,0.0,0.0,0.0,0.0,0.0,0.0,0.0,0.0,0.0,0.0,0.0,0.0,0.0,0.0,0.0,0.0,0.0,0.0,0.0,0.0,0.0,0.0,0.0,0.0,0.0,0.0,0.0,0.0,0.0,0.0,0.0,0.0,0.0,0.0,0.0,0.0,0.0,0.0,0.0,0.0,0.0,0.0,0.0,0.0,0.0,0.0,0.0,0.0,0.0,0.0,0.0,3.3672,3.3778,0.0,0.0,0.0,0.0,0.0,0.0,0.0,0.0,0.0,0.0,0.0,0.0,0.0,0.0,0.0,0.0,0.0,0.0,0.0,0.0,0.0,0.0,0.0,0.0,0.0,0.0,0.0,0.0,0.0,0.0,0.0,0.0,0.0,0.0,0.0,0.0,0.0,0.0,0.0,0.0,4.3305,4.8066,5.1426,5.1426,5.1426,5.1426,5.1426,5.1426,5.1426,5.1426,5.1426,0.0,0.0,0.0,0.0,0.0,0.0,0.0,0.0,0.0,0.0,0.0,0.0,0.0,0.0,0.0,0.0,0.0,0.0,0.0,0.0,0.0,0.0,0.0,0.0,0.0,0.0,0.0,0.0,0.0,0.0,0.0,0.0,0.0,0.0,0.0,0.0,0.0,0.0,0.0,0.0,0.0,0.0,0.0,0.0,0.0,0.0,0.0,0.0,0.0,0.0,0.0,0.0,0.0,2.9765,3.1166,3.171,3.4108,3.5191,3.5191,3.5191,3.5191,3.5191,3.5191,0.0,0.0,0.0,0.0,0.0,0.0,0.0,0.0,0.0,0.0,0.0,0.0,0.0,0.0,0.0,0.0,0.0,0.0,0.0,0.0,0.0,0.0,3.5351,3.5351,3.5351,3.5351,3.5351,0.0,0.0,0.0,0.0,0.0,0.0,0.0,0.0,0.0,0.0,0.0,4.3398,4.7862,5.1015,5.1445,5.1543,5.1523,5.1445,5.1426,5.1426,5.1426,5.1426,5.1426,0.0,0.0,0.0,0.0,0.0,0.0,0.0,0.0,0.0,0.0,0.0,0.0,0.0,0.0,0.0,0.0,0.0,0.0,0.0,0.0,0.0,0.0,0.0,0.0,0.0,0.0,0.0,0.0,0.0,0.0,0.0,0.0,1.6707,1.6748,0.0,0.0,0.0,0.0,0.0,0.0,0.0,0.0,0.0,0.0,0.0,0.0,0.0,1.9823,2.2739,2.2748,2.5339,3.03,3.0727,3.2254,3.465,3.498,3.5191,3.5191,3.5191,0.0,3.5191,3.5191,0.0,0.0,0.0,0.0,0.0,0.0,0.0,0.0,0.0,0.0,0.0,0.0,0.0,0.0,0.0,0.0,0.0,0.0,0.0,0.0,0.0,0.0,3.5952,3.5952,3.5952,3.5952,3.5952,3.5551,3.5271,3.5525,3.5497,3.5603,0.0,0.0,0.0,0.0,0.0,0.0,4.3904,4.6982,4.9714,5.1834,5.1992,5.1836,5.1465,5.1426,5.1426,5.1426,5.1426,5.1426,5.1426,5.1426,0.0,0.0,0.0,0.0,0.0,0.0,0.0,0.0,0.0,0.0,0.0,0.0,0.0,0.0,0.0,0.0,0.0,0.0,0.0,0.0,0.0,0.0,0.0,0.0,0.0,0.0,0.0,0.0,0.0,1.6666,1.6781,1.687,1.6937,1.7012,0.0,0.0,0.0,0.0,0.0,0.0,0.0,0.0,0.0,2.0262,2.0372,2.1664,2.4589,2.6313,2.836,3.0952,3.2573,3.3989,3.5191,3.5191,3.5191,3.5191,3.5191,3.5191,3.5191,3.5191,3.5191,3.5191,0.0,0.0,0.0,0.0,3.5191,3.5217,3.5378,3.5431,3.5471,3.5631,0.0,0.0,0.0,0.0,0.0,0.0,0.0,3.6072,3.6072,3.6072,3.6072,3.6072,3.6072,3.6046,3.606,3.5912,3.5725,3.5859,3.5859,3.5925,3.6071,3.6072,0.0,0.0,0.0,4.0529,4.1822,4.5806,4.8908,4.9971,5.1509,5.2363,5.2168,5.1933,5.1797,5.1797,5.1562,5.1426,5.1426,5.1426,5.1426,0.0,0.0,0.0,0.0,0.0,0.0,0.0,0.0,0.0,0.0,0.0,0.0,0.0,0.0,0.0,0.0,0.0,0.0,0.0,0.0,0.0,0.0,0.0,0.0,0.0,0.0,0.0,0.0,1.6781,1.6849,1.6965,1.7012,1.7073,0.0,0.0,0.0,0.0,0.0,0.0,1.786,1.786,1.8832,2.1023,2.1132,2.253,2.5339,2.6843,2.836,2.9765,3.1935,3.3341,3.4108,3.4874,3.5191,3.5191,3.5191,3.5244,3.5297,3.5231,3.5244,3.5311,3.5311,3.5351,3.5418,3.5418,3.5418,3.5458,3.5672,3.5738,3.5778,3.6006,3.6126,3.6179,3.6179,0.0,0.0,0.0,0.0,3.6286,3.6286,3.6286,3.6286,3.6286,3.6286,3.6259,3.6342,3.6314,3.6259,3.6166,3.6151,3.6271,3.6268,3.6271,0.0,3.6337,3.7954,3.9855,4.1332,4.509,4.8296,4.9653,5.163,5.2832,5.2715,5.2422,5.2187,5.209,5.1777,5.1543,5.1445,5.1426,5.1426,5.1426,0.0,0.0,0.0,0.0,0.0,0.0,0.0,0.0,0.0,0.0,0.0,0.0,0.0,0.0,0.0,0.0,0.0,0.0,0.0,0.0,0.0,0.0,0.0,0.0,0.0,0.0,0.0,0.0,0.0,1.6978,1.71,0.0,0.0,0.0,0.0,1.765,1.7772,1.786,1.786,1.786,1.7977,1.8074,1.8074,1.95,2.242,1.9823,2.1335,2.6745,2.6853,2.836,3.1166,3.3989,3.5191,3.5191,3.5191,3.5351,3.5591,3.5311,3.5364,3.5605,3.5605,3.5778,3.6032,3.6032,3.6032,3.6032,3.6046,3.6046,3.6059,3.6072,3.6259,3.6473,3.6473,3.6687,0.0,0.0,3.6901,3.6901,3.6901,3.6901,3.6901,3.6901,3.6901,3.6901,3.6874,3.6901,3.6794,3.6556,3.6475,3.6596,3.6834,0.0,3.6901,3.6901,3.6998,3.9047,4.4563,4.5521,4.7617,5.2633,5.332,5.3164,5.2754,5.2695,5.2519,5.2109,5.207,5.1855,5.1445,5.1426,5.1426,5.1426,5.1426,0.0,0.0,0.0,0.0,0.0,0.0,0.0,0.0,0.0,0.0,0.0,0.0,0.0,0.0,0.0,0.0,0.0,0.0,0.0,0.0,0.0,0.0,0.0,0.0,0.0,0.0,0.0,0.0,1.6978,1.7107,0.0,1.7331,1.7528,1.7684,1.7772,1.7826,1.786,1.786,1.786,1.786,1.786,1.786,1.8412,1.9383,2.0262,2.1664,2.3828,2.75,2.8897,2.8253,3.3023,3.4318,3.2751,3.4606,3.5645,3.5912,3.5805,3.5819,3.5912,3.5912,3.5979,3.6072,3.6072,3.6072,3.6099,3.6286,3.6353,3.638,3.658,3.6687,3.6794,3.6794,3.6861,3.6941,3.6941,3.6941,3.6941,3.6941,3.6941,3.6941,3.6941,3.6941,3.6941,3.6941,3.6941,3.6901,3.6767,3.6727,3.6794,3.6901,3.6941,3.6941,3.6941,3.6941,3.7591,3.9718,4.3235,4.6263,4.8158,5.1547,5.373,5.3574,5.3301,5.3066,5.291,5.2637,5.2285,5.1875,5.1973,5.1836,5.1445,5.1426,5.1426,0.0,0.0,0.0,0.0,0.0,0.0,0.0,0.0,0.0,0.0,0.0,0.0,0.0,0.0,0.0,0.0,0.0,0.0,0.0,0.0,0.0,0.0,0.0,0.0,0.0,1.6978,1.6998,1.7046,1.7182,1.7331,1.748,1.7629,1.7758,1.786,1.786,1.786,1.786,1.786,1.786,1.786,1.786,1.786,1.786,1.9823,2.0701,2.0811,2.5664,2.75,2.6637,3.1605,3.3488,3.2899,3.4854,3.5952,3.6219,3.6219,3.6273,3.6353,3.6259,3.6273,3.6366,3.6366,3.6366,3.6393,3.658,3.6647,3.6687,3.6861,3.6941,3.6941,3.6941,3.6941,3.6941,3.6941,3.6941,3.6941,3.6941,3.6941,3.6941,3.6941,3.6941,3.6941,3.6941,3.6941,3.6941,3.6941,3.6941,3.6941,3.6941,3.6941,3.6941,3.6941,3.6941,3.7246,3.8225,4.2497,4.5889,4.6842,5.1133,5.4023,5.4023,5.375,5.3516,5.3379,5.3086,5.2734,5.2305,5.2285,5.1972,5.1406,5.1387,5.1426,5.1426,0.0,0.0,0.0,0.0,0.0,0.0,0.0,0.0,0.0,0.0,0.0,0.0,0.0,0.0,0.0,0.0,0.0,0.0,0.0,0.0,0.0,0.0,0.0,1.6978,1.6985,1.7039,1.7175,1.7331,1.7487,1.7629,1.7772,1.786,1.786,1.786,1.786,1.786,1.786,1.786,1.786,1.786,1.786,1.786,1.786,1.786,1.7977,2.0905,2.3729,2.6539,2.993,3.2899,3.5565,3.5965,3.6246,3.6513,3.6513,3.6687,3.6901,3.662,3.6687,3.6941,3.6941,3.6941,3.6941,3.6941,3.6941,3.6941,3.6941,3.6941,3.6941,3.6941,3.6941,3.6941,3.6941,3.6941,3.6941,3.6941,3.6941,3.6941,3.6941,3.6941,3.6941,3.6941,3.6941,3.6941,3.6941,3.6941,3.6941,3.6941,3.6941,3.6941,3.6941,3.6941,0.0,4.0685,4.3557,4.6419,4.9293,5.2184,5.3921,5.4023,5.4023,5.3848,5.3418,5.3379,5.3183,5.2754,5.2476,5.2006,5.1423,5.1406,5.1445,5.1426,0.0,0.0,0.0,0.0,0.0,0.0,0.0,0.0,0.0,0.0,0.0,0.0,0.0,0.0,0.0,0.0,0.0,0.0,0.0,0.0,0.0,1.6978,1.6978,1.6978,1.7066,1.7148,1.7188,1.7426,1.7602,1.765,1.7772,1.786,1.786,1.786,1.786,1.786,1.786,1.786,1.786,1.786,1.786,1.786,1.786,1.786,1.7977,2.2957,2.4773,2.3946,3.1102,3.3988,3.3261,3.5441,3.654,3.6834,3.6834,3.6861,3.6941,3.6861,3.6861,3.6941,3.6941,3.6941,3.6941,3.6941,3.6941,3.6941,3.6941,3.6941,3.6941,3.6941,3.6941,3.6941,3.6941,3.6941,3.6941,3.6941,3.6941,3.6941,3.6941,3.6941,3.6941,3.6941,3.6941,3.6941,3.6941,3.6941,3.6941,3.6941,3.6941,3.6941,3.6941,3.6941,3.7162,3.8004,4.0576,4.345,4.6313,4.9206,5.1772,5.3819,5.4023,5.3984,5.3848,5.3848,5.3633,5.3063,5.3323,5.2832,5.1442,5.1424,5.1367,0.0,0.0,0.0,0.0,0.0,0.0,0.0,0.0,0.0,0.0,0.0,0.0,0.0,0.0,0.0,0.0,0.0,0.0,0.0,0.0,0.0,0.0,1.7032,1.7066,1.7066,1.7141,1.7243,1.7365,1.7541,1.767,1.7738,1.7812,1.786,1.786,1.786,1.786,1.786,1.786,1.786,1.786,1.786,1.786,1.786,1.786,1.786,1.7977,2.1315,2.2811,2.2711,2.9262,3.2177,3.2254,3.5384,3.6794,3.6941,3.6941,3.6941,3.6941,0.0,0.0,0.0,0.0,3.6941,3.6941,3.6941,3.6941,3.6941,3.6941,3.6941,3.6941,3.6941,3.6941,3.6941,3.6941,3.6941,3.6941,3.6941,3.6941,3.6941,3.6941,3.6941,3.6941,3.6941,3.6941,3.6941,3.6941,3.6941,0.0,3.6941,3.6941,3.6941,3.6941,3.6941,3.6941,3.6941,3.939,4.2281,4.5145,4.8018,5.0908,5.3717,5.4023,0.0,0.0,0.0,5.3906,5.3531,5.3858,0.0,0.0,0.0,5.2345,5.1973,5.1797,0.0,0.0,5.1523,5.1426,0.0,0.0,0.0,0.0,0.0,0.0,0.0,0.0,0.0,0.0,0.0,0.0,0.0,0.0,0.0,0.0,1.71,1.7195,1.7216,1.7236,1.7344,1.7616,1.7663,1.7717,1.7846,1.786,1.786,1.786,1.786,1.786,1.786,1.786,0.0,0.0,0.0,1.786,1.786,1.786,1.786,1.786,1.835,1.996,2.2523,2.6315,2.9542,3.2277,3.5455,3.6941,3.6941,3.6941,3.6941,3.6941,3.6941,3.6941,3.6941,3.6941,3.6941,3.6941,3.6941,0.0,0.0,3.6941,3.6941,3.6941,3.6941,3.6941,3.6941,3.6941,3.6941,3.6941,3.6941,3.6941,3.6941,3.6941,3.6941,3.6941,3.6941,3.6941,3.6941,3.6941,3.6941,3.6941,3.6941,3.6941,3.6941,3.6941,3.6941,3.6941,3.6941,3.9089,4.1956,4.5145,4.7703,0.0,5.3717,5.4023,5.4023,5.4023,5.4023,5.4023,5.4023,5.4035,5.3959,5.402,5.4045,5.3568,5.2853,5.2482,5.2286,5.2148,5.166,5.1426,0.0,0.0,0.0,0.0,0.0,0.0,0.0,0.0,0.0,0.0,0.0,0.0,0.0,0.0,0.0,1.6978,1.71,1.7236,1.7358,1.748,1.7582,1.754,1.7758,1.7826,1.786,1.786,1.786,1.786,1.786,1.786,1.786,1.786,1.786,1.786,1.786,1.786,1.786,1.786,1.786,1.7977,2.0416,0.0,2.2941,2.8613,3.1547,3.2526,3.5558,3.6941,3.6941,3.6941,3.6941,3.6941,3.6941,3.6941,3.6941,3.6941,3.6941,3.6941,3.6941,3.6941,3.6941,3.6941,3.6941,3.6941,3.6941,3.6941,0.0,3.6941,3.6941,3.6941,3.6941,3.6941,3.6941,3.6941,3.6941,3.6941,3.6941,3.6941,3.6941,3.6941,3.6941,3.6941,3.6941,3.6941,3.6941,3.6941,3.6941,3.6941,3.6941,3.737,3.9718,4.4932,4.5995,4.8351,5.3595,5.4023,5.4023,5.4023,5.4023,5.4023,5.4023,5.3965,5.3992,5.402,5.3961,5.3864,5.3767,5.3013,5.2598,5.2578,5.1797,5.1426,0.0,0.0,0.0,0.0,0.0,0.0,0.0,0.0,0.0,0.0,0.0,1.6978,1.6978,0.0,1.7005,1.7073,1.7209,1.7358,1.7514,1.767,1.7758,1.7758,1.7826,1.786,1.786,1.786,1.786,1.786,1.786,1.786,1.786,1.786,1.786,1.786,1.786,1.786,1.786,1.786,1.7901,1.7989,1.9558,2.0507,2.0879,2.5563,2.8553,3.0351,3.3304,3.5459,3.6941,3.6941,3.6941,3.6941,3.6941,3.6941,3.6941,3.6941,3.6941,3.6941,3.6941,3.6941,3.6941,3.6941,3.6941,3.6941,3.6941,3.7048,3.7155,3.7155,3.7208,3.7386,3.7342,3.7323,3.7363,3.7296,3.7382,3.7382,3.7382,3.7382,3.7342,3.7195,3.7155,3.7128,3.6967,3.6941,3.6941,3.6941,3.6941,3.6941,3.6941,3.6941,3.9089,4.4825,4.5464,4.7826,5.3493,5.4023,5.4023,5.4023,5.4023,5.4023,5.4023,5.4023,5.4047,5.3972,5.3972,5.3995,5.404,5.3404,5.3027,5.3008,5.2363,5.207,0.0,0.0,0.0,0.0,0.0,0.0,0.0,1.1451,1.3569,1.6446,1.6978,1.6978,1.6978,1.6978,1.7026,1.7168,1.7317,1.7473,1.7629,1.7772,1.786,1.786,1.786,1.786,1.786,1.786,1.786,1.786,1.786,1.786,1.786,1.786,1.786,1.786,1.786,1.786,1.786,1.786,1.7935,1.8091,1.8247,1.8389,1.8646,2.1876,2.4675,2.7192,3.079,3.3738,3.6015,3.6608,3.6941,3.6941,3.6941,3.6941,3.6941,3.6941,3.6941,3.6941,3.6941,3.6941,3.6941,3.7008,3.7008,3.7048,3.7088,3.7275,3.7489,3.7515,3.7681,3.7762,3.7809,3.7829,3.7742,3.7849,3.7809,3.7809,3.7809,3.7809,3.7742,3.7529,3.7462,3.7382,3.7155,3.7048,3.7008,3.6941,3.6941,3.6941,3.6941,3.6941,3.9089,4.4825,4.5202,4.7423,5.3493,5.4023,5.4023,5.4023,5.4023,5.4023,5.4023,5.4023,5.4023,5.4023,5.4023,5.4023,5.4023,5.3672,5.3496,5.3476,5.3125,5.2871,0.0,0.0,0.1257,0.6272,0.59,0.6258,0.0,1.4312,1.3569,1.6446,1.6978,1.6978,1.6978,1.6978,1.7026,1.7168,1.7317,1.7473,1.7629,1.7772,1.786,1.786,1.786,1.786,1.786,1.786,1.786,1.786,1.786,1.786,1.786,1.786,1.786,1.786,1.786,1.786,1.786,1.786,1.7935,1.8091,1.8247,1.8389,1.8646,2.1876,2.3441,2.412,2.9889,3.2597,3.3068,3.5806,3.6941,3.6941,3.6941,3.6941,3.6941,3.6941,3.6941,3.6941,3.6941,3.6941,3.6981,3.7235,3.7342,3.7382,3.7635,3.7742,3.7809,3.7715,3.7789,3.7809,3.7782,3.7829,3.7849,3.7809,3.7809,3.7809,3.7809,3.7809,3.7809,3.7782,3.7782,3.7742,3.7702,3.7489,3.7235,3.6981,3.6941,3.6941,3.6941,3.6941,3.9089,4.4825,4.3928,4.5889,5.3352,5.4023,5.4023,5.4023,5.4023,5.4023,5.4023,5.4023,5.4023,5.4023,5.4023,5.4023,5.4023,5.3984,5.3965,5.3945,5.3906,5.3457,0.0,0.0,0.0526,0.2939,0.3909,0.5629,1.0817,1.24,1.3569,1.6446,1.6978,1.6978,1.6978,1.7046,1.7154,1.7304,1.7453,1.7602,1.7758,1.7826,1.786,1.786,1.786,1.786,1.786,1.786,1.786,1.786,1.786,1.786,1.786,1.786,1.786,1.786,1.786,1.786,1.786,1.786,1.7989,1.8233,1.8287,1.8443,1.8674,2.0102,2.161,2.3662,2.9765,3.2385,3.2597,3.5669,3.6941,3.6941,3.6941,3.6941,3.6941,3.6941,3.6941,3.6941,3.6941,3.7048,3.7235,3.7342,3.7489,3.7635,3.7762,3.7976,3.8076,3.8103,3.821,3.8357,3.8309,3.8269,3.8357,3.8357,3.8357,3.8357,3.8357,3.8357,3.829,3.8103,3.8076,3.7996,3.7849,3.7702,3.7595,3.7448,3.7155,3.6941,3.6941,3.6941,3.9089,4.4825,4.7736,5.0553,5.3717,5.4023,5.4023,5.4023,5.4023,5.4023,5.4023,5.4023,5.4023,5.4023,5.4023,5.4023,5.4023,5.4023,5.4023,5.4023,5.4023,5.3828,0.0,0.0,0.0211,0.095,0.2648,0.5207,0.8805,1.1235,1.3569,1.6446,1.6978,1.6978,1.6978,1.71,1.7243,1.7399,1.7548,1.7704,1.7846,1.786,1.786,1.786,1.786,1.786,1.786,1.786,1.786,1.786,1.786,1.786,1.786,1.786,1.786,1.786,1.786,1.786,1.786,1.7901,1.8057,1.8321,1.8355,1.8511,1.8762,1.8762,2.0023,2.2407,2.8543,3.115,3.1487,3.5335,3.6941,3.6941,3.6941,3.6941,3.6941,3.7008,3.7048,3.7048,3.7048,3.7261,3.7529,3.7595,3.7742,3.7903,3.7989,3.8231,3.837,3.8418,3.8517,3.8718,3.8718,3.8718,3.8718,3.8718,3.8718,3.8718,3.8718,3.8718,3.8651,3.8437,3.8397,3.833,3.8103,3.7996,3.7929,3.7929,3.7403,3.7043,3.7088,3.6998,3.8468,4.2725,4.9704,5.3963,5.3989,5.4019,5.4023,5.4023,5.4023,5.4023,5.4023,5.4023,5.4023,5.4023,5.4023,5.4023,5.4023,5.4023,5.4023,5.4023,5.4023,5.4023,0.0,0.0,0.0639,0.3401,0.4145,0.5629,1.1341,1.2611,1.3569,1.6446,1.6978,1.6978,1.6978,1.71,1.7243,1.7399,1.7548,1.7704,1.7846,1.786,1.786,1.786,1.786,1.786,1.786,1.786,1.786,1.786,1.786,1.786,1.786,1.786,1.786,1.786,1.786,1.786,1.786,1.8002,1.8158,1.8321,1.8464,1.8599,1.8762,1.8762,1.8878,1.9226,2.5379,2.7987,2.8543,3.4445,3.6941,3.6941,3.6941,3.6941,3.6981,3.7275,3.7382,3.7382,3.7382,3.7555,3.7849,3.8143,3.8311,3.8311,3.8584,3.8691,3.8718,3.8718,3.8718,3.8718,3.8718,3.8718,3.8718,3.8718,3.8718,3.8718,3.8718,3.8718,3.8718,3.8718,3.8718,3.8718,3.8691,3.8437,3.825,3.825,3.7869,3.7536,3.7534,3.718,3.6965,3.7182,4.7224,5.4013,5.3993,5.4028,5.4023,5.4023,5.4023,5.4023,5.4023,5.4023,5.4023,5.4023,5.4023,5.4023,5.4023,5.4023,5.4023,5.4023,5.4023,5.4023,0.0,0.0,0.0213,0.1171,0.2766,0.4676,0.6581,0.8593,1.0179,1.1134,1.1345,1.2002,1.3996,1.4434,1.5218,1.7215,1.7704,1.7812,1.786,1.786,1.786,1.786,1.786,1.786,1.786,1.786,1.786,1.786,1.786,1.786,1.786,1.786,1.786,1.786,1.786,1.786,1.786,1.8023,1.8165,1.8321,1.8565,1.8708,1.8762,1.8762,1.8762,1.9103,2.5255,2.7874,2.8327,3.4445,3.6941,3.6941,3.6941,3.6941,3.6981,3.7275,3.7489,3.7676,3.7676,3.7849,3.8116,3.8271,3.8458,3.8544,3.8691,3.8718,3.8718,3.8718,3.8718,3.8718,3.8718,3.8718,3.8718,3.8718,3.8718,3.8718,3.8718,3.8718,3.8718,3.8718,3.8718,3.8718,3.8718,3.8651,3.8584,3.8584,3.8002,3.7403,3.7158,3.7011,3.6874,3.6909,4.0375,4.5694,5.3311,5.3963,5.4002,5.3941,5.4023,5.4023,5.4023,5.4023,5.4023,5.4023,5.4023,5.4023,5.4023,5.4023,5.4023,5.4023,5.4023,5.4023,0.0,0.0,0.0,0.0,0.1384,0.2979,0.3934,0.5629,0.7217,0.8276,0.8487,0.9038,1.1045,1.2336,1.3863,1.5742,1.7092,1.786,1.786,1.786,1.786,1.786,1.786,1.786,1.786,1.786,1.786,1.786,1.786,1.786,1.786,1.786,1.786,1.786,1.786,1.786,1.786,1.8077,1.8267,1.8477,1.8674,1.8762,1.8762,1.8762,1.8762,1.9103,2.5255,2.7874,2.8327,3.4445,3.6941,3.6941,3.6941,3.7008,3.7128,3.7422,3.7716,3.7969,3.7969,3.8183,3.8397,3.8485,3.8517,3.8718,3.8718,3.8718,3.8718,3.8718,3.8718,3.8718,3.8718,3.8718,3.8718,3.8718,3.8718,3.8718,3.8718,3.8718,3.8718,3.8718,3.8718,3.8718,3.8718,3.8718,3.8718,3.8718,3.8269,3.7848,3.7615,3.7576,3.7382,3.6941,3.6949,3.9913,4.7241,5.1621,5.3413,5.2025,5.323,5.4023,5.4023,5.4023,5.4023,5.4023,5.4023,5.4023,5.4023,5.4023,5.4023,5.4023,5.4023,5.4023,0.0,0.0,0.0,0.0,0.0,0.0746,0.3403,0.3934,0.4782,0.7535,0.8064,0.8087,0.8268,1.0827,1.299,1.3216,1.5882,1.786,1.786,1.786,1.786,1.786,1.786,1.786,1.786,1.786,1.786,1.786,1.786,1.786,1.786,1.786,1.786,1.786,1.786,1.786,1.786,1.8165,1.8464,1.8762,1.8762,1.8762,1.8762,1.8762,1.8762,1.9103,2.5132,2.7647,2.809,3.4222,3.6719,3.6719,3.6817,3.7128,3.7422,3.7702,3.7996,3.8263,3.829,3.8477,3.8718,3.8718,3.8718,3.8718,3.8718,3.8718,3.8718,3.8718,3.8718,3.8718,3.8718,3.8718,3.8718,3.8718,3.8718,3.8718,3.8718,3.8718,3.8718,3.8718,3.8718,3.8718,3.8718,3.8718,3.8718,3.8718,3.8718,3.874,3.8715,3.8687,3.8262,3.7072,3.6981,3.7195,3.7713,4.7505,5.2155,4.8748,5.1987,5.4023,5.4023,5.4023,5.4023,5.4023,5.4023,5.4023,5.4023,5.4023,5.4023,5.4023,5.4023,5.4023,0.0,0.0,0.0,0.0,0.0,0.0213,0.0959,0.1065,0.1278,0.2022,0.2128,0.2885,0.5093,0.7936,1.0716,1.2987,1.593,1.786,1.786,1.786,1.786,1.786,1.786,1.786,1.786,1.786,1.786,1.786,1.786,1.786,1.786,1.786,1.786,1.786,1.786,1.786,1.786,1.8165,1.8464,1.8762,1.8762,1.8762,1.8762,1.8762,1.8762,1.898,2.2859,2.4464,2.4921,3.1026,3.3527,3.3738,3.6015,3.7128,3.7422,3.7702,3.7996,3.829,3.8504,3.8651,3.8718,3.8718,3.8718,3.8718,3.8718,3.8718,3.8718,3.8718,3.8718,3.8718,3.8718,3.8718,3.8718,3.8718,3.8718,3.8718,3.8718,3.8718,3.8718,3.8718,3.8718,3.8718,3.8718,3.8718,3.8718,3.8718,3.8718,3.8691,3.874,3.8715,3.8614,3.8291,3.745,4.0394,4.8894,4.8462,4.9054,5.2371,5.3454,5.4023,5.4023,5.4023,5.4023,5.4023,5.4023,5.4023,5.4023,5.4023,5.4023,5.4023,5.4023,5.4023,0.0,0.0,0.0,0.0,0.0,0.0,0.0,0.0,0.0,0.0,0.0,0.0535,0.2166,0.5977,0.94,1.1184,1.5028,1.786,1.786,1.786,1.786,1.786,1.786,1.786,1.786,1.786,1.786,1.786,1.786,1.786,1.786,1.786,1.786,1.786,1.786,1.7935,1.8057,1.8233,1.8464,1.8762,1.8762,1.8762,1.8762,1.8762,1.956,2.0925,2.2522,2.4798,2.7503,3.1026,3.318,3.4531,3.6263,3.7195,3.7595,3.7788,3.8123,3.8477,3.8651,3.8718,3.8718,3.8718,3.8718,3.8718,3.8718,3.8718,3.8718,3.8718,3.8718,3.8718,3.8718,3.8718,3.8718,3.8718,3.8718,3.8718,3.8718,3.8718,3.8718,3.8718,3.8718,3.8718,3.8718,3.8718,3.8718,3.8718,3.8718,3.8718,3.8718,3.8713,3.8667,3.8648,3.8103,4.025,4.6784,4.5746,4.644,5.0516,5.1731,5.292,5.4214,5.4141,5.4023,5.4023,5.4023,5.4023,5.4023,5.4023,5.4023,5.4023,5.4023,5.4023,0.0,0.0,0.0,0.0,0.0,0.0,0.0,0.0,0.0,0.0,0.0,0.0,0.0,0.4553,0.8406,0.8811,1.3649,1.7405,1.786,1.786,1.786,1.786,1.786,1.786,1.786,1.786,1.786,1.786,1.786,1.786,1.786,1.786,1.786,1.786,1.786,1.8002,1.8321,1.8321,1.8464,1.8762,1.8762,1.8762,1.8762,1.8762,2.0247,2.2645,2.2645,2.593,3.124,3.1588,3.3527,3.6347,3.6693,3.7275,3.7756,3.7762,3.8204,3.8718,3.8718,3.8718,3.8718,3.8718,3.8718,3.8718,3.8718,3.8718,3.8718,3.8718,3.8718,3.8718,3.8718,3.8718,3.8718,3.8718,3.8718,3.8718,3.8718,3.8718,3.8718,3.8718,3.8718,3.8718,3.8718,3.8718,3.8718,3.8718,3.8718,3.8718,3.8718,3.8718,3.874,3.8742,3.8715,3.8695,3.871,4.1879,4.4743,4.7039,4.9104,5.1609,5.4643,5.4394,5.4199,5.4199,5.4199,5.4199,5.4199,5.4199,5.4199,5.4199,5.4199,5.4199,0.0,0.0,0.0,0.0,0.0,0.0,0.0,0.0,0.0,0.0,0.0,0.0,0.0,0.293,0.6008,0.8478,1.1877,1.5068,1.7522,1.786,1.786,1.786,1.786,1.786,1.786,1.786,1.786,1.786,1.786,1.786,1.786,1.786,1.786,1.786,1.786,1.8002,1.8321,1.8321,1.8464,1.8762,1.8762,1.8762,1.8762,1.8762,1.9103,1.9567,1.9567,2.1602,2.5132,2.7626,3.0474,3.3403,3.593,3.7319,3.7848,3.7829,3.8183,3.8718,3.8718,3.8718,3.8718,3.8718,3.8718,3.8718,3.8718,3.8718,3.8718,3.8718,3.8718,3.8718,3.8718,3.8718,3.8718,3.8718,3.8718,3.8718,3.8718,3.8718,3.8718,3.8718,3.8718,3.8718,3.8718,3.8718,3.8718,3.8718,3.8718,3.8718,3.8718,3.8718,3.8691,3.8664,3.8664,3.8742,3.8701,4.1787,4.563,4.9776,5.0438,5.2033,5.5091,5.5137,5.5078,5.5078,5.5078,5.5078,5.5078,5.5078,5.5078,5.5078,5.5078,5.5078,0.0,0.0,0.0,0.0,0.0,0.0,0.0,0.0,0.0,0.0,0.0,0.0,0.0,0.2489,0.4913,0.6355,1.0404,1.3954,1.5395,1.6858,1.786,1.786,1.786,1.786,1.786,1.786,1.786,1.786,1.786,1.786,1.786,1.786,1.786,1.786,1.786,1.8002,1.8321,1.8321,1.8464,1.8762,1.8762,1.8762,1.8762,1.8762,1.9683,2.1048,1.9444,2.2284,2.808,2.7987,3.0576,3.4878,3.6387,3.7235,3.7802,3.7782,3.821,3.8718,3.8718,3.8718,3.8718,3.8718,3.8718,3.8718,3.8718,3.8718,3.8718,3.8718,3.8718,3.8718,3.8718,3.8718,3.8718,3.8718,3.8718,3.8718,3.8718,3.8718,3.8718,3.8718,3.8718,3.8718,3.8718,3.8718,3.8718,3.8718,3.8718,3.8718,3.8718,3.8718,3.8718,3.8718,3.8718,3.8713,3.8735,4.0146,4.3399,4.8779,4.8935,5.0903,5.5415,5.543,5.5312,5.5312,5.5312,5.5312,5.5312,5.5312,5.5312,5.5312,5.5312,5.5312,0.0,0.0,0.0,0.0,0.0,0.0,0.0,0.0,0.0,0.0,0.0,0.0,0.0,0.1943,0.3709,0.4362,0.8948,1.2612,1.3278,1.596,1.786,1.786,1.786,1.786,1.786,1.786,1.786,1.786,1.786,1.786,1.786,1.786,1.786,1.786,1.786,1.8002,1.8321,1.8321,1.8464,1.8762,1.8762,1.8762,1.8762,1.8762,2.0139,2.2185,1.9784,2.3662,3.124,2.8883,3.1487,3.6941,3.6941,3.7301,3.7809,3.7809,3.821,3.8718,3.8718,3.8718,3.8718,3.8718,3.8718,3.8718,3.8718,3.8718,3.8718,3.8718,3.8718,3.8718,3.8718,3.8718,3.8718,3.8718,3.8718,3.8718,3.8718,3.8718,3.8718,3.8718,3.8718,3.8718,3.8718,3.8718,3.8718,3.8718,3.8718,3.8718,3.8718,3.8718,3.8718,3.8718,3.8718,3.8718,3.8718,3.8718,4.0958,4.6302,4.6396,4.8882,5.4847,5.4753,5.4916,5.5586,5.5586,5.5586,5.5586,5.5586,5.5586,5.5586,5.5586,5.5586,0.0,0.0,0.0,0.0,0.0,0.0,0.0,0.0,0.0,0.0,0.0,0.0,0.0,0.0216,0.1312,0.4037,0.7181,1.0269,1.3051,1.596,1.786,1.786,1.786,1.786,1.786,1.786,1.786,1.786,1.786,1.786,1.786,1.786,1.786,1.786,1.786,1.8002,1.8321,1.8321,1.8464,1.8762,1.8762,1.8762,1.8762,1.8762,1.9001,1.9219,1.8885,2.2407,2.8327,2.7987,3.1487,3.6941,3.6941,3.7301,3.7809,3.7809,3.821,3.8718,3.8718,3.8718,3.8718,3.8718,3.8718,3.8718,3.8718,3.8718,3.8718,3.8718,3.8718,3.8718,3.8718,3.8718,3.8718,3.8718,3.8718,3.8718,3.8718,3.8718,3.8718,3.8718,3.8718,3.8718,3.8718,3.8718,3.8718,3.8718,3.8718,3.8718,3.8718,3.8718,3.8718,3.8718,3.8718,3.8718,3.8718,3.8718,4.0051,4.3429,4.3611,4.6254,5.2164,5.2454,5.3665,5.6465,5.6465,5.6465,5.6465,5.6465,5.6465,5.6465,5.6465,5.6465,0.0,0.0,0.0,0.0,0.0,0.0,0.0,0.0,0.0,0.0,0.0,0.0,0.0,0.0,0.0438,0.1639,0.5747,0.9271,1.0496,1.4847,1.786,1.786,1.786,1.786,1.786,1.786,1.786,1.786,1.786,1.786,1.786,1.786,1.786,1.786,1.786,1.8002,1.8321,1.8321,1.8464,1.8762,1.8762,1.8762,1.8762,1.8762,1.8762,1.8762,1.8762,2.23,2.7874,2.7944,3.1454,3.6941,3.6941,3.7301,3.7809,3.7829,3.8162,3.8718,3.8718,3.8718,3.8718,3.8718,3.8718,3.8718,3.8718,3.8718,3.8718,3.8718,3.8718,3.8718,3.8718,3.8718,3.8718,3.8718,3.8718,3.8718,3.8718,3.8718,3.8718,3.8718,3.8718,3.8718,3.8718,3.8718,3.8718,3.8718,3.8718,3.8718,3.8718,3.8718,3.8718,3.8718,3.8718,3.8718,3.8718,3.8718,3.995,4.2988,4.4871,4.7788,5.189,5.3885,5.5345,5.6582,5.6582,5.6582,5.6582,5.6582,5.6582,5.6582,5.6582,5.6582,0.0,0.0,0.0,0.0,0.0,0.0,0.0,0.0,0.0,0.0,0.0,0.0,0.0,0.0,0.0,0.0,0.4316,0.7931,0.8819,1.3278,1.6858,1.7749,1.786,1.786,1.786,1.786,1.786,1.786,1.786,1.786,1.786,1.786,1.786,1.786,1.786,1.8002,1.8321,1.8321,1.8464,1.8762,1.8762,1.8762,1.8762,1.8762,1.8762,1.8762,1.8762,2.2209,2.7944,2.7881,3.1488,3.6941,3.6941,3.7216,3.7802,3.7742,3.8189,3.8718,3.8718,3.8718,3.8718,3.8718,3.8718,3.8718,3.8718,3.8718,3.8718,3.8718,3.8718,3.8718,3.8718,3.8718,3.8718,3.8718,3.8718,3.8718,3.8718,3.8718,3.8718,3.8718,3.8718,3.8718,3.8718,3.8718,3.8718,3.8718,3.8718,3.8718,3.8718,3.8718,3.8718,3.8718,3.8718,3.8718,3.8718,3.8718,3.9631,4.1761,4.4645,4.766,5.0667,5.3669,5.5686,5.6582,5.6582,5.6582,5.6582,5.6582,5.6582,5.6582,5.6582,5.6582,0.0,0.0,0.0,0.0,0.0,0.0,0.0,0.0,0.0,0.0,0.0,0.0,0.0,0.0,0.0,0.0,0.2547,0.559,0.8485,1.1497,1.4503,1.7522,1.786,1.786,1.786,1.786,1.786,1.786,1.786,1.786,1.786,1.786,1.786,1.786,1.786,1.8002,1.8321,1.8321,1.8464,1.8762,1.8762,1.8762,1.8762,1.8762,1.8762,1.8762,1.8762,2.225,2.7951,2.7914,3.1487,3.6941,3.6941,3.7283,3.7808,3.7762,3.821,3.8718,3.8718,3.8718,3.8718,3.8718,3.8718,3.8718,3.8718,3.8718,3.8718,3.8718,3.8718,3.8718,3.8718,3.8718,3.8718,3.8718,3.8718,3.8718,3.8718,3.8718,3.8718,3.8718,3.8718,3.8718,3.8718,3.8718,3.8718,3.8718,3.8718,3.8718,3.8718,3.8718,3.8718,3.8718,3.8718,3.8718,3.8718,3.8718,3.8731,3.8731,4.1532,4.4517,4.7516,5.0539,5.356,5.6582,5.6582,5.6582,5.6582,5.6582,5.6582,5.6582,5.6582,5.6582,0.0,0.0,0.0,0.0,0.0,0.0,0.0,0.0,0.0,0.0,0.0,0.0,0.0,0.0,0.0,0.0,0.2547,0.5478,0.8485,1.1497,1.4503,1.7522,1.786,1.786,1.786,1.786,1.786,1.786,1.786,1.786,1.786,1.786,1.786,1.786,1.786,1.8002,1.8321,1.8321,1.8464,1.8762,1.8762,1.8762,1.8762,1.8762,1.8762,1.8762,1.8762,2.1064,2.4967,2.6974,3.0227,3.3986,3.6139,3.7216,3.7762,3.7849,3.821,3.8718,3.8718,3.8718,3.8718,3.8718,3.8718,3.8718,3.8718,3.8718,3.8718,3.8718,3.8718,3.8718,3.8718,3.8718,3.8718,3.8718,3.8718,3.8718,3.8718,3.8718,3.8718,3.8718,3.8718,3.8718,3.8718,3.8718,3.8718,3.8718,3.8718,3.8718,3.8718,3.8718,3.8718,3.8718,3.8718,3.8718,3.8718,3.8718,3.8718,3.8718,4.3429,4.5757,4.4645,5.1435,5.4679,5.356,5.5579,5.6582,5.6582,5.6582,5.6582,5.6582,5.6582,5.6582,0.0,0.0,0.0,0.0,0.0,0.0,0.0,0.0,0.0,0.0,0.0,0.0,0.0,0.0,0.0,0.0,0.1555,0.4251,0.838,1.0496,1.3273,1.7405,1.786,1.786,1.786,1.786,1.786,1.786,1.786,1.786,1.786,1.786,1.786,1.786,1.786,1.8002,1.8321,1.8321,1.8464,1.8762,1.8762,1.8762,1.8762,1.8762,1.8762,1.8762,1.8762,2.1164,0.0,2.7069,3.0351,3.4321,3.6139,3.7301,3.7809,3.7809,3.821,3.8718,3.8718,3.8718,3.8718,3.8718,3.8718,3.8718,3.8718,3.8718,3.8718,3.8718,3.8718,3.8718,3.8718,3.8718,3.8718,3.8718,3.8718,3.8718,3.8718,3.8718,3.8718,3.8718,3.8718,3.8718,3.8718,3.8718,3.8718,3.8718,3.8718,3.8718,3.8718,3.8718,3.8718,3.8718,3.8718,3.8718,3.8718,3.8718,3.8718,3.8718,4.2143,4.4152,4.3747,4.982,5.289,5.2109,5.3904,5.5452,5.6582,5.6582,5.6582,5.6582,5.6582,5.6582,0.0,0.0,0.0,0.0,0.0,0.0,0.0,0.0,0.0,0.0,0.0,0.0,0.0,0.0,0.0,0.0,0.0,0.2129,0.8042,0.9271,1.1612,1.7197,1.786,1.786,1.786,1.786,1.786,1.786,1.786,1.786,1.786,1.786,1.786,1.786,1.786,1.8002,1.8321,1.8321,1.8464,1.8762,1.8762,1.8762,1.8762,1.8762,1.8762,1.8762,1.8762,2.1971,2.7306,2.774,3.124,3.6263,3.6693,3.7301,3.7809,3.7809,3.821,3.8718,3.8718,3.8718,3.8718,3.8718,3.8718,3.8718,3.8718,3.8718,3.8718,3.8718,3.8718,3.8718,3.8718,3.8718,3.8718,3.8718,3.8718,3.8718,3.8718,3.8718,3.8718,3.8718,3.8718,3.8718,3.8718,3.8718,3.8718,3.8718,3.8718,3.8718,3.8718,3.8718,3.8718,3.8718,3.8718,3.8718,3.8718,3.8718,3.8718,3.8718,3.8648,4.042,4.4179,4.6366,4.8832,5.1527,5.2109,5.3777,5.6582,5.6582,5.6582,5.6582,5.6582,5.6582,0.0,0.0,0.0,0.0,0.0,0.0,0.0,0.0,0.0,0.0,0.0,0.0,0.0,0.0,0.0,0.0,0.0,0.2129,0.8042,1.2824,1.6286,1.7749,1.786,1.786,1.786,1.786,1.786,1.786,1.786,1.786,1.786,1.786,1.786,1.786,1.786,1.8002,1.8321,1.8321,1.8464,1.8762,1.8762,1.8762,1.8762,1.8762,1.8762,1.8762,1.8762,1.9567,2.1264,2.5931,2.8789,3.0474,3.5113,3.7301,3.7809,3.7809,3.821,3.8718,3.8718,3.8718,3.8718,3.8718,3.8718,3.8718,3.8718,3.8718,3.8718,3.8718,3.8718,3.8718,3.8718,3.8718,3.8718,3.8718,3.8718,3.8718,3.8718,3.8718,3.8718,3.8718,3.8718,3.8718,3.8718,3.8718,3.8718,3.8718,3.8718,3.8718,3.8718,3.8718,3.8718,3.8718,3.8718,3.8718,3.8718,3.8718,3.8718,3.8718,3.8648,3.9179,4.0121,4.4961,4.7192,4.6472,5.24,5.5901,5.6582,5.6582,5.6582,5.6582,5.6582,5.6582,0.0,0.0,0.0,0.0,0.0,0.0,0.0,0.0,0.0,0.0,0.0,0.0,0.0,0.1093,0.1653,0.0223,0.2346,0.5702,1.0273,1.4958,1.786,1.786,1.786,1.786,1.786,1.786,1.786,1.786,1.786,1.786,1.786,1.786,1.786,1.786,1.786,1.8002,1.8321,1.8321,1.8464,1.8762,1.8762,1.8762,1.8762,1.8762,1.8762,1.8762,1.8762,2.0441,2.3111,2.5041,2.8245,3.2172,3.411,3.603,3.7809,3.7809,3.821,3.8718,3.8718,3.8718,3.8718,3.8718,3.8718,3.8718,3.8718,3.8718,3.8718,3.8718,3.8718,3.8718,3.8718,3.8718,3.8718,3.8718,3.8718,3.8718,3.8718,3.8718,3.8718,3.8718,3.8718,3.8718,3.8718,3.8718,3.8718,3.8718,3.8718,3.8718,3.8718,3.8718,3.8718,3.8718,3.8718,3.8718,3.8718,3.8718,3.8718,3.8718,3.8735,3.8694,3.8718,4.185,4.4267,4.5992,5.2977,5.6582,5.6582,5.6582,5.6582,5.6582,5.6582,5.6582,0.0,0.0,0.0,0.0,0.0,0.0,0.0,0.0,0.0,0.0,0.0,0.0108,0.0655,0.2419,0.3104,0.1008,0.5255,0.9935,1.294,1.596,1.786,1.786,1.786,1.786,1.786,1.786,1.786,1.786,1.786,1.786,1.786,1.786,1.786,1.786,1.786,1.8002,1.8321,1.8321,1.8464,1.8762,1.8762,1.8762,1.8762,1.8762,1.8762,1.8762,1.8762,2.1777,2.6336,2.4191,2.809,3.5335,3.318,3.4657,3.7809,3.7809,3.821,3.8718,3.8718,3.8718,3.8718,3.8718,3.8718,3.8718,3.8718,3.8718,3.8718,3.8718,3.8718,3.8718,3.8718,3.8718,3.8718,3.8718,3.8718,3.8718,3.8718,3.8718,3.8718,3.8718,3.8718,3.8718,3.8718,3.8718,3.8718,3.8718,3.8718,3.8718,3.8718,3.8718,3.8718,3.8718,3.8718,3.8718,3.8718,3.8718,3.8718,3.8718,3.8718,3.8691,3.874,4.0403,4.3841,4.8871,5.3989,5.6572,5.6582,5.6582,5.6582,5.6582,5.6582,5.6582,0.0,0.0,0.0,0.0,0.0,0.0,0.0,0.0,0.0,0.0,0.0,0.0758,0.3377,0.2089,0.1332,0.3464,0.6704,0.9935,1.294,1.596,1.786,1.786,1.786,1.786,1.786,1.786,1.786,1.786,1.786,1.786,1.786,1.786,1.786,1.786,1.786,1.8002,1.8321,1.8321,1.8464,1.8762,1.8762,1.8762,1.8762,1.8762,1.8762,1.8762,1.8762,1.9321,2.0348,2.2407,2.5712,2.947,3.1588,3.4657,3.7809,3.7809,3.821,3.8718,3.8718,3.8718,3.8718,3.8718,3.8718,3.8718,3.8718,3.8718,3.8718,3.8718,3.8718,3.8718,3.8718,3.8718,3.8718,3.8718,3.8718,3.8718,3.8718,3.8718,3.8718,3.8718,3.8718,3.8718,3.8718,3.8718,3.8718,3.8718,3.8718,3.8718,3.8718,3.8718,3.8718,3.8718,3.8718,3.8718,3.8718,3.8718,3.8718,3.8718,3.8718,3.8673,3.8755,4.8423,5.4331,5.525,5.609,5.6569,5.6582,5.6582,5.6582,5.6582,5.6582,5.6582,0.0,0.0,0.0,0.0,0.0,0.0,0.0,0.0,0.0,0.0,0.0,0.0872,0.3949,0.4644,0.6345,1.0937,1.1497,1.2385,1.5395,1.708,1.786,1.786,1.786,1.786,1.786,1.786,1.786,1.786,1.786,1.786,1.786,1.786,1.786,1.786,1.786,1.8002,1.8321,1.8321,1.8464,1.8762,1.8762,1.8762,1.8762,1.8762,1.8762,1.8762,1.8762,1.9683,2.1164,2.0925,2.456,3.0351,3.0023,3.3071,3.7635,3.7929,3.833,3.8718,3.8718,3.8718,3.8718,3.8718,3.8718,3.8718,3.8718,3.8718,3.8718,3.8718,3.8718,3.8718,3.8718,3.8718,3.8718,3.8718,3.8718,3.8718,3.8718,3.8718,3.8718,3.8718,3.8718,3.8718,3.8718,3.8718,3.8718,3.8718,3.8718,3.8718,3.8718,3.8718,3.8718,3.8718,3.8718,3.8718,3.8718,3.8718,3.8718,3.8718,3.8718,3.8646,3.8646,4.4004,4.6945,4.696,5.3293,5.6603,5.6638,5.6631,5.6582,5.6582,5.6582,5.6582,0.0,0.0,0.0,0.0,0.0,0.0,0.0,0.0,0.0,0.0,0.0,0.0879,0.3972,0.689,1.0384,1.5068,1.4503,1.4503,1.7522,1.786,1.786,1.786,1.786,1.786,1.786,1.786,1.786,1.786,1.786,1.786,1.786,1.786,1.786,1.786,1.786,1.8002,1.8321,1.8301,1.8443,1.8762,1.8762,1.8762,1.8762,1.8762,1.8762,1.8762,1.8762,2.0146,2.2062,1.9784,2.3777,3.115,2.8759,3.1806,3.7555,3.8076,3.8477,3.8718,3.8718,3.8718,3.8718,3.8718,3.8718,3.8718,3.8718,3.8718,3.8718,3.8718,3.8718,3.8718,3.8718,3.8718,3.8718,3.8718,3.8718,3.8718,3.8718,3.8718,3.8718,3.8718,3.8718,3.8718,3.8718,3.8718,3.8718,3.8718,3.8718,3.8718,3.8718,3.8718,3.8718,3.8718,3.8718,3.8718,3.8718,3.8718,3.8718,3.8718,3.8718,3.8673,3.8668,3.8668,3.8665,3.8665,4.913,5.5216,5.6629,5.6552,5.664,5.6884,5.6884,5.6777,0.0,0.0,0.0,0.0,0.0,0.0,0.0,0.0,0.0,0.0,0.0,0.0885,0.3977,0.689,0.9045,0.9483,1.171,1.4503,1.7522,1.786,1.786,1.786,1.786,1.786,1.786,1.786,1.786,1.786,1.786,1.786,1.786,1.786,1.786,1.786,1.786,1.8002,1.8321,1.8332,1.8489,1.8762,1.8762,1.8762,1.8762,1.8762,1.8762,1.8762,1.8762,1.8885,1.9103,1.8878,2.2522,2.8204,2.7987,3.1897,3.7809,3.8143,3.8477,3.8718,3.8718,3.8718,3.8718,3.8718,3.8718,3.8718,3.8718,3.8718,3.8718,3.8718,3.8718,3.8718,3.8718,3.8718,3.8718,3.8718,3.8718,3.8718,3.8718,3.8718,3.8718,3.8718,3.8718,3.8718,3.8718,3.8718,3.8718,3.8718,3.8718,3.8718,3.8718,3.8718,3.8718,3.8718,3.8718,3.8718,3.8718,3.8718,3.8718,3.8718,3.8718,3.8718,3.8691,3.8664,3.8694,3.8706,4.4975,5.0982,5.6629,5.6552,5.705,5.7757,5.7757,5.7383,0.0,0.0,0.0,0.0,0.0,0.0,0.0,0.0,0.0,0.0,0.0,0.0888,0.3896,0.8468,1.1723,1.1723,1.4276,1.6624,1.7749,1.786,1.786,1.786,1.786,1.786,1.786,1.786,1.786,1.786,1.786,1.786,1.786,1.786,1.786,1.786,1.786,1.7989,1.8332,1.8298,1.8475,1.8762,1.8762,1.8762,1.8762,1.8762,1.8762,1.8762,1.8762,1.8762,1.8762,1.8762,2.2424,2.8327,3.2071,3.5219,3.7823,3.7929,3.829,3.8718,3.8718,3.8718,3.8718,3.8718,3.8718,3.8718,3.8718,3.8718,3.8718,3.8718,3.8718,3.8718,3.8718,3.8718,3.8718,3.8718,3.8718,3.8718,3.8718,3.8718,3.8718,3.8718,3.8718,3.8718,3.8718,3.8718,3.8718,3.8718,3.8718,3.8718,3.8718,3.8718,3.8718,3.8718,3.8718,3.8718,3.8718,3.8905,3.8972,3.8972,3.8825,3.8718,3.8718,3.8718,3.886,3.9249,4.5264,5.1425,5.7415,5.7433,5.7589,5.7893,5.8467,5.8565,0.0,0.0,0.0,0.0,0.0,0.0,0.0,0.0,0.0,0.0,0.0,0.0668,0.2686,0.7931,1.1937,1.1937,1.5284,1.786,1.786,1.786,1.786,1.786,1.786,1.786,1.786,1.786,1.786,1.786,1.786,1.786,1.786,1.786,1.786,1.786,1.786,1.8066,1.8278,1.8346,1.843,1.8762,1.8762,1.8762,1.8762,1.8762,1.8762,1.8762,1.8762,1.8762,1.8762,1.8762,2.2424,2.8543,3.4569,3.7301,3.7809,3.7809,3.821,3.8718,3.8718,3.8718,3.8718,3.8718,3.8718,3.8718,3.8718,3.8718,3.8718,3.8718,3.8718,3.8718,3.8718,3.8718,3.8718,3.8718,3.8718,3.8718,3.8718,3.8718,3.8718,3.8718,3.8718,3.8718,3.8718,3.8718,3.8718,3.8718,3.8718,3.8718,3.8718,3.8798,3.8905,3.8985,3.9012,3.9012,3.9012,3.9199,3.9306,3.9306,3.9118,3.9012,3.9012,3.9012,3.9222,3.9581,4.57,5.0834,5.4982,5.6917,5.793,5.8086,5.8682,5.9039,0.0,0.0,0.0,0.0,0.0,0.0,0.0,0.0,0.0,0.0,0.0,0.0,0.0,0.4923,0.8933,0.8933,1.3938,1.786,1.786,1.786,1.786,1.786,1.786,1.786,1.786,1.786,1.786,1.786,1.786,1.786,1.786,1.786,1.786,1.786,1.786,1.8066,1.8278,1.8355,1.8451,1.8762,1.8762,1.8762,1.8762,1.8762,1.8762,1.8762,1.8762,1.8762,1.8762,1.8878,2.2407,2.8543,3.4569,3.7301,3.7809,3.7809,3.821,3.8718,3.8718,3.8718,3.8718,3.8718,3.8718,3.8718,3.8718,3.8718,3.8718,3.8718,3.8718,3.8718,3.8718,3.8718,3.8718,3.8718,3.8718,3.8718,3.8718,3.8718,3.8718,3.8718,3.8718,3.8718,3.8718,3.8718,3.8718,3.8718,3.8718,3.8718,3.8731,3.8972,3.9265,3.9559,3.9599,3.9599,3.9599,3.9599,3.9599,3.9599,3.9599,3.9599,3.9599,3.9599,3.9599,3.9599,4.5665,4.8733,4.8733,5.4894,5.8086,5.8535,5.8535,5.8769,0.0,0.0,0.0,0.0,0.0,0.0,0.0,0.0,0.0,0.0,0.0,0.0,0.0,0.4923,0.8933,0.8933,1.3938,1.786,1.786,1.786,1.786,1.786,1.786,1.786,1.786,1.786,1.786,1.786,1.786,1.786,1.786,1.786,1.786,1.786,1.7977,1.8066,1.8278,1.8421,1.8612,1.8762,1.8762,1.8762,1.8762,1.8762,1.8762,1.8762,1.8762,1.8762,1.9103,2.3441,2.6272,2.8543,3.4569,3.7301,3.7809,3.7809,3.821,3.8718,3.8718,3.8718,3.8718,3.8718,3.8718,3.8718,3.8718,3.8718,3.8718,3.8718,3.8718,3.8718,3.8718,3.8718,3.8718,3.8718,3.8718,3.8718,3.8718,3.8718,3.8718,3.8718,3.8718,3.8718,3.8718,3.8718,3.8718,3.8718,3.8905,3.9092,3.9306,3.9412,3.9493,3.9599,3.9599,3.9599,3.9599,3.9786,3.9893,3.9893,4.0107,4.004,3.9599,3.9599,4.0734,4.3135,4.7151,5.036,5.2728,5.6796,5.8848,5.9004,5.9004,5.9062,0.0,0.0,0.0,0.0,0.0,0.0,0.0,0.0,0.0,0.0,0.0,0.0,0.0,0.4923,0.8933,0.8933,1.3938,1.786,1.786,1.786,1.786,1.786,1.786,1.786,1.786,1.786,1.786,1.786,1.786,1.786,1.786,1.786,1.786,1.786,1.7977,1.8211,1.8332,1.8435,1.8632,1.8762,1.8762,1.8762,1.8762,1.8762,1.8762,1.8762,1.8762,1.8762,1.9226,2.5379,2.7874,2.8543,3.4569,3.7301,3.7809,3.7809,3.821,3.8718,3.8718,3.8718,3.8718,3.8718,3.8718,3.8718,3.8718,3.8718,3.8718,3.8718,3.8718,3.8718,3.8718,3.8718,3.8718,3.8718,3.8718,3.8718,3.8718,3.8718,3.8718,3.8718,3.8718,3.8718,3.8718,3.8825,3.8905,3.8905,3.9159,3.9452,3.9746,3.9773,3.9813,3.9933,3.996,3.996,3.996,4.0107,4.0214,4.0214,4.0361,4.0334,3.996,3.996,4.1541,4.4727,4.7966,5.121,5.4472,5.7644,5.918,5.918,5.918,5.918,0.0,0.0,0.0,0.0,0.0,0.0,0.0,0.0,0.0,0.0,0.0,0.0,0.0,0.47,0.8596,0.8822,1.3727,1.7632,1.786,1.786,1.786,1.786,1.786,1.786,1.786,1.786,1.786,1.786,1.786,1.786,1.786,1.786,1.786,1.786,1.8011,1.8155,1.8335,1.8443,1.8586,1.8762,1.8762,1.8762,1.8762,1.8762,1.8762,1.8762,1.8762,1.8762,1.9226,2.5379,2.7874,2.8543,3.4569,3.7301,3.7809,3.7809,3.821,3.8718,3.8718,3.8718,3.8718,3.8718,3.8718,3.8718,3.8718,3.8718,3.8718,3.8718,3.8718,3.8718,3.8718,3.8718,3.8718,3.8718,3.8718,3.8718,3.8718,3.8718,3.8718,3.8718,3.8718,3.8731,3.8758,3.8972,3.9159,3.9225,3.9452,3.9746,4.0027,4.0067,4.0174,4.0441,4.0481,4.0481,4.0481,4.0481,4.0481,4.0481,4.0481,4.0481,4.0481,4.0481,4.1999,4.5011,4.795,5.0968,5.4111,5.7193,5.8712,5.8824,5.9087,5.918,0.0,0.0,0.0,0.0,0.0,0.0,0.0,0.0,0.0,0.0,0.0,0.0,0.0,0.3023,0.6257,0.8485,1.1937,1.5168,1.7522,1.786,1.786,1.786,1.786,1.786,1.786,1.786,1.786,1.786,1.786,1.786,1.786,1.786,1.786,1.786,1.8091,1.8287,1.8309,1.8599,1.8728,1.8762,1.8762,1.8762,1.8762,1.8762,1.8762,1.8762,1.8762,1.8762,1.9226,2.5379,2.7874,2.8543,3.4569,3.7301,3.7809,3.7809,3.821,3.8718,3.8718,3.8718,3.8718,3.8718,3.8718,3.8718,3.8718,3.8718,3.8718,3.8718,3.8718,3.8718,3.8718,3.8718,3.8718,3.8718,3.8718,3.8718,3.8718,3.8718,3.8718,3.8718,3.8718,3.8798,3.9012,3.9001,3.9306,3.9773,3.9893,4.004,4.0334,4.0361,4.0401,4.0481,4.0481,4.0481,4.0481,4.0481,4.0481,4.0481,4.0481,4.0481,4.0481,4.0481,4.1999,4.5011,4.5723,4.7699,5.0835,5.4015,5.5496,5.5628,5.8,5.918,0.0,0.0,0.0,0.0,0.0,0.0,0.0,0.0,0.0,0.0,0.0,0.0,0.0,0.3583,0.7153,0.8596,1.2612,1.6077,1.7632,1.786,1.786,1.786,1.786,1.786,1.786,1.786,1.786,1.786,1.786,1.786,1.786,1.786,1.786,1.786,1.8158,1.8255,1.8343,1.8654,1.8762,1.8762,1.8762,1.8762,1.8762,1.8762,1.8762,1.8762,1.8762,1.8762,1.9226,2.5379,2.7874,2.8543,3.4569,3.7301,3.7809,3.7809,3.821,3.8718,3.8718,3.8718,3.8718,3.8718,3.8718,3.8718,3.8718,3.8718,3.8718,3.8718,3.8718,3.8718,3.8718,3.8718,3.8718,3.8718,3.8718,3.8718,3.8718,3.8718,3.8718,3.8718,3.8838,3.8972,3.9118,3.9372,3.9733,4.0187,4.0254,4.0294,4.0441,4.0481,4.0481,4.0481,4.0481,4.0481,4.0481,4.0481,4.0481,4.0481,4.0481,4.0481,4.0481,4.0481,4.1999,4.5011,4.5145,4.667,4.9806,5.293,5.4454,5.4586,5.7776,5.918,0.0,0.0,0.0,0.0,0.0,0.0,0.0,0.0,0.0,0.0,0.0,0.0,0.0,0.4027,0.7708,0.8707,1.3051,1.6741,1.7749,1.786,1.786,1.786,1.786,1.786,1.786,1.786,1.786,1.786,1.786,1.786,1.786,1.786,1.786,1.786,1.8179,1.8275,1.8343,1.8654,1.8762,1.8762,1.8762,1.8762,1.8762,1.8762,1.8762,1.8762,1.8762,1.8762,1.9226,2.5379,2.7874,2.8543,3.4569,3.7261,3.7742,3.7782,3.8183,3.8651,3.8691,3.8718,3.8718,3.8718,3.8718,3.8718,3.8718,3.8718,3.8718,3.8718,3.8718,3.8718,3.8718,3.8718,3.8718,3.8718,3.8718,3.8718,3.8718,3.8718,3.8718,3.8718,3.9012,3.9148,3.9306,3.9746,4.0187,4.0441,4.0481,4.0481,4.0481,4.0481,4.0481,4.0481,4.0481,4.0481,4.0481,4.0481,4.0481,4.0481,4.0481,4.0481,4.0481,4.0481,4.1758,4.4206,4.434,4.562,4.8185,5.1894,5.3653,5.375,5.7419,5.918,0.0,0.0,0.0,0.0,0.0,0.0,0.0,0.0,0.0,0.0,0.0,0.0,0.0,0.0673,0.2911,0.8042,0.9598,1.1937,1.7197,1.786,1.786,1.786,1.786,1.786,1.786,1.786,1.786,1.786,1.786,1.786,1.786,1.786,1.786,1.786,1.812,1.8322,1.8343,1.8654,1.8762,1.8762,1.8762,1.8762,1.8762,1.8762,1.8762,1.8762,1.8762,1.8762,1.9226,2.5379,2.7874,2.8543,3.4569,3.7155,3.7462,3.7702,3.8036,3.837,3.8624,3.8718,3.8718,3.8718,3.8718,3.8718,3.8718,3.8718,3.8718,3.8718,3.8718,3.8718,3.8718,3.8718,3.8718,3.8718,3.8718,3.8718,3.8718,3.8718,3.8718,3.8718,3.9159,3.964,3.988,4.0187,4.0441,4.0481,4.0481,4.0481,4.0481,4.0481,4.0481,4.0481,4.0481,4.0481,4.0481,4.0481,4.0481,4.0481,4.0481,4.0481,4.0481,4.0481,4.071,4.106,4.106,4.1288,4.1758,4.7582,5.0388,5.0603,5.6496,5.918,0.0,0.0,0.0,0.0,0.0,0.0,0.0,0.0,0.0,0.0,0.0,0.0,0.0,0.1346,0.3915,0.8157,1.0273,1.294,1.7307,1.786,1.786,1.786,1.786,1.786,1.786,1.786,1.786,1.786,1.786,1.786,1.786,1.786,1.786,1.786,1.8145,1.8201,1.8255,1.8552,1.8674,1.8762,1.8762,1.8762,1.8762,1.8762,1.8762,1.8762,1.8762,1.8762,1.9226,2.5379,2.7874,2.8543,3.4569,3.7128,3.7422,3.7702,3.7996,3.829,3.8611,3.8718,3.8718,3.8718,3.8718,3.8718,3.8718,3.8718,3.8718,3.8718,3.8718,3.8718,3.8718,3.8718,3.8718,3.8718,3.8718,3.8718,3.8718,3.8718,3.8838,3.9159,3.9559,3.992,4.0214,4.0401,4.0481,4.0481,4.0481,4.0481,4.0481,4.0481,4.0481,4.0481,4.0481,4.0481,4.0481,4.0481,4.0481,4.0481,4.0481,4.0481,4.0481,4.0481,4.0481,4.0481,4.0481,4.0481,4.0481,4.6773,4.9806,4.9906,5.6214,5.918,0.0,0.0,0.0,0.0,0.0,0.0,0.0,0.0,0.0,0.0,0.0,0.0,0.0,0.1793,0.4363,0.7259,1.0269,1.3278,1.6286,1.7405,1.786,1.786,1.786,1.786,1.786,1.786,1.786,1.786,1.786,1.786,1.786,1.786,1.786,1.786,1.8036,1.8199,1.8321,1.8498,1.8654,1.8762,1.8762,1.8762,1.8762,1.8762,1.8762,1.8762,1.8762,1.8762,1.9226,2.5379,2.7409,2.7409,3.4197,3.6616,3.6281,3.745,3.7956,3.8183,3.8584,3.8718,3.8718,3.8718,3.8718,3.8718,3.8718,3.8718,3.8718,3.8718,3.8718,3.8718,3.8718,3.8718,3.8718,3.8718,3.8718,3.8718,3.8718,3.8798,3.8985,3.9493,3.9813,4.0147,4.0441,4.0481,4.0481,4.0481,4.0481,4.0481,4.0481,4.0481,4.0481,4.0481,4.0481,4.0481,4.0481,4.0481,4.0481,4.0481,4.0481,4.0481,4.0481,4.0481,4.0481,4.0481,4.0481,4.0939,4.1637,4.7142,4.9806,4.9906,5.6214,5.8712,0.0,0.0,0.0,0.0,0.0,0.0,0.0,0.0,0.0,0.0,0.0,0.0,0.0,0.0112,0.1234,0.4251,0.7153,1.0158,1.3162,1.6077,1.786,1.786,1.786,1.786,1.786,1.786,1.786,1.786,1.786,1.786,1.786,1.786,1.786,1.786,1.8023,1.8158,1.8321,1.8606,1.8762,1.8762,1.8762,1.8762,1.8762,1.8762,1.8762,1.8762,1.8762,1.8762,1.9226,2.5379,2.6149,2.4455,3.3428,3.5126,3.304,3.6554,3.7809,3.7929,3.8504,3.8718,3.8718,3.8718,3.8718,3.8718,3.8718,3.8718,3.8718,3.8718,3.8718,3.8718,3.8718,3.8718,3.8718,3.8718,3.8718,3.8718,3.8718,3.8945,3.9225,3.9533,3.9813,4.0147,4.0441,4.0481,4.0481,4.0481,4.0481,4.0481,4.0481,4.0481,4.0481,4.0481,4.0481,4.0481,4.0481,4.0481,4.0481,4.0481,4.0481,4.0481,4.0481,4.0481,4.0481,4.0481,4.0481,4.1999,4.4907,4.8185,4.9806,4.9906,5.6214,5.7644,0.0,0.0,0.0,0.0,0.0,0.0,0.0,0.0,0.0,0.0,0.0,0.0,0.0,0.0,0.1009,0.4027,0.693,0.9935,1.294,1.596,1.786,1.786,1.786,1.786,1.786,1.786,1.786,1.786,1.786,1.786,1.786,1.786,1.786,1.786,1.7914,1.8077,1.8321,1.862,1.8762,1.8762,1.8762,1.8762,1.8762,1.8762,1.8762,1.8762,1.8762,1.8762,1.9103,2.3203,2.4341,2.3997,3.124,3.2908,3.1924,3.605,3.7683,3.7889,3.8504,3.8718,3.8718,3.8718,3.8718,3.8718,3.8718,3.8718,3.8718,3.8718,3.8718,3.8718,3.8718,3.8718,3.8718,3.8718,3.8718,3.8758,3.8972,3.9225,3.9493,3.9559,4.0,4.0361,4.0468,4.0481,4.0481,4.0481,4.0481,4.0481,4.0481,4.0481,4.0481,4.0481,4.0481,4.0481,4.0481,4.0481,4.0481,4.0481,4.0481,4.0481,4.0481,4.0481,4.0481,4.0481,4.0481,4.1047,4.2105,4.5248,4.6773,4.6993,5.3292,5.5628,0.0,0.0,0.0,0.0,0.0,0.0,0.0,0.0,0.0,0.0,0.0,0.0,0.0,0.0,0.0673,0.2689,0.5478,0.8485,1.1497,1.4503,1.6741,1.7749,1.786,1.786,1.786,1.786,1.786,1.786,1.786,1.786,1.786,1.786,1.786,1.786,1.7968,1.8111,1.8321,1.862,1.8762,1.8762,1.8762,1.8762,1.8762,1.8762,1.8762,1.8762,1.8762,1.8762,1.8987,2.2062,2.2645,2.2407,2.919,3.1093,3.0452,3.5471,3.7489,3.7889,3.8525,3.8664,3.8718,3.8718,3.8718,3.8718,3.8718,3.8718,3.8718,3.8718,3.8718,3.8718,3.8718,3.8718,3.8718,3.8718,3.8718,3.8798,3.9078,3.9372,3.964,3.9746,4.0147,4.0481,4.0481,4.0481,4.0481,4.0481,4.0481,4.0481,4.0481,4.0481,4.0481,4.0481,4.0481,4.0481,4.0481,4.0481,4.0481,4.0481,4.0481,4.0481,4.0481,4.0481,4.0481,4.0481,4.0481,4.0481,4.0481,4.3623,4.5145,4.5248,5.1564,5.5023,0.0,0.0,0.0,0.0,0.0,0.0,0.0,0.0,0.0,0.0,0.0,0.0,0.0,0.0,0.0,0.0,0.2577,0.5478,0.8373,1.1385,1.4503,1.7405,1.786,1.786,1.786,1.786,1.786,1.786,1.786,1.786,1.786,1.786,1.786,1.786,1.8158,1.8321,1.8321,1.862,1.8762,1.8762,1.8762,1.8762,1.8762,1.8762,1.8762,1.8762,1.8762,1.8762,1.8987,2.1963,2.1387,1.9567,2.7423,2.9373,2.8327,3.4594,3.7304,3.7849,3.8526,3.8735,3.8718,3.8718,3.8718,3.8718,3.8718,3.8718,3.8718,3.8718,3.8718,3.8718,3.8718,3.8718,3.8718,3.8718,3.8718,3.8798,3.9001,3.9386,3.968,3.996,4.0254,4.0481,4.0481,4.0481,4.0481,4.0481,4.0481,4.0481,4.0481,4.0481,4.0481,4.0481,4.0481,4.0481,4.0481,4.0481,4.0481,4.0481,4.0481,4.0481,4.0481,4.0481,4.0481,4.0481,4.0481,4.0481,4.0481,4.3518,4.5011,4.5248,5.1564,5.6214,0.0,0.0,0.0,0.0,0.0,0.0,0.0,0.0,0.0,0.0,0.0,0.0,0.0,0.0,0.0,0.0,0.2577,0.4812,0.559,1.0158,1.3727,1.4503,1.6514,1.786,1.786,1.786,1.786,1.786,1.786,1.786,1.786,1.786,1.786,1.786,1.8158,1.8321,1.8321,1.862,1.8762,1.8762,1.8762,1.8762,1.8762,1.8762,1.8762,1.8762,1.8762,1.8762,1.8878,1.9683,1.956,1.898,2.1247,2.1814,2.2577,3.3065,3.6984,3.7329,3.8399,3.8735,3.8718,3.8718,3.8718,3.8718,3.8718,3.8718,3.8718,3.8718,3.8718,3.8718,3.8718,3.8718,3.8718,3.8718,3.8718,3.8748,3.9123,3.9401,3.968,3.996,4.0254,4.0481,4.0481,4.0481,4.0481,4.0481,4.0481,4.0481,4.0481,4.0481,4.0481,4.0481,4.0481,4.0481,4.0481,4.0481,4.0481,4.0481,4.0481,4.0481,4.0481,4.0481,4.0481,4.0481,4.0481,4.0481,4.0481,4.1423,4.2919,4.5248,5.1564,5.6214,0.0,0.0,0.0,0.0,0.0,0.0,0.0,0.0,0.0,0.0,0.0,0.0,0.0,0.0,0.0,0.0,0.1458,0.3023,0.4363,0.8596,1.1937,1.3278,1.6077,1.786,1.786,1.786,1.786,1.786,1.786,1.786,1.786,1.786,1.786,1.786,1.8158,1.8321,1.8321,1.862,1.8762,1.8762,1.8762,1.8762,1.8762,1.8762,1.8762,1.8762,1.8762,1.8762,1.8762,1.8762,1.8762,1.8749,1.8836,1.8813,2.0214,3.2394,3.6932,3.7076,3.8264,3.8742,3.8718,3.8718,3.8718,3.8718,3.8718,3.8718,3.8718,3.8718,3.8718,3.8718,3.8718,3.8718,3.8718,3.8718,3.8718,3.8865,3.9348,3.9467,3.9706,4.0147,4.0361,4.0481,4.0481,4.0481,4.0481,4.0481,4.0481,4.0481,4.0481,4.0481,4.0481,4.0481,4.0481,4.0481,4.0481,4.0481,4.0481,4.0481,4.0481,4.0481,4.0481,4.0481,4.0481,4.0481,4.0481,4.0481,4.0481,4.0481,4.2813,4.7229,5.2142,5.6214,0.0,0.0,0.0,0.0,0.0,0.0,0.0,0.0,0.0,0.0,0.0,0.0,0.0,0.0,0.0,0.0,0.0,0.0897,0.3583,0.6592,0.9487,1.2501,1.5512,1.7522,1.786,1.786,1.786,1.786,1.786,1.786,1.786,1.786,1.786,1.786,1.8145,1.8301,1.8321,1.8599,1.8742,1.8762,1.8762,1.8762,1.8762,1.8762,1.8762,1.8762,1.8762,1.8762,1.8762,1.8762,1.8762,1.8749,1.8857,1.8834,2.0312,3.239,3.6926,3.7024,3.833,3.8695,3.8691,3.8718,3.8718,3.8718,3.8718,3.8718,3.8718,3.8718,3.8718,3.8718,3.8718,3.8718,3.8718,3.8718,3.8718,3.8878,3.9493,3.9599,3.9773,4.0361,4.0481,4.0481,4.0481,4.0481,4.0481,4.0481,4.0481,4.0481,4.0481,4.0481,4.0481,4.0481,4.0481,4.0481,4.0481,4.0481,4.0481,4.0481,4.0481,4.0481,4.0481,4.0481,4.0481,4.0481,4.0481,4.0481,4.0481,4.1195,4.434,4.9939,5.3406,5.6459,0.0,0.0,0.0,0.0,0.0,0.0,0.0,0.0,0.0,0.0,0.0,0.0,0.0,0.0,0.0,0.0,0.0,0.0224,0.0785,0.3471,0.6481,0.9382,1.2385,1.5278,1.7632,1.786,1.786,1.786,1.786,1.786,1.786,1.786,1.786,1.786,1.8036,1.8199,1.8321,1.8498,1.864,1.8762,1.8762,1.8762,1.8762,1.8762,1.8762,1.8762,1.8762,1.8762,1.8762,1.8762,1.8762,1.8762,1.8844,1.8802,2.0214,3.2475,3.6879,3.7098,3.8262,3.8687,3.8667,3.8664,3.8718,3.8718,3.8718,3.8718,3.8718,3.8718,3.8718,3.8718,3.8718,3.8718,3.8718,3.8718,3.8718,3.8878,3.9493,3.9467,3.9641,4.0361,4.0481,4.0481,4.0481,4.0481,4.0481,4.0481,4.0481,4.0481,4.0481,4.0481,4.0481,4.0481,4.0481,4.0481,4.0481,4.0481,4.0481,4.0481,4.0481,4.0481,4.0481,4.0481,4.0481,4.0481,4.0481,4.0481,4.0481,4.5486,4.8654,4.9906,5.5647,5.86,0.0,0.0,0.0,0.0,0.0,0.0,0.0,0.0,0.0,0.0,0.0,0.0,0.0,0.0,0.0,0.0,0.0,0.0,0.0,0.2577,0.559,0.8596,1.1586,1.4592,1.7632,1.786,1.786,1.786,1.786,1.786,1.786,1.786,1.786,1.786,1.8002,1.8158,1.8321,1.8464,1.8599,1.8762,1.8762,1.8762,1.8762,1.8762,1.8762,1.8762,1.8762,1.8762,1.8762,1.8762,1.8762,1.8762,1.8762,1.8823,2.0214,3.242,3.6879,3.7032,3.7576,3.8251,3.8688,3.874,3.8718,3.8718,3.8718,3.8718,3.8718,3.8718,3.8718,3.8718,3.8718,3.8718,3.8718,3.8718,3.8718,3.8865,3.9361,3.9335,3.9521,4.0361,4.0481,4.0481,4.0481,4.0481,4.0481,4.0481,4.0481,4.0481,4.0481,4.0481,4.0481,4.0481,4.0481,4.0481,4.0481,4.0481,4.0481,4.0481,4.0481,4.0481,4.0481,4.0481,4.0481,4.0481,4.0481,4.0481,4.0481,4.516,4.8287,4.9906,5.6214,5.918,0.0,0.0,0.0,0.0,0.0,0.0,0.0,0.0,0.0,0.0,0.0,0.0,0.0,0.0,0.0,0.0,0.0,0.0,0.0,0.2123,0.47,0.7708,1.0698,1.3701,1.6722,1.7522,1.786,1.786,1.786,1.786,1.786,1.786,1.786,1.786,1.7989,1.8124,1.8321,1.8423,1.8586,1.8762,1.8762,1.8762,1.8762,1.8762,1.8762,1.8762,1.8762,1.8762,1.8762,1.8762,1.8762,1.8762,1.8762,1.8823,2.0214,3.242,3.6879,3.6841,3.6932,3.7702,3.8735,3.874,3.8718,3.8718,3.8718,3.8718,3.8718,3.8718,3.8718,3.8718,3.8718,3.8718,3.8718,3.8718,3.8718,3.8748,3.9098,3.9322,3.9641,4.0361,4.0481,4.0481,4.0481,4.0481,4.0481,4.0481,4.0481,4.0481,4.0481,4.0481,4.0481,4.0481,4.0481,4.0481,4.0481,4.0481,4.0481,4.0481,4.0481,4.0481,4.0481,4.0481,4.0481,4.0481,4.0481,4.0481,4.0481,4.3623,4.6757,4.9906,5.5647,5.86,0.0,0.0,0.0,0.0,0.0,0.0,0.0,0.0,0.0,0.0,0.0,0.0,0.0,0.0,0.0,0.0,0.0,0.0,0.0,0.0332,0.1682,0.4588,0.7602,1.0607,1.3575,1.6384,1.786,1.786,1.786,1.786,1.786,1.786,1.786,1.786,1.788,1.8023,1.8321,1.8335,1.8477,1.8762,1.8762,1.8762,1.8762,1.8762,1.8762,1.8762,1.8762,1.8762,1.8762,1.8762,1.8762,1.8762,1.8762,1.8823,2.0214,3.242,3.686,3.695,3.6879,3.7722,3.8733,3.8673,3.8718,3.8718,3.8718,3.8718,3.8718,3.8718,3.8718,3.8718,3.8718,3.8718,3.8718,3.8718,3.8718,3.8735,3.8821,3.919,3.9773,4.0361,4.0481,4.0481,4.0481,4.0481,4.0481,4.0481,4.0481,4.0481,4.0481,4.0481,4.0481,4.0481,4.0481,4.0481,4.0481,4.0481,4.0481,4.0481,4.0481,4.0481,4.0481,4.0481,4.0481,4.0481,4.0481,4.0481,4.0481,4.3623,4.6757,4.9939,5.3406,5.6591,0.0,0.0,0.0,0.0,0.0,0.0,0.0,0.0,0.0,0.0,0.0,0.0,0.0,0.0,0.0,0.0,0.0,0.0,0.0,0.0,0.1121,0.4139,0.559,0.8259,1.2901,1.4603,1.5967,1.7749,1.6286,1.6077,1.786,1.786,1.786,1.786,1.786,1.8002,1.8321,1.8321,1.8464,1.8762,1.8762,1.8762,1.8762,1.8762,1.8762,1.8762,1.8762,1.8762,1.8762,1.8762,1.8762,1.8762,1.8762,1.8755,2.0219,3.2478,3.6926,3.6886,3.6905,3.7683,3.8706,3.8673,3.8718,3.8718,3.8718,3.8718,3.8718,3.8718,3.8718,3.8718,3.8718,3.8718,3.8718,3.8718,3.8718,3.8735,3.869,3.919,3.9786,4.0361,4.0481,4.0481,4.0481,4.0481,4.0481,4.0481,4.0481,4.0481,4.0481,4.0481,4.0481,4.0481,4.0481,4.0481,4.0481,4.0481,4.0481,4.0481,4.0481,4.0481,4.0481,4.0481,4.0481,4.0481,4.0481,4.0481,4.0481,4.1771,4.4922,4.9939,5.3062,5.6214,0.0,0.0,0.0,0.0,0.0,0.0,0.0,0.0,0.0,0.0,0.0,0.0,0.0,0.0,0.0,0.0,0.0,0.0,0.0,0.0,0.0785,0.3023,0.4027,0.6476,1.1688,1.2149,1.3404,1.6403,1.462,1.473,1.7749,1.786,1.786,1.786,1.786,1.7989,1.8247,1.8301,1.8443,1.8694,1.8742,1.8762,1.8762,1.8762,1.8762,1.8762,1.8762,1.8762,1.8762,1.8762,1.8762,1.8762,1.8762,1.881,1.9893,2.8709,3.4093,3.6907,3.6879,3.7683,3.8687,3.8673,3.8718,3.8718,3.8718,3.8718,3.8718,3.8718,3.8718,3.8718,3.8718,3.8718,3.8718,3.8718,3.8718,3.8735,3.8821,3.9203,3.9786,4.0361,4.0481,4.0481,4.0481,4.0481,4.0481,4.0481,4.0481,4.0481,4.0481,4.0481,4.0481,4.0481,4.0481,4.0481,4.0481,4.0481,4.0481,4.0481,4.0481,4.0481,4.0481,4.0481,4.0481,4.0481,4.0481,4.0481,4.0481,4.0481,4.3758,4.9806,5.2124,5.5401,0.0,0.0,0.0,0.0,0.0,0.0,0.0,0.0,0.0,0.0,0.0,0.0,0.0,0.0,0.0,0.0,0.0,0.0,0.0,0.0,0.0,0.0112,0.2689,0.5702,0.8707,0.9045,1.0269,1.3278,1.35,1.473,1.7749,1.786,1.786,1.786,1.786,1.7935,1.8091,1.8247,1.8389,1.8545,1.8694,1.8762,1.8762,1.8762,1.8762,1.8762,1.8762,1.8762,1.8762,1.8762,1.8762,1.8762,1.8762,1.8762,1.8844,1.927,2.6862,3.688,3.688,3.7656,3.8688,3.874,3.8718,3.8718,3.8718,3.8718,3.8718,3.8718,3.8718,3.8718,3.8718,3.8718,3.8718,3.8718,3.8718,3.8865,3.9216,3.9467,3.9786,4.0361,4.0481,4.0481,4.0481,4.0481,4.0481,4.0481,4.0481,4.0481,4.0481,4.0481,4.0481,4.0481,4.0481,4.0481,4.0481,4.0481,4.0481,4.0481,4.0481,4.0481,4.0481,4.0481,4.0481,4.0481,4.0481,4.0481,4.0481,4.0481,4.3758,4.9806,4.9939,5.3309,0.0,0.0,0.0,0.0,0.0,0.0,0.0,0.0,0.0,0.0,0.0,0.0,0.0,0.0,0.0,0.0,0.0,0.0,0.0,0.0,0.0,0.0,0.2689,0.4923,0.5938,0.7713,1.0158,1.3162,1.3389,1.473,1.7749,1.786,1.786,1.786,1.786,1.7935,1.8091,1.8247,1.8389,1.8531,1.8694,1.8762,1.8762,1.8762,1.8762,1.8762,1.8762,1.8762,1.8762,1.8762,1.8762,1.8762,1.8762,1.8762,1.8844,1.8799,2.6478,3.6932,3.6905,3.7675,3.8688,3.874,3.8718,3.8718,3.8718,3.8718,3.8718,3.8718,3.8718,3.8718,3.8718,3.8718,3.8718,3.8718,3.8718,3.8865,3.9216,3.9599,3.9919,4.0374,4.0481,4.0481,4.0481,4.0481,4.0481,4.0481,4.0481,4.0481,4.0481,4.0481,4.0481,4.0481,4.0481,4.0481,4.0481,4.0481,4.0481,4.0481,4.0481,4.0481,4.0481,4.0481,4.0481,4.0481,4.0481,4.0481,4.0481,4.0481,4.3758,4.9806,4.9806,5.3212,0.0,0.0,0.0,0.0,0.0,0.0,0.0,0.0,0.0,0.0,0.0,0.0,0.0,0.0,0.0,0.0,0.0,0.0,0.0,0.0,0.0,0.0,0.168,0.3359,0.4368,0.6262,0.9045,1.3051,1.3389,1.473,1.7749,1.786,1.786,1.786,1.786,1.7914,1.8002,1.8213,1.8375,1.8464,1.8654,1.8762,1.8762,1.8762,1.8762,1.8762,1.8762,1.8762,1.8762,1.8762,1.8762,1.8762,1.8762,1.8762,1.8844,1.8799,2.643,3.6926,3.6862,3.7654,3.8695,3.8713,3.8718,3.8718,3.8718,3.8718,3.8718,3.8718,3.8718,3.8718,3.8718,3.8718,3.8718,3.8718,3.8718,3.8865,3.9348,3.9731,4.0052,4.0374,4.0481,4.0481,4.0481,4.0481,4.0481,4.0481,4.0481,4.0481,4.0481,4.0481,4.0481,4.0481,4.0481,4.0481,4.0481,4.0481,4.0481,4.0481,4.0481,4.0481,4.0481,4.0481,4.0481,4.0481,4.0481,4.0481,4.0481,4.0481,4.3758,4.9806,4.9806,5.3212]}]]